GFSGL_sfc_thetae_000.txt.gz
Theta_e
324 325 327 325 328 330 330 331 332 329 330 328 325 326 328 333 333 338 336 332 331 329 331 327 326 328 325 324 323 324 327 325 321 321 323 327 327 325 323 328 326 323 320
322 324 326 325 327 328 329 331 333 333 332 329 329 327 327 327 330 334 335 334 333 331 332 332 327 330 331 332 329 329 329 329 325 320 323 324 327 330 329 331 327 327 325
320 322 325 325 327 328 329 330 330 330 332 333 330 328 327 326 328 330 333 334 335 335 335 334 333 334 332 332 331 325 324 323 325 320 319 323 325 327 328 327 326 326 323
319 319 322 325 326 327 329 329 328 327 328 330 331 330 331 329 327 331 335 335 335 334 335 335 334 333 332 333 329 326 324 323 323 321 321 321 322 324 325 321 319 320 317
319 319 320 325 325 326 327 329 329 327 326 325 326 326 328 327 325 329 329 330 330 330 331 331 332 324 317 321 321 327 329 323 322 320 319 320 320 320 321 322 321 321 320
320 320 320 321 323 324 327 329 328 327 325 325 325 324 325 321 303 309 324 327 327 327 327 325 323 318 313 308 310 310 323 328 326 321 320 320 324 323 323 322 321 319 315
320 321 319 319 320 323 324 325 327 328 330 326 325 325 326 322 300 303 311 331 330 330 330 329 323 320 322 323 306 307 307 307 311 330 327 325 325 328 328 324 324 321 319
320 321 320 317 318 321 323 324 328 330 330 329 328 327 326 317 299 300 308 328 329 328 329 328 327 326 322 323 323 323 323 323 324 323 330 331 331 330 330 327 327 325 324
319 320 320 318 317 320 321 324 328 329 329 328 327 327 325 321 298 297 307 323 323 322 321 321 322 320 300 301 319 320 321 321 297 298 299 296 295 296 306 322 317 316 314
319 320 321 319 318 319 322 325 327 327 325 322 324 326 316 324 296 295 304 314 318 314 316 315 299 309 295 297 321 321 319 320 318 314 316 306 300 308 297 315 315 311 312
321 320 322 322 320 323 325 326 326 325 323 323 322 324 324 321 317 295 295 315 313 311 310 311 308 295 294 294 296 319 316 317 310 313 314 314 315 314 313 312 314 312 308
321 320 322 324 319 321 326 326 325 324 323 322 321 320 320 323 307 296 294 295 305 316 315 316 314 292 292 293 296 296 295 297 312 314 313 313 313 313 314 314 316 315 313
322 321 323 324 321 322 324 324 321 323 318 318 317 316 317 319 321 299 295 293 295 317 321 308 298 293 292 292 292 293 290 309 312 313 314 315 316 316 316 314 315 314 313
323 322 324 324 322 321 322 322 320 319 318 317 316 316 317 318 318 319 313 309 297 305 306 315 309 304 302 303 307 303 309 313 315 316 316 316 315 315 313 311 312 311 307
324 324 324 324 323 321 321 320 319 325 317 318 318 318 318 318 318 311 313 317 317 312 314 318 316 315 315 316 317 317 318 319 317 318 317 317 317 314 311 310 306 306 307
327 324 323 322 323 321 319 318 303 302 301 299 300 310 318 303 297 298 300 300 298 295 311 317 318 318 317 318 321 323 324 313 320 315 312 310 306 304 304 304 306 305 305
329 327 323 319 322 320 319 317 316 310 297 296 295 296 296 304 295 296 295 292 291 296 315 319 318 317 319 322 323 323 319 312 311 309 305 301 299 302 304 306 305 305 305
330 310 324 323 322 321 320 319 318 316 315 315 298 299 294 294 294 292 292 295 305 305 317 318 319 321 321 318 315 308 307 305 302 301 303 304 304 304 304 304 304 304 304
326 324 325 323 323 320 322 321 319 319 318 316 316 304 296 291 291 291 292 316 320 319 318 318 320 318 312 308 304 303 303 302 303 304 303 304 304 303 302 303 303 293 295
326 312 316 323 322 322 322 321 321 320 320 320 324 322 312 308 315 316 320 323 322 321 318 314 309 305 305 305 302 302 300 299 301 303 303 303 302 302 301 301 302 301 301
325 325 310 322 322 322 322 322 322 321 321 321 322 319 302 323 321 322 320 320 316 312 309 304 305 307 308 301 303 306 304 302 301 300 300 300 301 301 302 302 301 301 300
325 325 323 322 322 323 322 323 323 323 322 323 321 314 293 322 319 314 312 308 305 306 308 308 305 303 303 303 303 302 301 300 299 300 300 301 301 301 301 300 300 299 298
324 324 323 323 323 313 322 323 323 323 324 321 318 315 316 314 312 310 310 310 308 305 305 304 302 302 301 301 301 300 299 300 300 300 300 300 300 300 300 300 298 298 297
324 324 323 322 321 322 322 322 324 313 320 317 316 316 315 313 312 310 308 305 301 300 301 300 300 300 300 300 300 301 302 302 301 301 301 300 299 298 299 298 298 297 295
323 323 323 323 322 322 322 322 321 318 316 316 314 313 312 308 305 302 302 301 299 300 299 299 299 300 300 300 300 299 289 286 295 287 301 300 299 299 298 297 297 297 296
322 323 323 322 320 319 317 316 317 315 313 311 309 304 301 300 298 298 298 299 298 297 298 298 299 299 299 299 297 287 285 285 292 285 297 300 298 297 297 295 295 295 294

GFSGL_sfc_thetae_003.txt.gz
Theta_e
325 327 328 330 332 332 333 334 331 333 330 333 334 334 333 335 337 339 338 335 332 330 329 326 325 324 323 323 324 326 326 326 322 325 328 332 334 334 328 332 327 325 319
324 326 326 329 331 332 333 336 334 334 329 329 333 333 333 334 336 336 334 334 331 329 327 327 325 326 324 324 324 330 333 330 325 324 327 327 328 334 329 334 329 325 325
322 325 326 328 330 331 332 332 336 335 331 329 330 329 332 334 334 336 335 334 334 334 330 327 329 326 325 326 328 327 332 332 330 324 323 327 326 329 330 333 332 335 327
320 322 325 327 329 331 330 330 332 334 335 333 330 330 330 331 335 335 335 337 336 333 331 333 333 330 332 334 333 327 332 331 332 325 323 323 325 330 329 325 323 325 323
318 320 325 326 328 332 330 330 330 330 330 332 332 331 330 329 331 334 336 337 335 335 335 333 336 329 321 324 328 333 334 329 324 323 320 321 321 323 323 325 324 326 327
319 318 323 324 325 328 330 329 329 327 326 327 327 326 328 321 305 313 328 334 333 332 329 329 327 322 315 310 312 312 325 336 332 323 321 322 330 328 326 323 323 322 318
320 319 319 323 323 325 326 325 326 329 330 328 327 327 325 322 303 307 317 333 333 334 333 331 324 321 322 326 311 309 310 310 315 334 332 330 332 334 335 333 330 327 323
320 319 318 319 322 324 325 326 330 331 331 329 326 326 326 313 302 306 313 336 335 334 332 331 331 329 325 324 324 324 325 326 328 327 333 335 336 338 338 335 336 333 329
319 320 318 317 320 323 324 328 332 331 332 329 327 326 325 320 300 300 308 330 328 327 326 327 328 327 305 305 324 324 324 323 300 302 301 298 297 297 305 324 321 320 319
320 321 320 318 320 322 327 330 332 331 329 326 326 327 318 324 298 297 304 319 323 320 322 321 303 315 299 300 326 327 324 325 319 315 319 314 303 312 299 312 317 312 314
321 321 321 321 323 327 332 334 331 329 328 329 325 327 326 325 315 296 296 317 316 314 313 313 313 297 296 295 295 326 318 316 316 320 320 320 322 323 319 319 320 313 309
321 321 321 323 321 323 331 330 328 330 329 327 326 324 323 325 312 296 295 294 302 318 317 315 311 295 295 295 299 297 297 300 313 315 317 317 318 318 321 321 324 321 319
322 322 323 323 321 324 328 329 323 328 321 321 319 319 318 321 323 300 295 294 297 318 319 302 294 292 293 294 293 294 292 311 313 314 316 320 321 322 324 323 325 321 313
323 325 326 325 322 326 324 325 322 321 320 318 317 317 317 318 320 319 313 309 297 307 306 312 309 305 302 305 307 301 308 312 314 317 319 321 322 320 316 311 311 309 308
328 326 327 324 325 325 325 323 321 326 320 319 320 318 320 319 318 314 312 315 316 312 316 319 317 316 314 315 316 317 319 319 319 323 321 318 312 309 308 309 307 307 306
329 325 323 322 323 320 321 321 304 304 302 299 298 309 319 307 299 298 300 300 299 298 312 318 319 320 319 319 319 320 322 317 320 318 313 307 305 303 302 303 303 304 305
330 328 324 319 322 320 319 318 317 310 298 298 295 297 301 299 296 297 295 294 294 298 315 317 319 321 320 320 323 324 314 312 310 305 304 304 303 304 303 303 305 304 304
332 310 326 325 323 322 321 319 318 317 316 317 298 305 297 295 294 293 293 298 307 303 316 318 320 320 321 323 321 312 309 306 306 305 305 304 304 304 304 303 302 302 301
332 327 326 326 324 321 323 321 319 318 317 317 318 302 297 292 291 291 293 314 314 316 317 320 322 324 320 313 311 309 306 306 306 305 307 306 304 303 302 302 301 293 295
332 317 318 326 325 324 323 321 320 321 321 319 318 316 310 304 309 309 309 313 318 322 321 323 320 317 313 310 309 309 306 305 306 304 303 302 303 303 302 302 301 300 299
328 329 312 325 325 324 324 324 323 322 321 320 321 317 301 313 314 314 314 320 324 324 321 315 311 308 311 309 308 305 304 303 302 302 302 302 303 301 302 301 301 300 299
329 328 328 326 327 325 325 324 324 322 322 321 319 308 294 321 322 323 324 324 321 314 313 313 311 311 307 304 304 303 301 300 301 302 302 302 301 301 300 301 299 299 298
328 328 327 328 328 318 324 325 324 324 323 323 321 317 318 324 323 318 313 313 312 313 312 310 307 305 305 303 303 302 301 300 301 301 300 300 300 300 300 301 298 297 297
328 327 327 327 326 325 325 325 323 310 321 325 323 321 322 318 314 312 312 313 311 309 306 304 303 300 300 300 301 301 302 301 301 301 302 300 300 298 299 298 297 296 297
328 328 327 327 325 324 325 324 325 324 324 321 320 317 316 315 315 313 309 306 303 301 299 299 300 300 300 300 299 297 289 286 294 288 300 301 299 299 298 296 295 296 296
326 327 327 327 325 324 324 324 324 323 319 320 318 316 315 312 309 305 304 301 300 298 297 299 300 300 300 299 296 287 286 286 291 285 297 300 298 297 294 293 293 293 292

GFSGL_sfc_thetae_006.txt.gz
Theta_e
331 332 335 335 335 333 333 332 327 330 332 331 330 333 332 332 331 333 331 331 329 329 328 324 325 326 326 326 327 326 325 324 320 324 326 330 329 329 325 329 327 320 317
329 330 333 335 334 334 332 333 328 329 332 332 333 332 332 333 334 331 330 329 328 327 326 324 323 325 324 324 325 324 324 325 323 320 323 326 325 327 323 325 324 321 316
325 327 332 334 332 334 333 332 329 328 330 332 332 332 332 332 332 331 332 330 329 327 326 324 323 324 323 324 323 324 326 329 324 322 321 323 322 322 320 324 326 326 323
323 326 329 334 332 334 334 334 332 332 329 329 332 332 331 331 332 333 332 330 330 329 327 326 325 325 324 325 325 324 326 326 323 322 321 320 320 324 322 322 320 322 319
321 325 328 333 336 334 333 333 332 332 332 331 332 332 331 332 333 331 332 330 329 328 328 328 326 325 323 325 327 325 326 325 323 319 317 318 319 319 319 321 319 319 320
321 322 326 327 331 333 333 332 331 330 331 330 325 326 325 320 307 316 328 330 329 328 327 326 323 317 315 313 316 317 323 321 319 318 318 316 317 320 320 319 319 317 315
320 320 323 325 326 330 330 330 329 331 333 328 326 325 323 316 305 308 317 328 327 327 326 323 322 322 321 318 309 310 310 310 317 328 321 322 323 323 323 321 319 319 318
319 318 321 322 323 327 328 329 331 332 331 330 326 325 320 309 305 306 318 331 331 329 328 325 321 325 322 324 324 323 323 323 324 326 326 326 322 320 326 326 325 324 324
318 318 318 320 323 324 326 329 332 333 332 330 328 326 319 315 302 302 319 328 329 326 326 326 328 322 305 305 322 321 321 316 303 302 300 298 297 298 302 317 317 315 313
319 320 318 319 323 324 329 330 332 334 332 328 328 328 319 318 298 299 307 325 324 323 322 313 305 316 300 302 322 322 319 319 312 308 311 306 301 306 300 309 310 306 305
321 321 321 320 324 327 332 332 332 332 330 331 328 329 327 321 309 298 297 316 321 317 316 316 308 299 297 297 303 319 311 309 311 316 316 319 320 319 313 311 313 309 306
321 321 321 324 320 326 330 330 330 330 332 328 329 326 327 324 310 297 295 298 299 318 313 313 306 295 296 296 301 297 298 306 312 313 314 315 317 316 314 317 318 316 314
322 322 324 323 322 326 328 328 326 328 326 322 323 321 321 324 315 300 295 295 301 314 312 307 295 295 296 295 294 297 297 309 311 311 313 318 317 315 312 313 312 309 309
324 325 325 322 322 325 326 327 323 323 322 321 319 318 319 320 321 313 308 302 298 309 301 300 298 299 300 304 300 296 303 309 311 314 315 312 311 309 307 306 305 305 303
325 325 325 323 321 324 325 325 324 325 320 321 320 319 319 317 319 312 309 312 315 315 318 313 313 312 309 310 312 314 314 312 312 316 311 308 305 304 304 305 303 302 301
325 324 323 323 321 323 322 324 302 306 303 299 300 313 320 311 300 300 300 300 301 300 311 316 315 315 314 314 315 315 319 315 313 308 305 303 302 302 300 302 303 302 301
326 325 322 320 322 320 321 321 318 308 297 296 299 300 302 306 299 298 298 298 296 298 312 313 318 318 319 319 319 316 308 307 306 304 304 302 301 301 301 301 301 299 299
328 311 323 321 323 321 320 320 321 318 315 313 299 304 295 294 295 295 294 298 304 303 313 315 316 319 320 313 310 306 305 305 304 303 302 302 303 303 300 299 299 298 298
327 325 324 324 322 321 321 320 318 319 317 317 311 303 294 292 292 292 295 312 311 310 310 313 318 317 311 310 306 306 305 304 304 302 302 302 301 300 299 299 298 292 293
328 314 317 324 322 322 321 320 318 317 318 316 316 312 307 304 308 307 309 314 314 313 313 317 315 311 308 306 306 305 304 304 303 302 301 301 302 301 299 299 298 297 296
328 326 312 323 323 322 322 321 320 319 317 317 316 313 300 310 309 309 309 310 312 314 321 316 310 309 309 308 304 304 302 299 299 299 301 302 301 299 299 299 297 296 295
329 329 324 323 324 322 323 322 322 320 320 318 317 310 294 311 311 310 311 311 317 318 313 310 310 309 308 305 304 300 299 299 300 301 300 300 300 298 298 297 296 295 294
329 329 328 325 325 313 321 322 321 323 322 321 316 306 306 309 311 313 313 313 313 312 312 310 306 304 303 302 301 300 299 299 300 300 299 298 298 296 297 295 295 293 293
329 328 328 328 325 324 325 323 324 311 323 319 313 310 309 317 314 310 310 311 311 310 307 304 302 300 300 300 300 299 297 298 300 300 300 298 297 296 297 294 293 293 291
327 331 329 331 327 324 325 325 328 323 322 320 316 314 316 310 310 311 310 310 306 302 300 300 299 299 299 298 296 294 288 287 293 290 299 299 297 296 293 291 291 291 289
327 326 328 329 328 326 326 326 325 326 322 319 319 314 312 311 311 308 303 300 300 299 298 299 299 298 297 295 294 287 286 286 287 286 295 298 295 291 290 290 290 288 287

GFSGL_sfc_thetae_009.txt.gz
Theta_e
319 319 325 325 325 326 326 323 323 323 327 325 327 327 326 328 326 326 326 325 324 324 325 324 323 326 325 325 326 326 324 323 319 321 325 327 328 327 326 326 326 322 320
319 319 324 325 326 325 327 324 323 324 325 326 327 327 328 326 326 326 326 325 323 322 323 323 324 325 325 325 325 324 324 324 322 319 323 325 324 324 323 323 323 323 318
319 317 323 323 325 324 325 323 325 324 325 326 328 327 328 327 326 326 326 324 323 323 322 323 324 324 324 324 324 324 324 326 323 321 320 321 320 320 318 319 320 316 318
317 316 321 322 322 323 325 325 326 326 324 324 327 328 329 329 328 328 328 326 325 324 323 323 324 324 323 324 324 324 324 322 321 320 318 317 316 316 313 314 316 318 316
318 316 321 322 322 323 325 325 326 327 326 326 325 329 330 329 330 328 328 327 325 324 325 325 325 325 323 323 325 323 322 322 319 318 315 313 313 314 311 314 315 315 315
318 317 320 320 324 323 322 324 324 324 326 321 319 320 320 323 312 315 325 327 326 325 324 324 324 322 319 317 317 317 320 320 315 314 313 312 313 314 314 316 314 312 311
318 319 319 319 326 322 321 320 319 321 318 318 318 316 315 313 308 312 317 328 327 325 322 322 324 325 319 320 310 309 311 311 316 315 313 313 312 315 315 313 312 313 312
315 318 318 318 322 321 320 318 318 319 317 315 315 312 308 305 305 308 313 325 323 322 321 320 319 317 317 314 315 316 317 318 317 323 318 316 316 317 318 319 316 315 314
312 314 317 317 318 320 319 317 319 318 317 315 313 310 308 304 304 308 319 321 320 320 320 316 319 316 307 308 317 315 314 308 302 301 301 298 297 302 309 313 310 306 303
312 313 316 316 317 317 320 319 320 319 319 319 315 310 308 304 298 302 315 320 315 312 309 312 309 308 301 307 314 313 311 310 307 305 305 300 298 300 302 304 306 300 299
313 314 313 315 317 317 321 322 320 321 319 317 317 313 310 305 300 297 303 316 315 312 310 306 307 298 300 303 309 314 311 309 307 308 310 310 312 311 306 307 305 303 302
314 314 312 314 320 323 322 321 321 320 318 317 315 314 314 307 301 296 296 301 301 310 309 306 300 295 297 297 298 295 299 303 305 305 307 309 308 309 310 308 305 305 306
313 312 313 315 316 322 321 320 318 317 318 315 316 313 315 313 303 295 294 300 301 309 307 304 295 294 296 295 294 297 300 302 303 306 307 305 304 303 303 304 304 306 304
313 313 315 313 316 321 322 322 319 316 315 313 314 312 312 313 306 296 296 300 298 298 299 297 296 296 296 296 292 292 297 302 305 307 303 303 302 301 300 303 299 300 301
315 316 314 313 318 319 321 320 319 317 315 314 312 313 310 313 312 301 298 301 304 303 299 297 295 291 293 298 303 299 301 304 306 302 300 299 299 299 300 301 301 300 297
316 317 315 313 317 318 317 316 299 303 303 303 304 310 313 309 301 298 297 299 299 299 305 304 303 302 299 301 303 306 308 306 301 302 299 298 299 298 298 299 298 295 293
317 317 316 313 317 316 317 317 313 302 296 296 298 299 303 303 299 297 296 297 297 298 305 307 307 307 307 307 309 305 301 300 301 300 299 302 300 300 299 297 296 295 295
318 307 317 316 314 316 316 316 316 311 305 304 297 297 297 296 297 296 294 296 299 300 303 304 306 309 311 306 304 302 301 300 300 302 301 301 301 298 296 295 295 294 293
321 317 317 317 317 313 316 315 314 314 311 309 301 296 291 292 293 293 295 305 304 304 304 305 307 309 305 303 302 301 301 301 300 301 298 299 299 297 296 295 293 289 290
321 311 313 317 315 316 314 314 314 311 312 311 307 304 296 296 297 298 302 306 306 306 306 306 306 304 303 303 302 300 298 298 299 299 299 299 298 297 294 293 293 292 291
322 317 308 317 316 316 316 314 314 313 310 311 310 304 294 304 303 303 305 307 307 305 308 307 304 303 304 302 300 300 300 299 299 299 299 298 296 294 294 293 293 293 291
323 321 318 318 318 317 316 317 315 313 312 311 312 307 292 306 306 305 306 308 306 312 308 306 305 305 302 301 300 298 297 298 298 299 298 295 295 295 295 294 293 291 289
322 322 319 319 318 309 312 315 315 315 315 314 313 309 302 307 307 306 305 308 310 309 307 307 304 301 302 300 299 299 298 298 299 298 297 296 294 294 295 290 290 289 288
320 322 320 319 318 316 317 317 315 307 313 313 311 308 307 307 306 307 309 309 308 308 307 306 303 301 298 298 298 299 299 299 299 298 297 296 294 292 290 289 288 288 283
318 320 320 320 319 318 317 317 318 317 312 309 306 305 307 307 308 308 308 308 306 303 301 299 299 298 297 296 295 294 289 289 295 292 297 295 292 290 288 287 286 282 282
318 319 318 320 319 319 318 316 317 314 312 309 307 308 308 307 307 307 306 300 299 299 298 298 297 296 295 294 292 288 287 287 289 288 295 292 288 286 286 285 285 283 282

GFSGL_sfc_thetae_012.txt.gz
Theta_e
318 318 324 322 324 323 320 320 321 321 322 323 324 324 324 324 324 324 321 323 324 324 325 324 323 323 323 324 324 325 323 323 319 323 326 328 328 325 326 324 324 322 320
316 319 321 323 323 323 321 320 322 321 323 324 325 325 325 324 323 324 324 323 323 322 323 324 324 325 323 324 325 324 323 324 322 320 324 325 325 325 324 322 324 323 319
316 318 321 321 322 322 319 320 322 322 324 325 325 324 325 324 323 323 323 322 322 322 323 324 324 324 323 324 324 324 324 325 323 322 321 322 322 322 319 319 318 316 318
315 319 319 320 321 322 321 321 322 323 325 324 325 327 326 325 325 325 323 321 321 322 323 325 325 325 323 323 323 323 324 323 322 321 320 318 317 316 316 315 314 316 315
314 319 318 318 321 323 323 324 323 323 324 325 327 327 326 326 327 326 325 324 323 323 324 325 325 324 321 322 325 323 323 321 321 318 315 314 313 312 309 311 312 313 314
314 318 320 319 321 322 322 322 324 323 319 322 324 324 324 325 309 313 322 325 324 323 323 324 323 320 318 315 317 317 320 319 316 315 312 313 311 311 311 310 311 311 310
314 318 319 321 321 320 321 321 320 317 316 315 317 319 319 319 307 309 314 325 325 324 323 324 325 326 321 324 313 312 313 311 314 316 313 312 312 313 313 311 311 311 310
315 317 317 320 319 318 317 317 317 314 314 311 312 312 315 316 306 308 311 325 324 323 323 323 324 323 323 319 316 315 314 315 316 317 314 314 314 315 316 315 313 311 311
315 316 316 320 319 317 315 316 315 313 311 311 310 309 311 311 303 304 316 321 321 320 321 320 320 318 308 304 315 312 307 304 303 303 306 305 303 303 310 314 309 307 302
315 316 315 318 318 317 314 315 315 313 312 311 309 308 305 304 302 305 314 319 316 314 314 316 308 312 299 301 313 312 309 305 302 301 299 297 299 300 302 305 304 299 297
315 316 315 315 316 317 315 316 316 315 313 310 309 307 305 303 299 302 306 315 314 310 311 311 306 297 300 300 304 310 308 307 302 306 306 307 308 306 305 305 303 303 301
313 314 314 314 317 319 317 316 317 315 313 311 309 306 305 302 298 297 302 304 306 310 309 309 302 297 297 298 302 296 297 302 305 307 307 305 307 305 303 302 303 304 304
311 311 311 314 316 319 318 316 315 315 313 313 312 309 310 305 298 295 296 298 301 308 308 303 295 294 294 294 294 295 298 303 308 305 303 302 301 302 301 301 301 303 304
310 309 309 314 314 319 320 319 318 315 314 313 313 311 311 308 299 294 299 300 300 303 300 296 296 295 295 294 293 297 301 305 307 304 300 300 299 298 298 299 298 300 299
310 310 310 313 316 318 320 320 319 318 317 315 315 314 312 310 307 296 297 300 300 300 295 293 291 291 293 294 293 295 301 307 303 299 298 297 297 297 297 298 297 297 295
311 312 311 311 316 318 317 313 297 306 302 303 302 309 312 308 299 295 294 296 295 294 296 294 292 291 292 296 300 301 303 301 299 299 297 296 297 297 297 296 297 293 291
314 313 311 311 315 316 316 316 312 303 297 299 299 300 302 305 297 295 293 294 293 296 299 298 297 296 295 298 301 303 301 301 299 299 298 296 297 296 295 295 296 293 291
315 306 312 312 314 315 316 316 316 313 310 307 296 297 295 296 297 295 293 294 298 299 303 304 304 303 303 303 302 301 301 298 297 297 297 297 295 297 296 295 293 290 290
316 315 314 313 315 313 316 316 315 314 313 307 300 295 291 291 292 292 292 303 303 307 305 304 305 307 306 305 302 302 300 300 299 298 297 297 299 297 294 294 291 288 288
317 308 311 314 313 314 314 314 314 313 311 310 306 306 294 296 298 297 298 304 302 305 307 307 305 304 303 302 301 300 299 298 298 298 298 299 298 295 295 293 291 290 289
319 312 305 315 313 314 314 314 314 313 312 310 310 307 294 302 302 301 302 303 303 302 303 306 306 303 303 302 301 301 300 299 298 298 299 298 297 295 293 292 291 291 288
319 316 314 315 316 314 313 314 314 313 312 312 311 307 291 304 305 303 304 306 307 305 306 306 305 305 304 303 302 300 299 297 298 298 297 296 296 295 293 293 291 288 288
320 318 316 316 315 307 310 314 313 313 312 311 311 309 299 303 307 305 305 306 305 305 306 306 305 305 304 303 302 301 299 298 299 299 296 296 296 295 293 289 288 287 285
320 319 317 317 316 313 313 314 314 305 312 311 309 310 306 305 306 306 305 305 308 307 307 307 306 304 301 299 298 299 299 301 300 299 298 296 294 292 290 289 287 285 282
319 319 317 316 315 314 314 314 314 313 312 312 309 308 310 308 307 306 305 307 306 304 304 305 303 301 299 298 298 296 290 289 297 293 297 294 292 290 289 287 285 283 282
317 319 317 316 315 315 315 314 316 316 314 310 307 305 305 306 304 305 305 305 304 301 299 299 298 297 297 297 295 290 289 289 291 289 293 291 289 288 287 285 284 283 281

GFSGL_sfc_thetae_015.txt.gz
Theta_e
316 316 320 320 321 319 318 318 319 319 320 320 321 320 320 321 321 322 322 324 323 324 323 323 322 324 322 323 323 324 323 323 319 323 326 328 327 328 327 324 324 323 323
316 318 320 321 320 318 318 319 320 320 321 322 322 322 322 321 320 321 323 323 323 323 323 323 323 324 323 324 324 323 324 324 322 320 324 325 325 325 323 322 325 326 320
316 319 319 319 319 317 318 319 320 321 321 322 322 322 322 321 321 322 322 322 323 323 324 323 323 324 323 324 324 324 324 325 324 323 321 322 324 323 321 322 321 318 319
315 319 318 318 319 318 319 320 321 322 321 321 322 323 323 322 322 321 321 321 321 323 324 324 325 324 323 324 323 323 323 323 323 322 321 317 320 318 318 316 314 314 314
317 317 317 318 320 320 320 320 321 322 322 323 323 323 323 323 323 321 321 321 322 322 324 325 325 322 321 321 323 322 323 322 321 319 316 316 315 314 313 312 312 311 313
317 317 318 318 321 320 319 320 320 318 321 325 323 325 324 325 305 312 320 323 323 323 323 323 322 319 317 313 315 315 320 321 318 317 314 314 310 312 309 309 310 309 308
316 318 318 319 320 320 320 319 317 314 316 320 322 322 322 320 305 306 313 324 323 323 323 323 325 323 322 323 312 313 314 310 314 316 314 314 312 312 312 309 309 309 309
314 318 318 320 319 319 319 317 313 311 312 314 317 318 320 316 304 304 310 324 323 323 324 324 323 323 322 322 321 319 316 316 315 317 316 315 314 313 314 314 313 310 308
314 316 316 320 316 316 316 314 311 310 309 311 312 315 317 315 301 302 316 322 321 321 323 323 324 321 306 306 318 312 308 307 302 304 300 298 299 305 310 314 310 308 301
314 316 315 319 316 314 314 313 311 310 310 309 310 313 310 313 300 302 314 319 316 318 319 317 310 316 300 300 313 308 306 304 304 302 300 301 302 300 303 308 306 299 297
316 315 314 317 316 315 314 313 311 310 309 307 307 306 308 311 309 301 306 318 317 315 315 313 311 302 298 298 304 309 307 303 301 306 306 304 304 304 303 302 302 303 300
315 314 313 315 319 316 314 314 312 310 308 306 305 304 303 302 301 300 300 306 307 313 313 311 306 296 296 297 303 300 296 302 306 305 306 303 303 300 299 301 302 302 302
313 313 310 313 315 316 313 313 312 310 308 307 305 304 304 301 298 297 298 298 301 309 310 306 295 294 294 297 296 295 298 306 305 304 303 300 300 299 299 300 300 298 297
310 311 310 312 311 315 316 315 315 312 310 311 309 306 306 303 298 295 301 302 301 303 299 297 296 295 295 297 297 299 304 306 306 304 300 298 298 297 297 297 297 295 294
309 309 309 312 312 315 316 315 316 316 314 314 313 311 308 306 303 296 298 301 304 301 295 294 293 294 292 292 293 299 303 303 302 298 297 296 296 296 296 296 294 293 291
308 307 308 311 312 315 315 311 298 302 301 300 302 309 312 306 299 294 293 294 294 293 295 293 292 293 294 293 293 298 302 301 299 298 296 295 295 296 295 293 293 291 291
310 309 308 309 313 314 315 315 312 306 298 297 297 299 301 305 296 294 293 292 291 293 297 294 295 293 295 296 298 300 301 299 297 298 296 295 295 295 295 293 293 294 290
311 303 309 310 312 314 315 315 315 313 312 309 297 299 296 295 295 294 291 294 293 294 297 297 295 294 293 296 300 301 298 296 296 295 295 295 295 295 294 294 293 291 290
313 311 311 310 312 312 315 315 314 313 313 309 300 295 292 292 293 291 292 302 300 298 299 300 299 298 297 297 300 301 300 299 298 296 296 295 295 295 294 294 293 288 287
314 306 307 311 311 312 313 313 313 312 311 311 307 309 294 295 298 296 295 301 301 303 303 304 303 303 303 302 301 302 299 296 297 298 296 296 296 296 295 293 292 291 290
315 310 303 310 312 312 313 313 313 313 311 310 310 307 294 303 304 301 299 301 304 302 303 306 304 305 304 303 302 301 300 299 299 298 297 297 296 295 293 293 292 291 289
316 313 312 312 312 312 312 313 313 313 312 311 310 305 291 303 306 304 303 304 306 305 304 303 304 305 305 304 302 302 301 300 299 298 297 296 296 295 294 293 291 289 289
316 313 313 314 313 304 307 312 312 312 312 312 311 306 297 302 307 306 305 306 306 306 303 304 304 303 304 304 304 304 302 301 300 299 297 296 295 294 294 290 290 288 286
317 315 314 314 313 311 311 311 312 304 311 311 311 310 306 304 305 306 305 304 305 305 305 305 305 305 304 304 304 303 302 301 301 300 299 297 295 293 291 290 288 286 285
317 316 315 314 313 312 311 312 312 311 310 311 309 310 309 307 305 305 303 302 304 304 304 304 305 304 302 301 300 300 292 291 298 295 299 297 294 292 290 288 286 285 284
317 317 316 315 314 313 313 311 312 312 311 311 310 309 308 308 307 304 302 302 302 301 301 300 301 301 299 298 297 291 290 290 293 291 296 294 292 290 288 286 285 284 283

GFSGL_sfc_thetae_018.txt.gz
Theta_e
317 317 321 322 322 320 321 322 322 322 323 322 322 322 323 322 323 323 324 325 324 324 325 325 324 325 324 326 324 326 325 323 319 323 326 328 328 327 327 326 326 325 325
317 319 321 322 320 319 321 321 322 322 323 323 323 323 323 322 323 323 323 324 324 323 324 324 323 325 325 326 325 324 324 325 323 320 324 324 326 326 324 323 325 327 324
317 320 320 321 319 319 321 322 323 323 323 324 324 323 323 323 323 324 324 324 324 325 325 324 324 325 324 325 326 324 325 325 325 323 322 325 324 323 322 322 324 321 321
318 319 319 320 320 320 321 322 323 324 323 323 324 323 323 322 322 323 323 323 324 325 325 325 326 326 325 325 324 325 325 324 324 322 321 321 320 321 321 319 317 319 321
319 318 318 320 321 321 322 323 323 324 324 324 324 324 324 322 321 321 322 323 324 324 325 325 325 324 321 322 325 325 325 323 322 320 318 319 317 317 317 317 319 317 318
318 318 319 321 322 320 321 321 321 324 325 325 324 324 324 321 306 311 319 323 325 325 323 323 322 319 316 313 314 314 320 321 320 319 317 316 316 316 316 318 316 317 316
318 318 319 321 321 321 321 320 318 319 323 323 324 324 322 319 303 305 311 324 324 324 323 323 324 321 321 322 311 312 312 312 315 319 317 318 317 318 317 315 316 317 316
317 319 318 320 321 320 320 317 315 315 319 320 320 322 321 316 303 303 310 324 324 324 325 325 325 325 322 322 323 320 319 320 320 321 322 322 324 320 321 321 318 313 311
316 318 319 321 320 319 318 316 314 314 315 316 319 322 320 314 301 303 317 323 322 323 325 325 324 323 304 307 320 316 315 311 303 301 301 302 302 305 312 319 316 315 310
315 318 319 320 320 318 318 316 314 314 314 316 318 320 313 316 300 303 315 322 321 322 322 320 309 317 300 304 319 315 315 311 308 307 310 307 307 306 305 318 317 311 305
316 317 318 318 318 317 316 315 313 312 312 313 313 314 318 316 310 300 306 322 322 321 320 319 321 302 299 300 305 315 314 309 304 309 308 308 308 308 307 308 309 310 307
316 316 316 317 318 317 316 314 313 311 310 309 309 308 308 312 305 299 303 307 310 321 320 319 314 299 298 298 306 299 296 303 311 309 308 308 307 305 304 305 306 305 305
314 314 314 317 317 316 316 313 312 311 310 309 310 310 308 305 306 300 298 300 303 317 319 311 297 296 295 298 299 295 299 311 311 310 308 307 305 304 303 302 302 301 299
313 312 312 316 315 315 317 316 314 311 310 310 309 310 309 306 305 306 309 307 301 306 301 301 298 298 298 301 302 302 311 312 312 311 308 305 303 302 302 302 299 298 296
313 312 312 314 316 315 316 316 316 316 312 312 311 311 310 309 307 301 305 310 311 304 301 301 302 302 303 302 304 306 309 309 309 306 305 303 302 301 300 301 300 299 296
311 311 311 312 314 316 315 312 297 303 302 299 300 309 313 303 297 294 294 296 294 293 303 304 302 302 303 302 303 306 309 306 308 306 304 303 302 301 300 300 299 297 294
311 310 310 311 313 314 316 315 313 307 298 297 297 298 301 305 296 294 292 291 291 295 307 303 305 304 304 302 303 306 308 308 306 305 304 303 302 301 299 299 297 296 294
312 302 309 312 313 314 316 316 317 315 314 314 299 301 297 296 295 293 290 293 297 298 304 304 304 304 304 303 302 304 307 305 304 303 302 302 301 300 299 298 296 295 293
311 309 310 311 313 313 316 316 316 316 316 315 306 298 296 293 293 291 292 307 303 302 302 303 304 303 303 304 304 304 305 305 304 302 301 301 301 300 298 298 296 291 291
312 304 307 311 311 313 315 315 315 315 315 315 312 314 299 299 303 301 299 304 306 306 304 304 305 304 302 301 303 305 304 302 302 301 301 300 300 300 298 297 296 293 292
313 309 303 311 312 313 314 314 315 315 314 314 314 311 296 309 311 308 305 304 307 308 307 305 305 306 305 303 303 305 305 304 303 302 300 300 299 298 299 297 295 293 292
315 312 311 312 312 313 314 314 314 314 314 314 314 310 291 308 312 311 309 308 308 310 310 309 307 308 308 306 304 304 304 303 302 302 301 299 299 297 295 293 293 292 291
315 313 313 313 313 306 309 314 314 314 314 314 314 312 302 307 312 311 310 310 309 310 310 308 308 309 310 310 309 306 303 302 303 303 301 299 297 295 294 291 291 291 291
316 315 314 314 313 312 312 313 314 306 314 314 314 313 310 309 310 312 312 311 310 310 311 308 308 308 309 309 309 309 309 308 305 303 302 299 296 293 293 292 291 290 289
316 315 315 314 313 312 312 313 313 313 312 313 313 313 313 311 310 310 311 311 310 310 309 309 309 308 309 308 308 307 298 292 301 297 300 298 295 294 293 291 290 288 287
316 316 315 315 315 314 313 312 313 313 313 313 313 312 313 314 313 311 309 308 308 308 308 308 308 307 307 306 304 294 291 291 294 295 299 297 295 293 292 290 289 288 286

GFSGL_sfc_thetae_021.txt.gz
Theta_e
329 330 332 332 330 330 332 333 332 333 332 331 331 331 332 328 328 329 330 328 327 328 329 328 328 330 330 331 332 331 328 325 320 323 326 327 327 327 328 327 328 326 324
329 329 331 331 329 330 331 331 333 333 333 331 330 330 326 325 327 327 326 327 328 325 326 327 327 329 329 326 327 330 328 329 324 320 324 325 325 327 326 325 326 327 327
327 330 332 330 329 330 331 333 333 333 332 331 330 329 326 325 327 328 327 326 327 328 327 327 328 328 327 325 326 329 329 328 326 323 322 325 324 325 323 324 325 324 323
327 330 330 330 329 331 332 333 333 333 332 331 331 330 325 326 326 326 327 327 328 327 329 331 331 328 330 330 327 328 327 325 325 322 322 321 321 322 323 320 319 324 322
327 329 330 330 330 331 332 332 333 333 332 332 331 330 325 324 324 326 327 327 328 327 328 328 330 328 322 324 328 328 326 324 323 322 320 319 319 320 319 321 321 322 325
327 327 329 330 329 330 332 331 332 332 331 331 330 330 326 323 306 312 321 326 327 328 326 327 325 320 316 312 313 316 323 323 321 321 320 318 320 320 319 321 322 321 319
326 327 328 329 328 330 330 329 331 332 332 331 329 330 325 322 305 307 313 328 328 327 327 327 324 325 326 325 311 312 312 310 315 324 320 321 320 322 326 324 325 324 322
325 326 328 328 328 329 328 327 330 332 331 327 326 326 324 320 302 304 310 329 328 329 329 328 325 330 324 327 324 324 327 323 323 324 324 325 330 331 330 328 327 321 321
323 325 327 328 327 328 326 325 327 329 329 325 325 324 319 313 301 303 317 326 325 327 328 329 329 330 304 308 322 320 320 318 305 301 303 304 304 307 317 324 321 321 317
323 325 326 328 328 327 328 326 327 329 328 330 326 324 314 318 300 303 317 324 322 323 327 327 309 317 300 308 328 327 324 322 321 322 322 314 317 312 311 331 326 322 318
324 326 327 329 330 330 330 327 327 327 329 329 328 327 325 321 311 301 307 327 326 323 325 324 323 300 300 303 308 329 323 321 314 323 322 322 323 322 322 323 327 321 316
324 325 326 329 328 328 329 326 326 328 327 326 326 326 327 326 308 301 302 311 315 326 326 328 323 299 298 300 308 295 299 309 321 318 317 316 316 315 315 315 317 318 320
324 324 326 329 327 327 327 325 323 326 325 324 324 323 324 326 326 299 300 301 307 327 329 316 300 297 296 303 295 296 302 322 321 318 316 315 315 314 312 311 310 310 308
323 324 325 327 326 326 327 325 322 322 322 322 323 321 321 321 325 326 322 320 304 317 306 313 306 306 301 311 309 306 320 321 320 319 317 315 313 312 310 310 308 306 303
324 324 324 324 325 325 326 324 323 325 320 321 322 323 322 321 322 316 318 325 327 317 315 317 319 320 321 321 322 320 320 318 319 319 316 312 311 311 309 309 307 307 304
323 322 322 322 324 325 325 322 298 304 302 300 303 315 322 307 297 296 298 298 296 296 318 319 318 318 318 319 319 318 319 314 318 317 315 313 311 310 309 309 309 307 303
325 324 321 318 322 323 324 323 321 312 299 298 298 298 301 306 295 293 294 293 292 297 321 321 320 319 318 318 319 320 319 319 320 318 316 314 313 311 307 308 307 305 301
326 308 322 321 320 322 323 323 322 322 321 321 300 305 296 297 294 292 291 296 306 305 320 320 320 321 320 319 318 318 319 319 317 317 316 314 313 311 309 308 306 304 301
324 320 323 322 321 318 322 322 322 322 321 322 324 303 302 294 292 290 292 316 314 313 313 315 318 319 319 319 319 317 318 318 316 316 315 314 312 311 310 309 306 294 295
322 310 314 321 320 320 320 320 320 321 321 321 322 321 320 308 315 314 309 315 320 319 317 315 314 315 317 317 317 317 315 314 315 315 314 313 313 311 310 307 304 297 294
320 317 307 320 320 320 320 320 320 321 320 320 321 320 303 319 321 322 320 319 320 321 321 319 317 315 314 314 314 314 315 314 314 313 312 312 311 309 308 307 301 298 296
321 319 316 318 320 320 320 320 320 321 320 320 321 319 293 317 321 321 322 321 321 323 324 322 320 320 318 314 312 313 313 313 313 313 312 311 309 307 306 303 300 297 294
320 319 317 319 320 311 318 321 320 320 320 321 321 321 313 317 320 322 322 322 322 322 322 323 322 321 320 319 317 314 312 313 313 313 311 309 309 307 304 301 295 296 293
321 320 319 319 319 319 319 320 321 311 320 321 321 321 321 318 319 321 322 323 322 322 322 321 321 321 321 320 320 319 317 316 315 312 311 309 307 299 301 300 299 294 292
321 321 320 321 320 319 320 320 322 321 320 321 321 321 322 322 320 321 322 322 322 321 321 321 320 320 320 320 319 319 309 292 309 302 310 308 302 301 300 295 294 292 290
321 321 321 322 322 320 320 320 321 321 321 321 321 322 322 322 322 321 321 321 321 321 321 321 320 320 319 319 318 307 291 292 300 296 307 304 300 297 297 294 292 290 289

GFSGL_sfc_thetae_024.txt.gz
Theta_e
333 334 336 336 335 336 335 334 334 334 334 333 333 334 333 334 337 336 334 333 331 333 333 332 332 334 333 332 336 332 328 327 320 323 325 326 324 326 327 328 328 327 326
332 333 335 335 334 336 334 335 335 334 333 332 332 332 332 334 335 331 331 332 330 329 330 331 332 332 332 332 333 332 330 327 323 319 323 324 325 326 326 325 325 326 326
330 331 335 334 335 334 334 335 334 333 333 332 332 333 330 332 331 331 330 329 330 331 330 329 331 332 327 327 329 333 331 327 327 323 321 324 324 325 324 325 324 324 324
328 331 334 333 333 334 335 335 333 334 332 332 332 331 329 329 329 329 329 330 330 333 331 332 331 330 326 327 329 330 330 328 325 324 321 321 322 323 323 320 319 321 321
327 330 333 334 334 334 334 334 334 335 334 333 332 330 329 329 328 329 329 329 328 331 334 332 332 328 323 325 330 332 328 324 324 321 320 320 319 319 318 322 321 322 324
327 329 332 333 333 333 334 334 334 333 333 333 333 332 330 327 308 313 323 330 330 331 332 332 331 325 320 313 315 316 323 324 322 320 319 318 320 320 321 319 323 322 319
326 329 331 332 332 332 333 333 334 334 335 333 332 332 328 329 306 308 312 331 331 332 332 328 327 330 327 324 312 312 311 311 318 324 321 321 319 321 320 323 325 325 323
325 327 331 330 331 332 333 334 334 336 334 331 328 330 329 326 305 305 310 331 332 334 331 334 332 331 325 328 327 323 320 321 324 326 325 325 326 328 329 331 331 330 327
324 326 330 330 331 331 331 335 336 334 325 328 329 327 328 324 301 304 315 331 332 332 334 332 332 331 305 309 325 320 318 313 306 307 309 311 307 311 321 329 324 323 320
324 325 331 331 331 330 330 334 336 336 333 330 328 324 314 319 300 302 318 327 327 328 331 331 308 318 302 307 326 327 320 318 319 323 321 312 318 317 312 335 328 323 323
326 326 329 332 331 333 332 335 336 334 334 332 329 329 328 323 313 302 309 326 327 325 327 327 319 299 301 306 312 331 323 324 319 329 328 328 327 327 330 334 334 329 321
326 326 327 332 331 332 333 333 335 335 333 332 331 330 327 329 313 304 301 311 317 327 326 327 320 298 300 303 313 300 302 313 326 325 325 325 325 325 326 327 328 326 326
325 326 327 331 331 333 332 330 331 334 331 331 330 329 329 331 329 302 300 304 307 331 332 317 299 297 299 301 297 300 300 327 326 325 324 324 324 323 323 322 322 319 318
325 326 327 328 330 331 330 328 327 329 329 326 326 328 329 330 330 330 328 327 309 323 310 322 316 310 299 310 311 312 329 329 327 324 321 321 320 319 318 319 316 315 311
326 327 327 327 329 330 329 327 324 328 323 325 325 325 328 329 329 321 323 330 331 323 325 327 327 329 328 327 324 325 326 325 324 324 321 319 319 318 317 318 316 313 310
326 326 326 324 327 327 329 328 298 305 305 303 305 315 323 307 303 303 304 301 299 302 325 327 326 326 325 325 325 325 326 320 324 324 322 319 318 317 316 316 316 315 312
329 329 326 320 324 324 326 328 325 314 302 299 299 301 301 306 299 298 296 294 294 301 327 324 321 322 323 324 324 324 324 325 326 323 321 320 319 318 314 315 315 315 311
330 310 326 324 323 323 324 326 327 325 323 322 301 306 298 295 293 294 293 299 315 311 322 321 321 321 319 319 321 322 323 324 324 323 322 321 320 318 315 315 314 313 310
328 325 326 325 324 320 324 323 323 323 323 323 324 305 301 293 292 291 294 323 321 321 322 322 323 323 323 322 321 321 322 322 323 323 322 321 321 319 316 316 314 300 302
329 313 317 325 323 323 323 322 322 322 322 322 322 323 323 310 317 315 313 318 320 319 319 318 320 322 323 323 323 323 322 322 323 323 322 322 321 320 317 316 315 310 307
329 327 313 325 324 323 322 322 322 321 321 321 322 321 305 322 322 322 322 323 324 323 323 322 320 318 319 321 322 321 321 321 322 322 322 322 321 319 318 317 315 311 307
329 328 324 324 325 324 322 322 322 322 322 322 322 320 294 323 321 321 322 323 323 325 325 325 323 321 320 318 318 319 319 319 320 321 320 321 320 319 317 316 314 309 304
328 327 325 325 325 315 322 323 322 322 322 322 323 322 321 323 323 322 322 324 325 325 325 325 325 324 323 322 322 319 317 318 319 321 319 319 318 317 316 315 312 307 302
328 327 325 324 324 325 324 324 324 312 322 322 323 322 323 324 325 324 325 326 327 327 327 326 325 324 324 324 324 323 321 320 319 319 320 319 317 311 314 312 310 305 301
327 327 326 325 325 324 325 325 325 325 324 323 323 323 323 324 325 325 325 326 327 327 327 327 327 326 325 325 325 325 315 294 315 309 321 320 317 316 313 311 308 304 295
326 327 327 326 325 325 325 325 325 326 326 326 325 326 326 325 325 326 326 327 326 327 328 327 327 327 326 325 325 313 294 292 307 293 318 319 316 314 311 308 301 297 298

GFSGL_sfc_thetae_027.txt.gz
Theta_e
333 334 337 337 335 337 337 335 335 334 334 332 334 334 334 334 336 336 335 332 332 330 331 329 333 330 335 332 334 332 330 331 322 323 325 326 325 324 325 326 327 326 323
332 333 336 335 334 337 335 335 336 334 332 332 332 333 332 332 335 333 332 333 331 330 332 330 331 333 334 335 332 331 328 329 323 319 321 322 323 325 324 324 325 326 324
331 331 335 333 335 334 334 336 335 332 331 331 332 332 331 332 331 332 331 331 330 332 332 332 332 333 331 330 331 331 329 326 325 320 320 323 323 324 322 322 322 322 322
329 331 334 334 335 334 336 335 334 332 331 331 332 332 332 330 330 330 330 330 332 333 332 334 331 326 326 329 328 328 327 325 323 321 320 320 321 322 321 318 316 318 319
328 332 333 334 334 335 334 334 335 334 332 331 333 333 330 330 328 330 331 331 333 333 333 332 333 326 323 324 330 329 327 324 322 320 319 319 319 318 316 315 315 319 320
329 330 332 332 333 332 335 334 334 333 333 333 332 332 330 329 309 314 323 330 334 333 332 332 332 323 318 313 315 317 324 323 321 320 319 317 318 319 319 317 318 317 315
328 330 331 332 331 331 332 333 333 334 335 333 333 332 331 329 308 310 313 333 334 333 333 332 331 329 327 328 313 312 312 312 317 323 320 320 318 320 321 322 323 323 321
328 329 331 330 332 331 332 332 335 338 335 335 333 333 331 325 308 308 311 335 333 334 333 333 333 330 327 329 325 323 323 324 324 325 323 322 322 321 325 326 328 328 327
326 329 330 330 331 331 332 334 336 331 331 331 332 331 331 326 304 303 313 333 331 333 332 331 332 330 306 308 322 318 318 319 311 308 309 307 306 308 318 329 327 322 318
326 329 331 331 332 331 334 335 338 337 332 329 330 328 316 328 300 302 314 333 330 329 331 327 309 316 305 308 322 321 319 320 322 322 321 313 314 317 310 334 330 322 321
327 329 332 333 333 333 336 338 338 336 333 330 330 329 328 324 317 301 307 332 331 331 327 327 323 302 305 311 314 323 319 323 318 327 327 327 328 330 330 333 333 328 326
327 328 331 334 332 332 335 336 336 336 333 331 330 329 329 328 313 303 302 312 317 332 327 326 318 299 301 305 314 303 304 317 331 329 327 326 325 326 330 333 331 331 331
327 327 331 333 332 334 332 334 333 334 330 330 330 329 328 330 328 304 303 303 309 332 330 313 299 298 299 306 302 304 305 330 329 326 323 323 326 330 331 328 326 325 327
327 328 330 331 331 333 331 331 331 331 328 328 328 329 330 329 329 329 328 327 307 319 309 315 315 309 304 312 315 315 327 328 327 326 327 328 327 324 323 324 319 317 315
327 328 328 330 331 331 331 327 328 333 324 326 327 330 329 328 327 321 323 330 331 324 326 329 328 328 324 323 324 326 328 328 327 327 325 323 321 321 320 321 319 317 314
328 326 327 327 330 329 327 326 297 303 303 301 302 314 326 312 303 303 303 301 302 305 326 327 326 326 325 324 324 325 326 322 326 325 323 321 319 319 319 319 319 317 314
330 330 326 322 327 329 328 326 322 316 303 303 299 301 306 310 301 299 297 298 299 306 327 326 327 326 326 324 324 324 324 325 329 325 324 321 320 319 316 317 317 316 316
332 310 327 324 325 325 329 329 328 324 322 321 304 307 300 299 298 297 296 303 321 315 328 326 325 326 326 325 324 324 325 327 326 325 324 322 322 319 318 316 316 316 315
330 327 327 325 324 321 325 327 329 328 325 323 322 307 299 293 293 293 296 323 321 322 324 322 324 323 322 322 325 325 327 326 327 327 325 324 324 321 319 317 317 302 306
331 315 318 326 324 324 323 323 324 325 326 324 322 321 318 309 316 319 319 324 322 321 321 320 323 324 325 323 322 322 322 324 326 327 326 325 325 323 321 320 318 316 314
329 329 314 326 325 323 322 323 322 322 322 322 323 322 308 319 319 319 319 321 322 322 322 322 322 322 324 326 325 324 323 323 325 325 325 325 325 323 324 323 321 318 316
331 330 327 326 326 324 323 323 323 322 322 322 322 319 297 323 321 321 322 323 323 324 323 326 323 322 321 322 324 325 323 323 325 325 325 325 325 325 324 322 320 319 316
331 330 329 328 327 315 322 322 322 322 322 322 322 322 320 325 323 324 324 326 327 328 329 329 326 325 325 325 325 324 322 323 325 326 325 325 324 324 324 322 320 319 316
331 331 330 329 328 326 326 326 324 312 322 322 324 323 324 325 326 325 326 326 327 329 329 328 328 326 328 329 327 325 324 323 325 325 325 324 323 318 322 320 319 318 316
330 332 332 331 328 327 327 328 328 324 324 323 325 324 323 326 326 327 327 327 328 328 329 330 329 327 327 326 327 326 316 294 316 307 322 324 323 323 320 319 318 317 310
328 329 331 332 330 329 329 329 329 329 326 327 326 327 326 325 325 328 329 329 328 328 329 330 331 330 328 327 327 314 295 293 306 294 320 324 322 321 320 319 316 313 303

GFSGL_sfc_thetae_030.txt.gz
Theta_e
335 338 337 337 334 338 336 337 337 337 335 333 333 335 334 333 333 332 333 330 328 327 328 326 327 327 327 329 328 327 325 324 319 321 323 324 324 323 324 326 327 325 323
334 335 337 333 334 336 336 336 337 334 333 333 332 332 332 332 335 332 330 332 330 328 327 326 326 329 327 328 327 326 325 325 321 317 320 321 322 324 324 322 323 326 324
332 334 333 334 336 336 336 336 335 334 332 331 331 330 331 333 332 331 331 330 330 329 328 327 326 327 327 326 327 326 325 324 322 320 318 321 322 323 321 322 321 321 321
330 333 334 335 334 335 337 336 337 332 330 330 332 331 332 331 330 331 330 330 331 330 329 330 326 324 325 326 326 325 324 322 321 319 319 319 319 320 319 317 316 319 317
331 332 334 333 335 335 335 335 336 330 330 330 332 331 331 329 328 331 331 330 331 330 329 330 326 323 320 324 326 325 323 321 320 319 318 317 316 316 313 314 314 314 314
332 332 333 332 332 334 334 335 336 334 333 332 332 330 329 326 308 311 321 331 331 330 329 326 324 320 316 314 317 318 321 321 319 319 318 316 315 313 313 314 314 312 308
330 331 331 332 331 332 333 333 333 333 333 331 331 330 327 325 307 307 311 332 330 330 329 329 328 325 323 321 311 312 312 311 316 321 318 317 314 314 316 316 315 314 311
329 330 330 330 330 332 330 333 334 334 333 332 331 329 327 322 309 301 305 332 331 331 330 330 328 328 323 324 323 322 322 322 322 323 322 320 319 319 320 317 320 320 317
326 330 330 331 331 331 332 334 335 333 331 329 330 329 326 323 301 302 317 331 330 329 330 330 328 322 306 308 322 320 320 319 310 308 308 306 306 309 318 322 321 317 314
326 330 331 331 331 333 333 334 336 335 331 331 328 328 318 324 303 302 313 329 327 325 327 323 310 316 304 307 322 321 318 319 320 319 316 310 310 312 309 323 323 316 314
328 331 332 333 333 335 335 335 335 333 330 327 326 326 328 324 319 303 303 329 328 326 324 322 316 302 305 306 312 322 319 322 316 322 322 320 319 321 324 326 327 321 317
328 330 333 335 331 335 336 336 335 333 330 328 326 325 327 327 313 305 304 311 317 326 323 324 311 300 304 307 314 302 304 314 325 324 323 321 321 324 326 326 325 324 326
327 331 333 333 332 334 335 333 333 334 330 328 328 326 326 326 323 304 304 305 310 325 327 308 298 300 300 303 302 302 305 325 324 323 322 323 325 325 326 322 321 321 321
328 332 333 332 332 332 333 334 332 331 330 329 328 326 326 325 325 325 324 320 311 314 308 312 309 309 310 312 311 311 328 327 325 324 322 321 323 324 322 321 316 315 311
329 330 332 332 332 332 332 329 332 320 323 330 330 329 326 325 326 319 321 327 325 319 320 321 322 320 320 320 322 323 324 326 325 323 321 322 321 321 320 320 316 313 309
329 328 329 330 331 330 327 323 297 301 300 298 302 323 329 313 305 305 306 306 304 304 323 323 324 321 320 320 320 321 324 320 323 325 324 322 319 319 318 318 316 313 310
328 329 328 326 328 329 328 325 322 310 298 299 299 305 311 310 302 300 300 299 301 304 326 325 324 324 322 322 322 322 323 324 327 323 321 319 318 317 311 316 315 314 312
329 312 328 327 329 330 327 327 324 322 320 319 304 309 302 299 299 298 297 304 317 313 326 325 325 326 325 322 322 322 323 323 323 324 322 320 319 317 315 314 314 312 311
328 327 327 326 328 324 330 329 327 324 322 321 315 307 298 295 295 296 299 326 324 324 324 326 328 327 326 325 324 324 323 324 322 322 322 321 319 317 316 315 314 301 304
329 315 318 327 324 325 325 327 328 327 324 321 319 318 313 309 317 319 319 326 326 326 326 326 326 325 323 322 323 324 323 320 322 323 322 322 321 319 317 316 315 313 310
329 327 312 325 324 324 323 324 325 327 327 324 322 318 303 319 320 321 321 322 322 321 320 320 319 319 324 323 320 319 319 321 323 323 323 322 322 319 319 317 316 315 313
328 328 326 324 326 324 323 323 323 323 324 326 325 316 296 317 319 320 321 321 322 323 324 324 322 321 321 322 323 323 320 318 319 321 322 322 322 321 320 319 317 315 312
330 329 328 326 325 316 319 323 323 323 322 322 323 318 314 317 318 318 319 320 321 322 323 322 321 322 321 321 322 323 322 322 322 322 321 320 321 320 320 318 317 315 313
330 331 330 327 325 326 325 323 322 311 322 322 322 320 319 320 322 320 320 321 322 322 322 321 321 321 324 325 324 321 321 322 324 323 323 321 320 312 319 318 317 315 312
331 331 331 330 327 325 326 324 323 322 322 322 322 323 321 323 324 324 325 323 323 324 325 324 325 325 324 324 325 324 313 294 314 309 321 321 320 320 319 317 316 313 301
329 332 330 333 330 328 325 327 325 324 323 322 323 324 324 324 324 325 325 324 323 323 324 325 326 325 325 324 324 312 296 292 300 295 316 317 318 319 318 315 314 304 299

GFSGL_sfc_thetae_033.txt.gz
Theta_e
326 326 328 328 329 327 327 327 325 325 326 327 329 328 327 327 327 324 323 326 325 323 324 322 322 322 323 323 324 320 319 318 318 320 323 324 322 323 324 325 326 325 323
327 327 327 330 328 326 326 326 324 326 324 326 328 328 328 327 325 324 324 325 325 324 322 323 322 327 324 323 323 322 321 322 319 318 321 320 320 322 324 323 323 325 323
328 328 329 327 326 325 326 326 325 325 325 327 327 328 328 327 325 325 326 325 326 326 326 325 324 325 323 323 324 323 323 323 321 320 318 321 322 323 322 322 321 321 321
330 326 327 325 326 326 327 326 327 328 325 327 327 328 326 325 325 325 325 325 326 327 327 326 325 324 323 324 323 323 323 321 320 319 319 319 319 320 320 317 316 318 315
327 327 326 326 327 327 327 326 327 327 327 329 326 324 324 325 324 323 327 327 326 326 325 325 324 323 323 323 324 323 322 320 319 317 316 316 316 316 314 316 312 312 311
327 329 327 327 328 326 326 326 326 328 329 327 324 323 320 321 307 310 318 325 327 325 322 323 323 320 318 315 316 317 320 319 318 317 316 314 314 313 315 314 312 310 306
327 330 328 328 327 326 327 326 324 324 324 324 322 322 318 315 302 302 308 328 328 325 322 322 324 322 321 319 311 311 311 311 316 319 316 314 313 314 315 313 312 311 308
327 329 327 328 326 327 327 325 323 323 323 323 322 319 317 312 301 301 306 326 324 327 324 323 324 324 321 323 322 321 321 321 321 321 319 317 316 317 316 315 314 311 311
325 327 328 328 325 325 325 325 325 325 322 323 322 318 316 311 302 301 316 324 324 324 325 323 324 322 306 308 322 320 319 317 309 307 307 305 304 306 314 320 312 309 308
325 328 327 327 326 325 325 325 324 322 322 325 322 319 313 314 303 301 311 323 321 322 321 319 308 315 303 307 322 320 318 318 319 317 314 309 310 308 309 319 315 311 310
325 328 327 326 327 327 325 326 325 322 325 321 321 320 319 315 312 301 307 324 321 321 320 317 312 303 302 304 311 321 318 319 314 319 317 316 316 317 318 319 317 315 312
327 327 327 327 331 330 326 326 325 322 321 320 322 319 320 318 308 303 306 314 314 321 320 316 309 301 301 303 313 300 302 313 321 320 317 315 312 315 318 321 322 318 317
324 325 327 328 329 329 326 325 325 323 322 320 319 318 317 317 314 303 305 307 311 319 320 311 299 300 300 302 301 303 309 323 321 319 317 315 315 319 320 316 316 317 315
326 325 325 326 326 328 329 327 325 324 322 323 322 320 319 317 316 317 317 311 306 308 304 305 307 307 307 310 310 313 324 323 320 319 319 318 318 318 314 314 311 310 307
326 325 325 325 324 324 321 320 325 323 324 324 323 323 320 319 320 315 316 320 318 313 312 313 313 313 315 317 319 317 321 320 319 319 316 317 318 319 316 313 310 308 305
324 325 324 325 325 323 312 309 298 299 298 307 310 320 322 312 303 304 305 303 301 302 317 316 314 315 317 318 318 318 318 318 321 318 316 318 318 318 315 313 310 307 304
323 324 323 323 326 321 317 312 309 308 298 300 305 305 306 307 302 302 301 300 300 303 317 317 316 316 316 318 319 319 319 319 322 320 319 318 317 317 311 314 311 308 306
322 310 323 323 324 323 320 317 313 311 311 313 302 305 301 301 300 299 297 302 309 309 318 318 317 317 316 317 317 316 317 318 319 319 318 317 316 316 311 312 312 309 306
322 322 322 320 324 321 321 319 317 315 313 312 309 303 296 296 298 297 298 321 318 317 318 319 320 321 319 318 319 318 317 317 318 317 316 316 314 312 310 311 311 300 301
322 312 314 321 320 322 321 320 318 317 316 312 313 313 304 303 308 308 310 321 321 321 321 320 319 320 321 320 319 319 317 313 317 316 316 317 316 314 313 311 311 310 306
322 315 309 319 318 321 318 322 321 319 317 314 314 315 301 315 316 316 316 319 322 322 322 322 321 321 316 319 320 320 319 319 318 319 317 317 317 315 314 312 312 310 307
323 321 319 319 318 317 318 317 320 320 319 317 315 312 295 319 319 319 319 320 322 320 317 320 320 317 314 315 317 315 315 317 318 319 319 319 318 317 315 313 311 309 307
324 323 320 320 319 310 311 318 316 318 319 321 319 315 308 317 317 318 319 320 320 320 320 317 315 316 316 314 316 318 316 315 314 316 318 319 319 318 316 313 313 311 307
321 323 322 321 320 319 316 316 317 308 316 316 320 316 312 313 315 316 318 318 318 318 319 318 319 318 315 314 315 317 319 318 317 316 316 316 317 309 317 315 312 312 309
322 322 322 321 321 318 319 316 316 315 316 316 315 315 315 315 314 315 315 316 316 317 318 319 319 318 315 314 316 317 309 296 314 308 318 316 315 314 316 315 311 308 296
325 324 322 323 322 321 319 319 317 316 316 317 316 316 315 316 316 317 317 316 316 317 317 318 317 317 317 317 316 309 297 294 298 296 316 317 316 315 315 313 311 303 296

GFSGL_sfc_thetae_036.txt.gz
Theta_e
323 324 323 324 326 325 323 324 324 323 323 324 326 326 325 325 324 322 321 323 319 320 322 322 321 321 322 319 318 317 318 319 317 320 323 325 323 323 323 323 322 319 319
323 325 324 325 325 324 324 324 322 323 323 325 327 326 326 325 322 323 323 324 324 322 322 320 320 325 321 321 319 317 316 318 320 318 320 321 321 322 320 320 322 324 323
325 325 325 326 323 323 324 323 321 322 322 323 325 326 326 324 323 324 325 324 325 324 323 323 323 323 322 323 322 321 321 321 321 319 317 320 320 321 321 321 320 320 321
326 324 325 323 323 323 324 323 322 324 323 326 325 325 324 323 323 323 324 324 325 325 325 325 324 323 322 323 323 322 322 321 321 318 318 318 320 320 319 316 315 317 313
326 326 322 323 324 324 324 324 324 327 327 327 323 322 322 322 320 321 324 323 325 325 324 324 324 323 321 322 323 322 321 320 319 318 317 317 316 315 314 315 312 311 309
326 327 324 324 325 324 323 323 327 326 327 325 321 321 318 319 305 307 316 324 324 322 321 322 322 320 317 315 316 316 320 320 318 317 316 315 316 315 315 313 311 309 305
326 327 325 325 325 324 324 323 323 323 322 319 319 318 315 313 301 301 308 324 321 319 320 323 323 321 320 319 310 311 310 311 316 319 316 315 314 315 315 313 313 310 306
326 327 325 325 324 324 323 321 320 320 320 319 317 316 314 313 300 301 309 324 322 323 321 324 322 321 320 320 320 319 319 319 319 320 318 318 318 317 317 315 311 307 306
327 327 325 325 324 324 323 320 320 320 318 318 316 315 313 312 300 303 315 322 322 323 324 324 323 321 305 307 320 318 317 314 307 305 304 304 303 304 312 312 309 306 303
324 326 326 325 324 323 322 321 320 320 323 322 316 314 311 313 300 302 314 323 322 320 320 318 309 315 302 305 320 319 316 315 315 314 313 308 309 309 308 313 311 307 305
326 326 324 324 323 323 322 321 319 320 321 320 318 314 314 312 310 302 307 322 321 319 318 317 314 301 301 302 309 319 316 317 311 315 316 316 316 312 315 312 310 311 307
325 325 324 324 327 325 323 321 320 320 321 318 316 314 315 314 305 301 305 309 312 319 317 317 309 299 300 301 308 300 303 311 317 315 316 315 313 313 315 315 313 313 312
324 324 324 326 326 325 323 321 319 317 317 317 317 317 315 315 315 301 303 302 307 318 318 310 298 298 298 300 300 303 307 319 316 313 313 310 311 314 319 316 314 314 311
323 324 325 325 323 323 324 323 321 319 317 319 318 319 318 314 315 317 314 310 304 308 304 307 306 307 307 310 311 314 322 321 317 315 313 312 314 314 313 312 310 309 308
324 324 325 325 324 323 320 320 323 322 320 320 320 321 317 316 316 312 313 316 316 309 308 315 315 316 315 317 320 321 320 319 317 316 316 315 315 315 313 310 309 307 306
323 324 324 325 324 322 315 310 298 301 298 301 308 316 319 309 299 299 301 300 297 299 312 312 314 316 317 317 319 320 318 316 318 318 315 316 316 316 314 311 308 307 305
323 323 322 322 322 315 313 314 311 306 297 296 301 302 306 305 299 298 298 295 295 302 313 312 314 315 316 317 318 319 319 319 318 318 316 316 316 317 309 315 310 307 305
323 311 323 323 322 317 313 311 311 311 315 314 300 301 299 298 299 297 295 299 310 309 315 315 314 316 317 317 318 317 316 317 317 317 315 317 317 317 314 316 315 312 308
323 322 324 324 323 319 316 312 311 311 316 315 308 302 295 293 294 294 296 317 315 315 314 316 316 315 316 317 317 316 317 316 317 318 317 317 317 316 315 315 314 300 301
323 313 316 322 321 321 319 315 312 311 311 314 316 316 303 304 308 307 306 317 317 317 317 317 317 317 316 317 317 317 318 314 315 317 318 318 317 316 315 313 312 309 306
322 317 308 321 321 321 321 318 316 314 313 312 315 311 299 316 316 316 313 316 319 319 319 319 319 318 320 317 317 317 316 316 316 316 317 317 317 315 315 313 311 310 310
322 320 319 320 320 321 321 320 319 317 315 313 313 310 293 317 318 318 317 318 321 322 322 322 321 320 320 318 320 319 317 316 316 316 316 316 317 316 315 313 311 310 308
320 320 319 320 318 309 312 318 320 319 317 316 314 313 306 314 318 318 319 320 320 321 320 320 322 322 320 319 318 319 319 319 319 318 317 317 316 316 315 313 312 310 307
319 320 319 318 318 314 316 316 317 309 319 318 316 315 311 314 318 319 319 320 320 321 322 322 320 319 321 318 315 316 317 317 317 318 319 319 318 312 316 315 314 313 311
323 320 319 317 317 314 314 313 314 315 316 319 319 316 313 314 316 319 318 319 319 319 320 320 321 321 317 316 316 314 308 296 310 306 314 316 317 317 316 316 315 312 301
321 325 320 319 318 318 317 316 315 315 315 316 317 319 316 314 314 316 317 316 317 317 318 318 318 317 317 316 316 309 296 294 299 294 312 314 313 313 315 315 314 312 305

GFSGL_sfc_thetae_039.txt.gz
Theta_e
323 322 322 322 323 322 321 322 322 321 322 322 323 323 323 322 322 320 321 321 320 319 322 321 318 319 318 320 316 317 316 316 316 320 324 324 323 323 323 323 324 323 322
322 322 322 323 322 321 321 322 322 322 321 323 325 324 324 324 321 320 321 323 321 321 320 321 319 322 319 319 317 316 316 318 318 317 320 320 319 319 319 318 320 321 319
323 322 321 321 321 321 321 321 321 320 321 322 324 324 324 323 322 322 323 323 323 323 321 321 322 322 321 321 317 316 318 321 321 319 317 319 318 318 317 317 317 318 319
323 322 321 321 321 321 321 320 320 321 320 322 322 324 323 321 322 322 323 322 324 324 324 324 323 323 323 321 321 320 320 320 319 319 317 316 318 319 319 316 314 314 311
323 322 321 321 322 322 322 320 321 323 323 325 323 321 320 319 318 320 322 323 324 323 324 324 324 323 321 321 323 321 321 319 318 317 316 316 316 315 314 314 310 310 308
323 322 321 322 323 322 322 321 322 324 325 324 320 319 316 317 301 305 316 324 324 322 321 321 321 319 316 313 315 316 320 319 318 317 317 314 315 314 313 312 310 309 305
323 324 323 323 323 322 322 321 322 324 322 318 317 317 314 313 299 301 309 322 319 319 323 323 323 321 320 319 311 311 311 311 316 320 316 316 314 314 314 312 311 309 306
324 324 323 323 323 322 321 319 318 317 317 316 315 314 314 311 300 302 309 320 319 321 323 323 321 321 319 319 320 319 318 319 319 321 320 318 317 317 316 315 310 306 306
324 324 324 323 322 322 319 317 317 317 316 314 314 313 314 313 299 302 315 320 323 322 323 323 322 320 304 306 318 314 313 311 307 306 306 304 302 304 309 312 308 307 303
324 324 324 323 323 321 319 317 317 318 318 316 313 313 310 315 300 302 315 323 320 319 319 318 309 314 301 305 318 315 312 313 314 313 311 307 309 306 306 314 311 307 304
324 324 323 323 322 321 319 318 317 318 319 316 313 312 313 313 310 301 308 322 320 319 318 317 313 300 300 301 309 317 313 315 311 315 315 314 314 314 313 311 310 309 304
324 323 322 321 324 322 319 317 318 317 316 315 314 313 313 316 304 301 302 307 309 319 318 317 307 297 299 300 307 300 301 310 317 315 314 313 313 314 311 309 309 309 309
322 321 321 322 323 322 319 317 316 318 319 318 315 316 315 316 316 300 299 299 305 316 318 305 297 297 299 301 299 300 305 317 316 315 314 312 313 312 314 310 309 309 308
321 321 322 322 320 321 321 319 317 315 316 319 316 316 313 315 317 316 312 310 304 308 305 307 306 307 306 308 307 311 317 316 315 314 313 310 311 312 312 312 310 309 308
321 322 323 321 321 319 320 317 319 318 317 318 318 319 317 316 317 311 311 315 313 309 311 315 317 316 315 316 318 319 318 316 314 312 313 313 312 313 312 310 308 306 306
321 322 323 322 320 319 316 310 297 302 305 305 306 312 317 307 298 299 298 296 296 300 314 315 315 316 316 317 318 318 316 312 315 315 314 314 314 313 312 309 307 307 306
322 322 322 320 321 317 315 315 313 306 297 297 297 300 304 302 296 296 295 294 295 302 312 315 316 317 317 318 318 318 318 315 315 315 315 314 314 313 310 311 309 307 305
322 309 323 323 322 317 316 316 316 312 312 309 298 300 296 295 294 294 293 298 308 307 312 314 316 316 317 317 318 319 319 316 317 316 316 316 315 315 311 312 311 309 306
322 321 323 322 322 316 315 313 313 312 315 312 306 301 294 292 292 292 295 314 313 313 312 313 315 317 318 318 318 319 318 317 317 316 315 314 314 314 313 313 313 299 302
321 311 315 322 318 316 312 311 310 310 314 314 314 312 304 305 309 309 309 313 314 313 314 315 314 315 316 318 318 318 317 312 314 315 316 316 316 316 315 314 313 312 308
321 316 308 321 320 319 316 313 312 310 311 313 316 310 297 315 315 314 314 313 316 316 315 316 316 314 314 316 316 316 316 316 316 316 316 315 315 315 315 315 314 313 313
321 319 316 321 321 320 319 317 314 312 312 312 312 308 290 313 316 316 316 316 318 319 319 318 318 318 318 316 316 315 315 314 313 314 315 316 316 316 316 315 314 312 310
321 320 318 319 320 310 312 318 317 315 314 313 312 310 304 312 316 317 317 318 318 319 320 319 319 319 319 320 320 318 316 316 317 316 314 315 315 315 315 314 314 312 310
320 320 318 318 316 315 317 318 318 307 315 315 313 312 310 312 317 318 318 319 319 319 320 320 321 321 320 320 320 320 321 321 320 319 316 315 315 311 314 315 314 313 312
321 320 318 316 315 313 313 315 316 317 317 317 316 314 312 313 314 318 318 319 319 319 319 321 321 321 320 320 320 318 312 298 312 309 319 318 317 315 315 314 314 313 310
317 321 321 319 317 315 313 314 313 314 315 317 318 316 315 313 314 315 318 319 319 319 320 320 321 321 321 321 319 312 298 295 300 295 313 314 314 315 315 315 313 313 311

GFSGL_sfc_thetae_042.txt.gz
Theta_e
323 323 324 323 324 323 323 323 323 323 323 324 324 325 325 325 325 324 324 324 324 322 323 322 322 322 322 321 321 322 321 322 317 322 324 325 324 323 324 325 325 324 321
324 323 323 323 323 322 323 323 323 323 324 325 326 326 326 326 326 324 324 325 323 321 321 322 321 323 322 320 320 321 322 324 322 318 320 320 319 320 321 321 322 324 321
323 322 322 322 322 322 323 323 323 323 324 326 327 326 326 326 325 324 324 324 324 323 321 321 322 324 321 320 320 321 323 324 324 320 317 318 317 318 317 317 318 320 320
323 322 322 322 322 322 323 322 323 323 323 324 326 326 325 324 324 325 325 325 324 324 323 324 324 324 323 321 321 322 323 322 321 318 316 316 316 317 317 314 313 315 312
323 322 322 322 322 323 322 322 323 323 323 325 324 323 323 322 319 322 325 324 323 323 324 324 324 324 321 321 322 323 322 321 318 316 316 315 315 314 313 313 309 310 309
322 322 322 322 323 323 322 322 323 324 324 325 322 321 320 315 301 304 316 327 326 323 321 322 322 319 316 313 315 316 320 320 318 317 316 314 314 313 313 312 310 309 305
323 323 323 324 323 323 323 323 323 323 322 321 320 320 318 316 300 301 310 324 324 323 323 322 323 321 320 320 311 312 311 311 316 320 316 316 314 314 314 313 313 311 307
323 324 324 324 323 323 323 322 321 321 320 319 318 318 318 313 301 303 307 323 323 324 324 323 321 321 320 320 321 320 321 321 321 323 322 319 318 317 317 314 308 306 306
323 323 324 324 323 323 321 320 319 319 319 318 318 317 318 317 301 303 314 325 323 323 324 323 322 319 304 306 318 315 316 314 308 308 308 304 302 303 309 313 309 308 306
324 324 324 324 324 322 320 319 320 320 319 318 316 317 311 319 301 303 316 323 321 320 320 318 308 312 301 304 317 315 313 313 313 312 310 306 308 306 307 315 313 308 309
325 324 324 324 324 322 320 321 320 320 318 317 315 316 317 315 312 301 308 324 322 320 319 316 310 300 299 301 307 316 313 315 311 315 314 313 314 315 314 314 318 314 310
325 323 323 323 325 322 321 320 320 320 318 315 314 314 316 317 304 300 303 307 310 320 318 314 305 298 299 300 307 299 301 310 316 315 314 313 313 314 313 315 315 315 316
323 322 322 323 323 322 320 319 318 319 318 316 316 315 316 318 316 300 298 300 305 317 318 306 297 297 298 300 298 299 305 317 316 314 314 314 315 317 314 313 314 314 315
322 321 322 322 321 322 321 320 319 320 320 318 316 315 315 318 319 316 313 311 303 306 303 306 306 306 305 305 307 312 320 320 318 316 315 315 315 317 314 314 313 313 313
322 322 323 321 322 321 319 318 320 320 319 319 319 319 317 316 319 311 312 317 316 309 311 316 316 314 312 314 317 318 317 318 317 316 315 315 317 318 317 316 315 313 314
321 322 322 322 322 321 317 315 295 301 301 303 304 314 319 306 299 299 298 296 298 301 316 316 315 315 315 316 316 317 317 313 316 317 317 316 316 318 317 316 315 317 316
322 322 322 320 322 320 319 318 317 307 295 297 297 298 303 302 294 295 294 294 293 305 317 316 316 317 317 319 319 318 317 318 318 318 318 318 317 318 313 317 317 316 315
323 308 324 323 323 321 320 320 320 318 318 316 299 300 295 293 293 293 293 299 312 311 318 317 317 318 319 319 320 320 319 319 319 318 319 319 318 318 316 317 318 318 317
322 322 324 324 323 319 320 320 320 319 318 315 311 302 293 291 291 292 295 318 316 316 316 317 319 319 319 320 320 321 321 319 319 319 319 318 319 319 319 319 319 301 306
322 311 316 323 320 319 318 318 317 317 317 316 316 314 304 306 310 307 309 316 317 318 318 318 318 319 320 320 320 320 319 316 318 321 320 320 320 320 319 319 319 318 315
322 318 307 322 321 320 319 318 318 316 316 317 319 312 298 317 316 316 314 315 318 319 318 319 318 319 320 319 319 318 318 318 319 321 321 321 321 320 320 321 321 320 320
322 321 321 322 322 321 320 319 317 316 315 317 319 309 290 315 318 319 318 318 320 321 321 321 320 320 320 321 321 321 321 320 321 321 321 322 321 321 321 321 320 320 319
322 320 321 322 322 310 316 319 317 316 316 316 317 313 305 314 319 319 319 320 321 322 323 322 321 321 322 321 322 322 321 321 323 323 321 321 321 321 321 321 320 320 319
323 322 320 321 321 320 320 320 319 308 317 317 316 316 314 316 319 321 321 321 321 322 323 324 323 323 323 324 324 322 323 324 324 323 323 322 321 316 320 321 320 319 319
322 321 321 319 318 319 319 320 321 320 318 319 318 317 316 316 317 321 323 323 322 322 322 324 324 325 324 324 324 324 316 298 316 311 322 322 321 320 319 318 318 318 317
310 311 313 316 318 317 316 316 316 317 318 319 319 319 318 316 317 318 320 322 322 322 323 324 324 325 325 325 325 314 300 296 304 297 321 324 322 322 321 320 320 318 318

GFSGL_sfc_thetae_045.txt.gz
Theta_e
335 335 335 335 336 337 337 336 337 337 337 335 334 333 334 334 336 335 334 333 332 329 326 330 330 331 329 330 326 329 328 330 319 324 326 328 326 326 327 329 328 325 323
335 335 335 336 336 336 336 336 335 334 334 333 333 333 333 334 335 334 333 332 330 324 323 323 324 329 331 327 326 330 327 332 326 318 321 321 322 323 323 322 322 323 322
334 334 334 334 335 335 335 334 333 333 333 333 334 333 332 333 333 333 332 331 329 327 324 324 324 327 328 324 328 327 329 332 328 320 319 320 320 320 320 320 319 319 320
332 332 333 334 334 334 334 334 333 333 333 334 334 333 333 332 332 333 332 331 328 326 325 324 324 327 326 322 326 329 330 330 324 319 317 317 317 318 319 315 314 315 313
331 331 332 334 334 334 333 333 333 333 333 334 333 333 332 331 327 332 332 329 327 325 325 326 326 328 323 326 329 329 330 324 319 317 316 316 315 315 312 313 311 311 310
330 330 332 332 332 333 333 332 333 332 333 333 332 330 330 325 302 304 319 332 330 326 322 324 324 321 319 314 316 317 327 325 322 320 316 314 316 314 314 312 310 309 305
330 330 331 332 331 332 331 331 332 333 334 332 331 329 328 328 301 302 310 331 328 326 324 323 323 321 321 323 312 312 312 311 319 323 319 317 315 316 316 313 313 313 309
330 330 331 331 330 331 330 331 333 334 332 331 330 329 329 323 302 303 308 331 328 329 327 324 322 323 321 321 323 324 325 325 325 326 325 323 321 322 322 320 317 310 309
329 329 330 331 330 330 330 331 333 331 330 330 330 328 329 323 302 302 317 328 327 327 326 324 323 320 305 306 323 322 322 319 309 307 308 304 302 304 310 315 312 313 309
329 330 331 331 331 330 331 331 332 332 330 328 328 329 314 323 301 304 318 325 323 322 322 319 309 314 300 304 321 321 317 315 315 315 313 308 309 307 308 318 315 310 312
331 331 331 332 332 332 332 332 331 330 328 328 326 328 322 319 315 301 307 327 324 322 318 317 310 300 300 302 308 321 316 318 312 316 314 313 314 316 316 317 317 315 317
331 331 331 333 331 331 331 331 331 330 325 325 325 323 321 321 305 302 302 308 312 322 318 314 307 298 298 300 309 300 301 310 317 314 313 313 315 315 315 318 320 323 325
331 331 331 332 332 332 330 330 329 329 327 322 322 322 320 321 317 299 299 301 305 319 317 307 297 296 297 299 298 300 305 316 315 314 313 315 317 320 321 320 320 323 321
331 331 331 332 331 331 331 330 327 327 325 323 322 319 319 321 321 320 317 315 304 307 303 305 305 305 305 305 308 312 319 320 318 317 317 318 320 320 319 319 315 315 318
331 331 331 331 332 331 330 328 329 330 325 322 326 324 321 320 321 314 315 320 320 310 312 316 315 314 313 315 318 319 320 320 320 320 318 320 319 318 318 320 320 319 317
330 330 330 330 331 329 325 322 296 302 301 303 304 316 324 307 299 299 298 297 298 300 316 316 315 315 315 316 317 318 320 317 321 323 323 322 321 321 321 320 320 319 318
330 332 330 327 330 329 327 327 325 311 295 295 296 297 301 304 295 294 295 296 295 306 318 316 317 318 317 318 318 321 321 324 326 325 325 325 324 324 320 320 320 319 318
332 311 331 331 331 330 329 329 328 327 326 324 298 301 294 293 293 293 295 302 316 314 320 318 318 321 322 319 320 323 325 325 325 325 325 325 324 323 321 321 322 322 322
330 330 331 332 332 327 330 329 329 328 328 327 314 301 294 291 292 293 297 323 319 320 320 320 321 322 324 326 325 325 325 326 325 326 326 326 325 323 322 324 324 304 310
329 314 320 332 331 330 330 328 328 328 328 325 323 321 307 306 310 308 318 324 324 325 324 324 323 323 323 324 324 325 324 322 323 326 326 326 325 324 322 322 323 323 323
328 328 310 331 331 330 330 329 327 327 328 326 328 320 300 324 323 319 319 324 326 326 326 326 326 327 326 325 323 322 322 324 323 326 327 326 326 324 326 326 326 326 325
327 327 328 329 330 330 330 330 329 327 327 327 328 317 292 324 326 325 324 324 328 329 329 328 327 327 327 326 326 325 324 324 324 324 327 327 327 327 327 326 326 326 326
328 327 327 328 330 315 327 330 329 329 327 326 327 323 313 323 328 328 328 328 329 330 331 330 329 328 329 329 329 328 327 327 328 328 328 328 328 328 328 327 326 325 325
329 328 326 327 328 328 329 329 329 314 326 327 326 326 324 326 328 330 330 330 330 330 331 331 331 330 330 330 329 329 329 329 330 330 330 329 328 323 327 327 326 325 324
325 326 326 326 326 327 328 329 330 329 328 328 328 328 328 327 327 328 330 331 330 330 330 330 331 331 331 331 331 330 318 295 320 313 329 329 328 328 326 325 324 324 325
310 312 316 319 321 321 322 323 323 324 324 325 326 326 327 326 326 325 326 326 327 328 329 330 330 331 331 331 331 315 297 293 307 295 324 328 327 327 326 326 326 326 326

GFSGL_sfc_thetae_048.txt.gz
Theta_e
345 345 345 343 343 343 342 343 344 344 343 341 340 339 337 337 337 337 336 335 334 335 332 327 333 335 336 336 338 335 331 331 323 328 330 330 330 330 332 335 336 330 325
344 343 341 342 342 343 342 342 343 341 340 338 336 335 335 334 337 336 335 333 334 333 327 326 328 333 332 335 330 327 335 337 327 323 324 322 324 327 327 326 326 327 327
339 339 340 341 341 341 341 341 339 337 336 335 335 334 333 334 335 336 335 333 333 333 327 325 326 329 331 331 326 335 335 336 329 323 319 321 321 322 320 321 321 322 322
338 338 338 339 338 338 339 338 337 336 335 335 335 334 335 334 335 334 333 333 330 328 326 324 325 326 331 329 334 332 334 332 328 323 319 318 319 320 318 315 315 318 317
335 334 334 336 337 338 337 337 337 335 335 335 335 335 335 335 333 334 333 334 332 325 326 325 327 326 324 325 329 334 334 329 324 318 316 316 315 315 313 315 313 313 313
331 331 334 335 336 337 337 337 335 335 336 335 335 334 334 331 304 306 319 335 331 326 324 326 328 323 323 316 317 319 328 328 325 320 317 315 315 315 314 312 311 311 307
329 332 334 335 335 335 335 334 334 335 337 335 335 334 333 333 304 304 309 335 332 326 325 325 324 327 325 331 314 315 314 312 321 329 320 318 315 318 319 316 316 315 311
329 332 333 333 333 334 334 334 335 336 335 336 335 333 333 328 304 303 309 334 333 330 326 326 323 325 325 328 330 330 330 331 331 330 324 323 322 324 324 322 319 315 313
330 331 332 332 332 332 332 334 336 335 336 336 335 333 333 329 302 303 313 333 331 330 327 324 324 324 307 307 328 327 328 326 308 307 310 306 306 306 314 320 312 312 311
330 331 332 332 333 332 333 334 336 336 335 334 332 332 318 328 301 303 318 330 330 326 324 321 310 316 300 305 328 325 322 319 320 319 315 310 314 309 308 322 322 316 314
332 332 333 333 334 335 336 335 335 333 334 333 331 329 328 327 320 302 307 331 328 323 322 317 314 300 299 302 312 327 321 323 317 321 319 317 319 319 321 323 323 319 320
333 332 333 336 334 334 336 334 334 335 334 332 330 327 325 326 307 304 303 308 314 324 321 315 309 297 298 300 312 301 302 312 320 318 317 314 317 317 317 318 318 323 329
332 332 334 335 334 335 334 333 332 333 332 331 327 327 323 324 325 300 300 302 307 324 320 305 296 296 297 299 299 300 305 321 319 317 316 318 318 320 320 318 322 329 327
332 333 334 334 333 335 333 333 331 333 331 328 326 326 326 324 326 327 322 319 305 308 304 310 305 305 304 304 306 312 324 322 319 317 317 319 320 322 321 323 321 325 324
333 333 334 334 335 334 334 330 332 335 329 330 329 328 327 325 325 317 318 324 323 310 313 317 316 314 313 314 317 318 320 319 317 320 319 318 320 321 320 323 325 322 319
333 332 332 332 333 332 331 329 297 300 301 302 301 315 326 307 299 300 298 298 299 300 317 318 315 315 315 316 317 317 318 316 320 321 322 322 321 322 322 323 324 322 319
332 332 331 327 330 330 330 330 327 314 296 295 298 297 300 303 296 295 295 296 296 305 319 319 319 317 317 318 318 319 318 321 325 325 324 324 324 323 320 323 324 323 321
333 313 331 330 329 329 330 331 332 329 327 325 300 303 295 295 294 294 296 302 314 314 319 322 322 322 320 319 321 323 324 325 326 326 325 326 325 323 323 324 322 321 320
332 331 330 331 331 325 328 329 328 331 330 328 317 304 297 291 292 294 298 323 320 319 320 320 325 324 325 325 325 326 326 325 325 326 326 327 326 326 326 325 323 305 309
330 314 318 331 332 331 327 327 328 330 331 330 326 324 313 308 313 314 322 325 324 323 323 323 324 327 327 328 328 326 326 325 326 327 327 327 328 328 326 325 324 324 323
329 331 309 330 331 330 329 325 328 328 329 328 330 324 303 327 324 324 326 326 327 326 325 325 326 328 329 327 327 325 325 326 329 328 329 329 329 327 327 326 326 326 325
328 329 329 329 330 329 329 329 327 326 327 327 330 319 293 326 329 328 328 329 330 331 331 331 330 330 329 329 329 329 328 329 330 329 330 329 329 328 327 326 327 327 327
328 329 328 328 329 316 330 330 329 327 326 327 329 326 323 328 329 329 330 331 332 333 333 332 331 330 331 332 333 332 330 330 331 331 330 330 330 329 329 328 328 327 327
330 329 328 329 329 330 330 331 331 316 326 327 328 328 329 330 331 331 332 332 333 333 333 334 333 332 332 332 333 333 332 333 333 333 333 331 331 326 330 330 329 329 328
332 332 330 330 330 331 331 332 332 331 330 329 329 330 331 332 333 335 336 337 336 335 334 335 335 334 333 333 333 333 318 298 322 304 332 332 331 330 329 329 328 328 327
316 318 319 322 326 328 329 328 326 329 330 330 330 330 330 329 329 330 331 331 334 335 335 336 335 331 328 314 305 292 289 292 309 293 326 330 329 329 328 328 327 325 325

GFSGL_sfc_thetae_051.txt.gz
Theta_e
348 349 350 350 349 349 347 345 345 346 344 341 341 340 340 339 339 339 339 336 334 336 336 333 334 336 337 338 339 338 329 329 326 330 333 335 335 336 338 339 337 333 327
347 347 347 347 345 345 344 344 344 342 340 339 339 338 336 336 337 335 334 335 333 332 333 331 329 332 334 337 340 336 337 338 330 326 326 324 326 328 330 329 330 330 328
344 344 343 342 342 343 342 342 341 339 338 338 336 334 333 333 335 335 333 333 333 333 333 329 326 329 329 335 337 332 337 336 336 326 320 322 322 323 321 323 324 324 324
341 340 340 341 341 340 341 340 338 338 336 335 335 334 333 334 335 335 334 334 334 331 328 327 326 327 330 331 332 335 335 331 329 322 320 319 319 320 321 317 316 320 318
338 338 339 339 339 338 337 337 337 337 335 334 334 336 335 334 329 335 335 335 334 331 327 325 327 326 323 323 337 335 335 330 326 320 318 316 315 316 315 317 314 314 316
336 335 335 335 335 335 336 337 338 335 334 337 335 334 335 330 305 309 322 335 334 330 325 325 327 323 323 316 315 317 330 331 323 320 317 315 315 315 316 315 313 312 307
332 332 332 333 334 335 335 335 334 336 339 335 335 335 334 331 306 307 310 336 332 329 327 327 327 330 326 331 316 315 315 314 321 327 320 317 315 318 317 317 321 319 313
331 331 332 334 333 333 334 334 336 338 337 338 336 334 334 326 306 304 307 333 333 330 326 327 325 329 330 331 331 332 331 331 330 329 326 321 322 322 321 321 319 315 314
329 330 331 333 332 332 332 334 338 339 337 337 335 334 333 332 305 305 314 333 332 329 327 326 325 327 309 306 331 328 326 324 310 310 311 306 304 307 315 320 314 312 309
329 330 332 333 332 332 334 337 337 337 336 335 333 335 321 332 304 304 315 332 329 328 326 323 310 319 303 304 329 328 324 320 320 319 314 310 313 309 308 322 316 312 312
331 331 333 333 334 334 336 339 336 335 335 334 332 331 333 329 324 305 304 329 329 324 321 319 316 300 299 305 312 331 323 322 315 322 320 319 318 317 320 320 320 318 315
331 330 334 335 332 332 336 336 335 337 335 333 330 327 330 331 308 305 305 308 317 327 323 319 311 298 299 302 314 302 304 313 323 320 318 316 316 317 320 318 322 320 326
331 332 333 334 333 333 334 334 333 336 334 329 328 327 326 329 328 302 301 303 304 322 321 304 296 295 297 302 299 302 306 323 322 318 317 317 318 319 322 317 318 323 330
330 333 333 333 330 333 331 333 336 335 334 332 328 326 327 327 327 328 323 321 306 311 305 310 304 304 303 308 311 311 324 323 321 320 318 319 320 319 318 317 316 323 325
330 331 333 330 333 332 328 330 334 334 328 334 333 327 327 325 324 317 321 325 322 313 315 318 316 313 311 313 319 321 324 323 321 321 321 319 321 319 319 320 320 324 323
331 330 331 330 331 329 330 329 298 299 297 297 299 317 321 307 298 298 299 299 299 300 319 318 315 314 313 315 317 318 321 318 321 321 321 321 320 320 321 322 323 324 322
331 333 330 326 331 328 329 329 326 314 297 296 297 297 305 300 296 296 296 297 296 305 320 320 316 316 317 317 317 318 318 320 322 321 323 323 324 324 320 323 323 322 321
332 313 328 328 328 328 329 331 330 326 325 325 301 302 296 295 294 294 296 302 315 315 323 321 318 318 318 318 319 318 320 321 321 324 324 324 325 323 322 323 323 323 322
331 328 329 328 327 325 329 331 329 329 329 326 321 307 297 292 293 295 299 320 320 321 325 324 323 322 321 321 322 323 323 325 325 326 327 326 326 323 323 324 324 305 310
330 314 316 329 327 326 330 328 329 330 330 327 325 324 314 310 317 318 322 323 322 321 322 325 327 327 325 325 326 326 326 324 327 326 327 327 327 327 325 325 325 322 321
329 328 309 330 327 326 326 328 327 328 328 328 328 323 304 325 323 324 324 325 325 324 326 324 327 329 329 327 327 326 326 327 327 327 328 329 329 327 328 327 325 324 323
328 327 329 328 327 327 326 326 328 327 327 327 328 319 297 327 327 327 327 327 329 330 331 330 329 329 329 329 329 329 328 328 328 328 329 328 328 329 329 327 325 324 324
328 327 327 328 328 316 326 326 325 326 328 329 327 325 324 327 328 328 329 329 330 329 330 330 328 329 330 331 332 331 329 329 330 330 329 329 329 328 327 326 325 325 325
328 327 325 327 327 327 327 327 326 315 324 328 327 327 328 330 328 329 330 332 332 330 330 331 332 330 332 332 333 333 331 331 331 330 332 331 329 325 329 329 328 328 328
327 327 326 328 327 327 327 327 326 327 326 326 328 327 327 328 331 332 334 332 332 333 331 327 325 324 312 309 306 304 292 289 312 299 330 333 332 331 328 327 327 329 328
326 327 327 327 326 325 326 320 316 322 324 321 324 320 321 320 322 323 325 325 322 315 315 311 308 309 307 301 296 288 287 287 295 288 316 329 329 329 328 327 327 326 326

GFSGL_sfc_thetae_054.txt.gz
Theta_e
348 349 351 351 354 353 351 350 347 348 347 346 344 342 341 342 340 338 337 335 334 334 333 331 332 333 331 332 332 329 328 326 321 324 328 330 329 329 332 330 332 328 325
349 349 351 346 346 349 346 346 345 344 343 341 341 339 338 338 336 336 334 333 332 331 332 330 328 332 330 329 330 327 328 328 324 321 323 323 325 327 329 328 329 328 327
346 343 342 342 344 345 344 344 344 342 342 339 339 337 336 336 334 334 334 333 333 332 331 329 326 327 326 326 328 327 328 329 327 321 318 321 321 323 322 324 324 325 325
341 340 340 342 343 343 343 342 342 339 339 339 338 335 333 333 334 334 333 333 333 333 330 326 325 325 326 326 328 329 327 326 324 319 318 318 318 320 320 318 316 320 319
337 337 340 342 342 341 340 340 339 340 338 336 336 333 333 330 329 334 335 332 332 328 328 326 324 324 322 321 326 329 326 326 320 317 316 316 315 316 315 316 313 314 315
335 337 340 339 338 338 338 338 339 337 338 333 334 333 327 324 305 310 323 333 333 329 326 324 326 322 321 314 317 317 325 324 319 317 316 314 315 315 315 314 313 312 308
336 336 335 335 334 335 336 336 336 334 337 335 334 333 330 322 304 308 312 334 332 329 326 323 325 328 324 325 313 314 315 315 319 321 317 317 315 316 316 315 315 314 311
333 332 332 332 333 334 334 333 336 336 337 335 334 333 330 320 307 307 308 334 331 329 326 325 325 327 327 327 327 326 326 324 323 324 321 319 319 319 320 319 317 313 314
330 330 331 333 333 332 332 334 336 335 334 334 335 333 331 324 304 305 316 332 330 327 326 324 324 326 308 307 327 325 322 318 310 311 309 306 304 307 312 317 313 312 309
329 330 333 334 333 332 334 336 336 335 335 335 334 333 320 324 303 303 315 329 327 326 325 321 308 317 302 304 327 325 319 318 318 317 314 308 310 309 308 318 316 312 311
330 331 334 334 335 335 336 336 334 334 334 333 331 330 330 327 314 304 304 330 327 324 321 318 316 299 303 303 314 324 319 320 314 320 318 317 317 318 318 318 318 316 313
330 333 333 334 331 334 335 335 335 334 332 331 328 327 330 327 311 303 303 308 318 324 322 319 310 297 300 303 311 301 304 313 321 318 317 315 316 317 317 319 318 318 320
333 333 333 334 333 334 334 334 332 332 331 329 325 324 325 326 320 301 301 305 307 322 320 307 296 297 299 303 300 302 308 320 318 316 314 315 317 319 317 317 318 319 322
333 331 334 334 331 333 333 333 334 332 331 330 329 325 324 326 325 323 318 314 304 305 304 306 304 304 305 307 309 313 323 320 318 317 316 317 318 318 315 317 314 320 320
333 331 331 329 331 326 321 319 332 320 325 331 332 327 325 324 323 318 320 323 319 309 312 315 314 313 315 318 317 320 320 321 318 318 317 316 317 317 316 316 315 317 319
330 331 328 329 329 328 328 321 296 297 296 300 301 318 314 308 299 300 300 300 300 299 316 314 313 313 313 316 317 319 319 317 319 320 319 318 316 316 315 316 317 317 318
329 329 330 325 329 328 329 327 321 310 297 295 295 302 305 299 296 296 297 298 297 301 318 315 314 314 315 317 318 318 318 320 321 319 319 320 319 319 314 317 317 318 320
330 315 328 331 328 330 327 327 326 323 322 319 299 300 295 294 294 295 296 302 315 315 320 317 316 316 317 317 318 319 320 320 320 321 320 321 320 320 319 320 320 320 319
328 330 331 331 329 327 330 328 327 327 326 320 315 304 296 293 294 295 297 320 320 322 322 320 318 318 319 319 320 320 321 321 321 323 323 322 323 322 321 321 320 304 309
331 314 314 327 328 330 329 327 329 328 327 323 322 316 309 310 313 315 320 321 322 322 322 323 321 321 320 321 322 321 322 319 322 325 324 323 324 323 321 321 321 320 317
328 326 308 325 326 329 329 327 330 329 327 325 324 317 302 321 319 321 323 323 323 323 324 326 325 325 323 324 325 324 325 324 325 325 325 325 325 323 322 323 323 323 321
325 326 327 325 325 329 328 328 329 329 328 327 323 313 296 320 324 324 326 326 328 328 328 327 327 326 327 326 326 326 325 325 326 326 326 326 326 324 324 325 325 323 321
325 325 327 323 327 312 325 327 328 326 328 326 323 321 319 323 325 325 325 326 327 327 329 328 327 327 329 329 328 327 326 326 327 327 326 326 326 326 326 325 325 324 321
325 325 326 323 325 325 326 325 327 317 326 325 325 324 325 327 329 329 327 327 327 323 320 320 309 307 307 307 306 305 301 299 311 327 328 326 325 319 325 325 323 322 321
328 327 328 324 325 324 323 326 325 328 325 326 328 328 325 321 321 319 316 315 313 308 305 306 306 302 299 296 296 295 289 286 297 293 320 326 327 327 326 325 325 325 325
324 327 325 321 321 319 315 315 318 320 318 316 318 318 316 316 314 313 312 310 310 305 301 298 298 297 296 293 291 287 288 289 296 289 314 327 326 324 322 323 324 324 324

GFSGL_sfc_thetae_057.txt.gz
Theta_e
334 339 341 343 344 346 342 342 340 341 339 341 340 336 335 333 333 330 328 328 327 325 325 325 325 326 325 324 325 323 321 318 314 319 323 325 324 327 328 328 329 326 324
341 340 342 342 344 342 341 342 343 341 341 339 336 335 335 334 330 329 328 329 326 324 325 324 325 328 323 324 324 323 322 320 319 319 321 323 324 327 329 327 327 327 326
342 341 340 340 340 337 335 336 340 340 336 336 334 332 332 333 331 332 327 328 327 326 326 324 323 323 323 324 325 325 322 323 320 319 318 320 321 324 323 324 324 324 325
339 337 337 337 338 337 336 335 332 332 331 333 334 335 334 332 330 328 329 328 328 326 325 324 321 323 322 323 325 325 323 322 318 317 318 317 318 320 321 319 317 320 319
338 337 337 338 337 335 332 332 330 330 329 329 329 328 330 331 330 330 330 326 325 322 322 322 321 323 321 321 325 324 323 318 317 317 316 316 316 317 316 316 314 315 315
337 336 336 336 334 333 329 328 329 328 327 327 327 325 323 322 306 313 323 326 325 322 320 319 322 322 320 313 317 318 322 320 317 317 316 316 316 315 315 315 314 314 309
336 336 334 333 331 329 329 328 326 327 328 327 328 323 317 314 304 308 314 326 324 322 320 319 323 326 321 321 312 314 315 314 316 318 317 317 315 316 316 315 315 312 311
334 333 331 330 329 328 326 326 329 329 328 327 328 324 317 312 304 309 311 325 323 322 321 321 323 323 319 322 321 321 320 319 319 321 320 318 318 318 318 318 314 313 315
329 328 328 330 328 327 325 327 328 328 324 324 327 321 316 314 304 307 313 325 323 321 321 322 322 322 306 305 323 319 316 315 309 309 308 305 304 306 313 316 313 312 310
326 327 330 329 328 328 326 327 325 325 324 327 327 324 314 314 301 304 313 325 321 320 319 319 302 313 301 304 321 318 316 316 316 314 311 307 309 309 308 317 315 312 310
327 328 331 330 327 327 327 325 325 325 326 325 324 322 320 314 310 302 308 326 322 321 320 317 312 300 300 302 309 319 316 317 312 317 316 316 315 317 317 317 316 314 312
330 330 329 328 331 329 327 325 325 325 324 321 322 323 323 316 306 301 300 312 314 320 319 317 307 298 298 302 310 299 302 311 319 317 315 315 315 315 316 317 317 315 319
328 327 327 327 329 328 326 325 324 325 323 319 321 323 320 315 311 299 298 303 309 317 318 308 297 297 298 302 299 301 307 319 317 315 314 315 316 316 318 317 317 317 318
327 326 327 326 327 327 327 326 325 324 323 320 319 321 322 319 314 309 310 309 303 305 303 307 304 304 305 308 309 314 320 319 317 315 315 316 317 316 315 315 314 316 316
327 327 326 325 323 314 308 309 321 315 317 323 322 321 321 320 318 313 313 315 314 308 311 315 315 315 315 316 317 319 318 318 316 316 315 315 316 314 314 313 313 315 316
326 325 326 324 321 320 316 312 295 295 297 303 307 317 314 307 301 301 299 298 299 299 314 314 313 315 316 316 317 317 318 314 317 317 316 316 316 315 313 314 315 314 314
325 324 325 324 325 323 320 316 313 306 296 295 295 299 303 299 296 297 297 298 296 304 315 314 313 314 316 317 318 317 317 318 319 317 317 316 315 315 309 314 314 315 313
326 314 326 326 326 324 324 319 318 317 314 310 297 296 294 295 295 295 296 301 311 309 315 314 314 316 317 317 318 318 318 318 318 318 317 318 316 316 313 315 315 314 313
326 325 325 327 327 322 324 322 320 320 314 310 307 301 294 293 293 295 298 317 314 314 313 316 317 317 317 318 318 319 319 319 319 319 319 316 318 315 315 316 315 303 306
325 314 318 326 323 325 324 322 321 319 315 314 314 308 305 308 312 313 316 318 315 320 316 315 317 318 318 318 318 319 316 314 317 319 319 318 318 317 316 316 316 315 312
322 318 308 325 324 324 325 324 323 320 318 317 313 310 299 315 315 317 319 319 320 319 321 318 317 316 319 319 319 318 317 317 317 319 320 319 319 318 317 317 316 317 318
322 322 324 325 324 325 325 327 324 322 320 317 314 308 292 317 316 317 318 321 322 321 322 323 322 321 321 321 322 321 321 321 322 323 323 323 323 322 320 317 317 317 318
322 322 323 321 326 311 324 325 325 323 321 317 316 315 308 314 320 321 323 324 324 324 318 314 317 315 313 312 313 316 322 322 323 323 322 323 324 322 321 318 319 319 319
319 322 322 322 322 324 324 325 324 313 320 318 317 316 316 318 318 320 311 309 308 306 305 303 301 299 302 301 301 301 299 300 307 315 324 324 323 317 324 324 324 323 323
323 322 322 321 319 318 322 322 322 322 322 322 321 320 316 314 310 307 305 303 300 299 297 297 298 296 294 293 295 296 291 289 300 293 322 320 315 318 319 320 321 320 317
316 315 315 315 313 314 318 314 315 318 316 314 312 309 309 306 303 303 301 297 295 294 293 293 292 291 291 291 290 287 287 289 296 294 307 308 305 305 306 307 307 308 305

GFSGL_sfc_thetae_060.txt.gz
Theta_e
328 329 333 333 336 340 339 337 337 338 337 337 337 336 337 335 333 329 327 327 326 324 323 323 322 323 323 323 323 320 319 316 311 320 322 321 324 327 328 327 327 326 323
330 333 336 338 339 340 338 337 337 336 338 338 338 337 336 335 330 327 326 327 326 323 322 322 323 326 322 322 322 322 319 318 316 318 321 322 323 327 327 325 326 327 325
335 336 336 337 340 340 338 338 337 338 337 337 336 335 334 332 329 326 327 327 325 324 323 322 322 323 319 321 323 324 322 321 318 320 318 320 322 325 323 323 323 323 324
337 336 336 336 336 336 338 339 338 337 335 334 333 333 332 330 329 329 327 325 325 324 324 322 321 321 321 322 323 324 322 318 318 320 319 317 319 321 322 320 317 319 318
336 334 333 334 334 334 332 333 333 336 335 334 330 329 330 331 328 327 326 325 323 321 321 321 320 321 321 321 324 323 322 319 317 317 316 316 316 318 318 317 314 316 315
334 333 334 333 334 334 332 328 328 327 327 326 325 325 324 324 310 315 324 323 322 320 318 318 319 320 319 313 316 317 321 319 317 317 316 316 317 315 316 316 315 316 311
333 334 334 333 332 331 328 327 324 323 323 321 320 321 321 316 303 306 311 323 321 319 318 317 319 324 320 321 312 311 313 311 316 319 316 317 316 317 317 316 317 314 311
333 333 333 332 329 328 326 324 323 323 323 322 321 319 315 311 304 306 312 322 320 320 319 318 319 322 321 321 321 321 319 318 317 319 318 315 318 319 319 317 315 314 315
331 331 331 329 327 325 323 323 324 326 327 325 321 316 313 312 303 305 316 321 319 319 319 320 320 321 303 304 321 318 317 315 307 308 307 305 303 306 312 316 314 313 311
330 329 329 328 326 324 323 324 326 326 326 324 319 316 312 314 301 301 312 321 318 320 318 316 304 315 300 302 318 318 316 314 314 313 311 306 309 307 307 318 316 313 310
329 328 327 327 324 324 324 326 323 325 325 322 319 315 315 314 308 299 305 322 321 318 319 316 313 299 298 299 308 320 315 315 311 315 316 315 315 315 316 316 314 316 311
328 327 326 325 327 326 324 323 324 324 322 320 320 319 314 313 303 299 302 309 312 318 318 317 311 298 297 299 308 298 301 309 317 316 315 314 315 315 316 317 316 316 318
327 326 325 326 326 325 324 323 323 323 321 321 320 319 316 314 310 298 298 300 306 316 318 308 296 296 298 301 298 300 305 317 316 314 314 314 316 316 317 316 315 317 318
325 325 326 325 323 324 325 325 323 321 319 320 321 320 318 314 312 313 311 309 303 307 304 306 305 304 304 305 308 313 318 318 317 315 315 316 316 316 315 314 313 313 314
326 325 324 324 320 313 307 313 323 318 318 320 318 320 317 315 312 307 309 315 314 309 311 315 316 315 315 316 318 318 317 317 316 316 315 315 314 314 314 312 312 315 313
325 325 323 320 317 315 313 307 294 296 297 299 306 315 314 306 298 297 297 297 297 299 315 315 314 315 315 317 316 315 316 313 316 316 316 316 315 314 313 312 313 314 314
325 322 321 319 318 317 317 314 309 301 294 296 302 301 305 301 297 296 295 295 295 303 315 314 315 316 316 317 316 316 314 315 317 316 316 316 315 315 310 312 313 313 312
326 314 322 322 321 319 317 315 314 314 312 309 297 297 294 295 294 295 295 301 312 310 315 314 314 316 317 317 317 316 316 317 316 317 316 316 315 314 311 312 313 313 313
323 324 325 323 322 319 318 317 316 314 312 307 306 300 294 292 293 295 297 316 315 310 315 315 316 317 318 317 318 318 318 317 317 317 317 317 316 313 312 314 313 302 305
324 314 317 323 322 321 319 318 315 313 313 314 313 308 304 307 312 313 315 317 316 315 316 316 317 318 318 318 318 318 317 315 317 318 318 317 317 315 313 315 314 314 313
323 319 306 322 324 322 320 319 316 314 315 315 313 309 298 315 314 315 315 317 316 315 314 315 317 317 318 319 318 318 317 314 317 319 319 316 316 316 315 315 316 316 314
324 324 322 323 323 323 322 320 318 316 316 313 312 308 290 313 314 316 318 318 321 321 320 318 318 318 319 319 319 317 316 317 317 318 319 320 319 318 317 316 315 314 314
320 322 324 322 323 311 321 322 319 318 315 314 312 310 308 313 317 319 320 319 312 307 308 313 312 309 308 309 311 316 320 320 322 323 322 322 322 322 319 317 317 315 315
321 322 321 322 321 325 322 322 318 308 315 315 314 313 314 317 313 307 306 305 303 301 300 300 299 299 300 300 301 301 300 301 306 314 318 322 322 317 321 322 321 321 318
320 320 321 322 322 323 320 319 318 317 317 317 316 313 309 306 304 302 300 298 296 294 295 296 295 295 294 294 295 295 290 290 304 302 313 314 314 313 313 313 310 310 309
312 313 312 315 320 320 319 318 318 318 316 314 308 305 304 300 298 296 295 294 293 293 293 293 292 293 292 291 289 288 288 289 295 293 307 307 307 305 306 304 304 303 302

GFSGL_sfc_thetae_063.txt.gz
Theta_e
314 317 321 325 327 329 332 334 335 336 336 337 336 335 335 333 334 332 329 327 326 323 322 322 321 320 319 319 319 318 316 314 310 319 320 322 325 326 327 327 327 326 322
315 319 322 327 330 333 334 334 335 336 337 337 336 335 335 335 332 330 329 328 324 322 322 321 320 322 320 320 319 318 317 316 314 316 320 321 323 326 325 325 326 326 324
324 325 329 330 333 334 334 334 335 335 336 336 336 335 334 334 331 330 328 325 324 323 322 320 320 321 319 319 319 319 318 319 316 316 318 321 323 325 322 322 322 321 323
329 329 331 334 335 335 335 335 335 337 336 335 336 336 335 333 331 326 326 324 323 322 322 321 320 321 319 318 320 322 321 319 318 318 319 318 320 322 322 319 316 319 318
331 331 332 334 335 337 337 336 336 337 335 334 334 334 332 330 328 325 324 323 321 320 320 320 320 320 320 319 321 322 320 319 318 318 316 316 317 318 318 317 315 316 316
332 331 332 333 334 337 338 336 334 334 332 332 331 329 327 328 310 312 320 322 321 320 318 318 318 318 317 313 315 316 320 319 317 317 313 315 317 315 317 317 316 315 313
331 332 332 332 331 330 330 331 332 329 330 328 324 323 321 318 304 308 313 324 320 318 317 316 317 321 318 320 311 311 312 311 316 320 316 318 317 317 318 316 316 312 312
329 331 332 331 329 329 328 327 325 327 324 320 318 318 317 311 302 302 307 320 318 318 317 316 316 318 318 319 319 320 320 319 319 319 319 317 315 319 320 319 314 314 315
323 331 331 330 327 327 325 322 321 321 319 317 317 315 314 311 301 302 315 319 318 317 317 317 318 319 307 304 321 319 317 315 307 307 308 306 303 305 312 317 314 314 311
318 330 331 329 327 325 323 322 322 322 319 318 316 316 308 311 300 302 314 319 318 319 318 316 304 314 299 300 319 318 315 314 313 312 310 306 307 307 307 318 316 314 310
326 331 329 328 326 325 322 323 323 323 320 317 315 315 316 313 306 300 305 319 321 319 318 316 313 299 298 298 307 318 315 315 310 315 315 315 314 314 314 316 315 316 312
330 328 326 325 325 324 322 323 325 323 320 316 316 315 316 313 303 300 300 307 311 319 318 316 310 297 296 298 307 297 299 309 316 315 314 313 314 315 314 316 314 316 316
326 324 323 323 323 323 322 322 321 321 320 319 318 316 314 314 309 298 299 299 304 316 316 307 298 295 295 298 297 298 304 317 316 314 313 314 315 316 316 314 313 315 315
323 322 323 322 321 322 323 323 321 320 321 320 318 316 315 313 313 313 310 309 303 307 303 305 303 303 303 303 307 312 317 316 316 315 314 314 316 315 314 314 313 314 313
323 323 322 321 321 316 308 314 321 318 319 321 320 317 315 312 312 309 311 316 315 309 310 314 314 312 312 314 317 317 316 316 315 315 315 314 314 314 313 314 313 314 313
323 322 321 318 317 314 313 308 294 295 299 301 304 313 312 303 296 297 300 297 297 299 315 315 314 315 314 315 315 315 315 313 315 316 315 315 314 313 313 312 314 314 312
324 321 319 316 317 317 316 316 311 301 295 294 297 297 302 298 295 294 295 293 295 303 315 315 315 315 316 316 315 315 314 315 316 316 315 315 314 314 312 312 313 314 313
324 309 320 319 318 319 317 316 315 315 315 311 296 297 294 294 294 293 294 301 312 311 316 315 315 316 317 316 316 315 315 316 316 315 315 315 315 313 313 313 312 313 313
321 321 321 320 318 314 315 314 314 315 313 308 304 298 293 292 293 294 296 315 314 314 315 315 316 317 317 317 317 317 317 316 316 316 315 316 315 314 313 314 313 301 305
323 308 314 320 317 317 316 314 314 312 311 313 313 306 302 306 309 311 313 316 311 313 315 316 317 318 318 318 318 318 316 314 315 316 316 316 316 315 313 313 314 313 312
319 318 304 321 319 318 317 314 314 315 314 314 311 307 296 315 313 314 314 313 316 315 316 316 316 318 319 318 318 318 317 317 317 318 317 317 317 315 314 314 315 315 314
321 320 322 322 320 319 318 315 316 316 315 313 311 302 293 313 315 316 316 319 320 318 318 317 318 318 319 319 318 318 317 313 314 317 317 318 316 316 316 315 315 315 315
323 321 321 321 321 308 316 316 316 315 313 312 312 309 312 314 317 318 315 310 308 307 308 313 312 309 309 309 309 315 317 317 319 319 319 319 319 319 318 317 316 314 313
321 322 321 320 320 320 318 317 314 307 313 313 311 312 314 313 309 306 305 303 301 300 300 299 299 300 301 302 301 301 302 305 309 314 317 321 321 315 320 319 318 318 317
322 321 320 321 320 320 316 316 314 314 314 313 312 308 307 303 301 300 298 297 296 295 295 296 296 295 296 296 296 296 289 287 303 299 312 314 312 311 310 308 308 306 305
315 316 319 321 320 319 317 315 314 315 313 309 304 300 300 297 297 296 296 294 293 292 292 292 292 291 291 291 290 288 288 288 295 293 306 306 305 304 304 302 301 300 299

GFSGL_sfc_thetae_066.txt.gz
Theta_e
310 319 323 322 324 325 326 329 332 334 337 337 338 337 337 336 336 335 335 331 331 327 328 327 326 325 325 324 325 324 322 321 319 322 324 325 327 328 328 329 329 328 324
311 318 320 322 325 326 328 331 334 335 337 337 337 337 336 336 335 334 332 331 329 327 326 326 325 325 324 325 325 324 324 322 322 320 321 323 325 327 327 325 327 327 326
312 314 319 323 326 327 329 332 334 336 337 337 337 337 336 335 334 334 333 331 329 328 327 326 325 325 324 325 325 324 324 323 323 320 319 323 324 325 322 322 323 324 325
323 319 321 324 327 329 332 333 335 336 336 337 337 337 336 335 334 332 331 329 328 327 326 326 325 325 325 325 325 325 325 323 320 319 321 320 321 323 323 320 318 320 321
327 326 326 328 331 333 333 334 336 336 337 337 336 336 335 334 332 330 329 328 327 325 325 325 325 324 321 322 326 325 324 322 320 320 319 319 319 320 318 318 316 318 319
328 329 331 334 335 335 335 335 334 335 336 336 335 335 333 332 310 313 323 326 326 325 324 324 324 320 318 312 314 316 320 320 319 319 319 317 318 318 319 317 316 318 316
325 331 332 334 334 334 334 334 334 334 334 333 333 332 330 327 307 307 312 326 325 324 324 323 322 323 320 321 311 311 312 312 316 320 319 319 318 320 318 318 319 316 316
323 331 333 333 332 333 333 333 333 333 331 330 329 329 326 318 302 302 307 326 324 324 323 322 323 323 322 322 321 322 320 320 321 322 324 323 323 323 323 320 316 316 316
322 324 332 331 329 330 330 329 329 328 327 325 324 322 320 314 299 301 315 324 322 321 321 321 321 322 308 303 321 320 319 317 308 309 309 306 304 306 315 320 316 316 313
318 320 331 330 329 328 327 326 327 327 322 321 319 318 311 312 299 301 315 323 321 320 321 319 306 317 300 299 322 319 317 314 315 315 314 307 309 309 308 322 320 316 314
323 323 332 329 327 325 325 325 324 321 320 318 316 316 314 312 307 301 304 324 322 320 319 318 317 300 297 297 306 322 316 315 311 316 316 315 316 316 319 320 323 321 318
322 329 328 327 326 326 324 323 322 320 316 315 314 315 316 314 303 300 301 309 313 322 319 318 314 297 297 298 308 298 300 309 318 316 315 314 314 316 318 320 321 322 323
319 326 325 326 325 326 324 322 320 319 318 316 316 315 314 313 311 299 299 299 304 319 321 310 298 295 295 298 297 298 303 318 317 315 314 315 316 316 316 316 318 321 321
316 323 324 323 322 324 324 323 321 321 319 319 317 316 315 315 315 312 310 309 303 307 303 305 302 303 303 304 306 312 319 319 317 316 315 315 316 316 315 316 315 317 317
317 321 323 322 322 314 308 316 323 321 320 320 320 318 315 314 316 310 312 317 316 309 309 312 312 312 312 314 316 317 318 318 316 316 315 315 315 315 314 316 316 316 317
320 322 321 320 317 314 313 308 294 297 298 300 304 313 313 304 299 298 297 298 297 299 315 314 313 314 314 315 316 315 317 314 317 317 316 315 314 314 313 313 315 315 316
321 321 319 317 318 317 317 316 310 302 295 293 295 297 299 298 296 297 295 294 295 302 316 315 314 315 316 317 317 317 315 316 318 317 316 317 316 314 311 313 314 314 313
322 308 320 319 319 319 319 318 317 316 316 312 296 297 293 293 294 293 293 300 310 311 317 316 316 317 317 316 316 315 316 316 316 317 316 316 316 314 313 313 314 314 314
321 321 321 321 321 317 318 318 318 319 316 310 305 298 293 292 292 293 297 316 315 315 315 316 318 318 318 318 318 317 318 317 316 316 317 317 316 315 315 315 314 302 306
320 305 312 317 317 316 316 316 315 314 313 314 313 306 302 307 310 312 315 315 314 316 316 317 318 319 319 320 320 319 317 315 316 317 317 317 317 316 315 315 315 314 313
320 317 303 320 319 318 316 316 315 315 315 315 310 306 297 315 313 315 315 316 316 317 317 317 318 319 320 320 320 318 318 317 318 318 318 318 318 316 317 315 317 315 315
321 321 321 320 320 317 316 316 316 316 314 311 309 302 292 315 316 317 318 319 319 318 318 319 318 319 320 319 319 319 318 318 318 319 319 319 318 318 317 317 316 315 316
323 323 322 321 319 307 315 316 316 315 313 313 312 313 314 317 318 316 311 308 307 307 309 313 313 311 312 313 317 321 321 319 321 321 319 320 320 320 319 319 317 316 315
323 323 321 319 318 317 316 315 314 305 313 313 313 314 315 311 309 305 302 301 300 300 300 300 300 301 303 303 305 306 309 313 318 322 320 320 321 316 322 320 320 320 320
323 322 321 320 319 317 315 314 314 314 313 313 312 307 305 302 300 298 297 296 296 295 294 294 295 295 294 294 295 296 289 288 304 299 316 317 316 313 312 311 308 306 305
321 322 322 321 319 317 314 314 314 313 310 305 303 300 299 297 296 294 294 293 293 292 292 291 291 291 291 291 289 287 287 288 296 293 308 308 307 305 302 300 300 299 298

GFSGL_sfc_thetae_069.txt.gz
Theta_e
326 331 331 327 331 337 339 340 341 343 344 343 345 347 347 349 350 349 349 346 343 336 334 335 340 340 337 335 334 333 331 331 326 328 329 331 332 332 330 332 331 333 332
321 326 331 328 329 336 338 338 340 343 343 342 345 346 347 348 349 347 345 344 340 333 334 339 338 336 337 337 334 334 333 333 329 328 326 328 329 331 331 330 329 331 332
318 321 325 330 329 335 337 338 341 342 342 343 344 345 346 347 347 346 345 341 338 335 336 339 338 337 336 334 334 333 333 332 331 329 326 328 327 330 326 327 325 329 331
315 315 320 332 329 334 337 341 342 341 342 343 344 345 346 347 346 345 343 338 334 333 336 339 337 336 336 335 334 335 334 331 330 328 327 325 325 326 328 321 321 325 325
311 312 319 335 328 332 336 340 341 342 343 343 344 346 347 345 342 344 339 334 334 334 338 336 337 333 326 330 334 335 334 331 328 327 324 323 322 320 323 324 323 322 323
311 312 318 336 328 333 337 339 341 341 342 343 344 344 345 341 312 316 330 335 336 336 335 335 336 324 322 314 316 319 328 332 327 326 322 324 323 322 323 326 322 320 319
310 312 320 335 332 334 337 339 338 338 339 341 344 344 344 343 308 310 316 336 337 337 337 336 333 332 327 330 313 311 314 313 319 329 323 326 326 321 323 321 320 324 321
309 313 322 333 334 336 337 335 337 337 338 340 341 344 342 336 305 306 312 338 337 337 337 336 335 334 332 331 330 329 330 330 326 327 325 329 328 324 328 324 327 325 323
309 317 322 331 332 332 332 335 337 336 337 338 341 336 332 319 302 303 319 336 334 334 334 334 334 333 309 305 329 325 324 325 308 308 310 310 308 309 320 324 317 318 319
314 321 323 329 332 333 336 336 335 335 335 336 328 336 320 324 298 302 320 333 332 331 332 330 306 322 299 300 329 324 321 319 317 317 316 311 311 313 308 327 321 318 319
315 323 325 330 332 333 332 332 332 331 332 326 322 323 326 324 311 301 306 333 331 328 326 323 324 302 298 298 306 326 320 319 315 319 318 319 322 321 322 326 329 327 322
319 322 328 333 332 330 329 329 329 329 326 322 323 321 320 319 308 301 303 313 316 328 326 325 320 298 296 297 308 300 300 311 320 319 317 317 318 319 322 324 326 328 328
322 322 329 330 328 328 326 325 325 325 323 323 324 320 318 319 317 299 300 302 307 327 328 314 298 295 296 301 297 298 302 321 319 318 316 316 319 323 324 323 327 327 326
320 321 328 325 325 327 326 327 326 325 326 325 322 320 319 319 319 317 315 313 304 314 305 310 306 305 303 306 306 311 324 325 323 320 320 321 321 319 318 322 322 322 321
319 323 323 324 324 319 319 328 331 333 325 325 325 324 320 320 321 313 315 323 325 313 312 314 315 314 313 316 319 323 324 321 321 321 320 319 318 318 317 318 320 322 321
319 322 321 319 318 320 318 312 295 300 300 301 306 318 323 307 299 299 298 298 297 299 317 315 314 314 315 317 318 319 322 317 320 320 319 318 316 315 315 318 320 321 318
320 322 321 317 319 321 321 319 312 302 295 294 296 299 302 301 296 296 295 295 296 304 319 316 315 316 317 318 319 321 321 321 321 319 319 318 318 317 314 317 318 317 318
325 308 321 323 325 325 325 322 321 318 316 313 296 300 295 296 295 294 294 299 312 313 320 317 316 318 319 319 319 321 322 321 320 319 319 320 321 317 315 317 320 318 320
321 323 326 326 326 323 324 323 323 321 319 312 307 299 295 293 293 293 297 319 318 317 317 318 319 319 321 322 323 320 320 319 319 320 319 319 319 318 318 316 316 302 307
323 309 318 325 322 322 323 322 321 319 318 319 318 308 305 309 313 317 320 320 320 319 317 319 320 321 322 321 320 320 320 319 319 319 319 319 319 318 317 317 317 316 315
323 322 307 324 321 321 321 320 320 320 320 319 314 307 297 318 317 319 320 318 318 319 317 319 321 324 323 325 323 322 320 320 320 320 319 319 319 318 320 320 319 318 318
326 326 328 326 322 320 320 320 320 319 317 314 309 302 292 319 321 321 320 320 322 323 321 320 321 323 326 325 322 321 320 320 320 320 320 320 321 320 319 319 318 317 318
329 328 325 321 321 310 319 321 319 317 314 313 312 314 318 320 319 312 308 307 310 310 311 313 314 312 313 317 324 324 322 321 322 323 322 321 321 320 320 319 320 318 318
329 328 322 320 320 319 320 318 316 307 314 315 316 318 318 311 306 304 300 301 300 302 300 300 300 302 303 307 310 310 317 316 325 325 324 323 322 317 323 322 320 321 320
329 328 325 319 318 317 316 316 315 315 315 314 312 308 306 303 299 298 297 296 297 296 296 297 296 296 298 300 302 303 291 289 310 302 319 318 313 311 311 310 308 306 306
329 327 322 320 318 317 316 316 315 312 310 307 305 301 300 298 296 295 294 294 292 291 291 293 293 292 292 292 292 288 288 289 295 292 308 305 304 302 301 299 299 298 298

GFSGL_sfc_thetae_072.txt.gz
Theta_e
323 326 327 329 333 338 339 339 343 349 346 345 349 350 351 350 352 353 355 353 351 351 351 347 346 348 344 341 339 338 335 333 327 333 337 336 335 334 335 336 338 338 336
321 322 325 328 329 333 339 339 341 343 344 344 346 348 347 348 352 352 352 351 350 348 345 345 343 343 345 344 339 340 337 337 331 331 333 330 332 336 335 334 333 336 338
318 319 323 325 326 329 337 340 340 341 342 344 345 346 345 347 350 352 352 350 350 349 346 345 344 344 343 340 339 337 336 335 335 331 330 330 334 335 333 331 331 333 333
316 318 320 323 325 326 336 340 339 340 341 343 346 346 345 346 349 350 350 349 349 347 346 345 345 343 341 340 339 338 337 336 334 331 330 328 330 333 332 327 325 329 328
314 315 318 322 324 325 334 339 337 341 342 345 346 345 346 347 347 349 348 348 348 345 345 343 344 338 330 333 336 338 340 335 331 329 328 328 328 326 329 328 323 325 327
312 312 318 322 321 323 333 337 338 341 346 347 346 344 347 345 315 319 339 348 345 343 340 341 341 328 327 319 320 318 329 338 334 330 332 328 328 327 331 327 326 323 322
309 313 316 319 319 322 331 334 338 347 352 350 349 346 348 347 312 313 319 346 345 343 340 340 337 335 331 336 315 312 315 314 318 335 332 331 329 330 327 329 327 325 324
310 312 316 317 317 321 333 334 345 349 351 350 350 349 348 343 308 309 315 345 342 341 341 340 339 337 336 336 335 333 334 333 333 332 334 332 332 335 330 330 328 328 327
308 313 315 316 317 321 333 340 347 346 348 349 347 347 347 335 305 307 324 342 339 338 338 339 339 338 313 308 333 330 332 331 311 306 307 308 306 311 320 327 322 320 320
310 313 312 314 318 321 334 340 343 341 342 344 345 348 332 337 302 307 323 334 336 334 338 338 310 325 302 302 333 330 326 327 325 326 326 316 313 318 308 331 323 318 319
309 312 314 314 321 329 335 336 337 339 340 340 340 341 339 332 313 304 305 334 332 332 333 334 333 302 299 300 303 331 326 325 315 322 322 324 326 325 326 328 325 323 319
311 311 314 319 328 332 338 338 338 336 332 332 330 333 331 329 311 305 302 312 319 334 333 333 328 299 298 299 309 300 301 312 324 322 318 318 319 320 323 327 332 332 329
313 318 322 327 334 332 333 331 331 333 330 329 331 323 325 329 327 301 300 304 309 332 334 317 299 296 296 300 298 298 302 322 322 318 317 318 321 322 324 325 328 328 328
313 317 326 328 330 330 330 330 329 330 331 333 327 325 329 328 327 328 327 325 308 321 310 317 312 309 305 313 310 309 324 325 323 324 322 320 323 323 322 324 324 325 323
315 322 322 328 328 324 321 326 329 333 328 328 330 332 329 329 328 320 322 330 331 320 321 321 320 318 317 318 319 323 325 325 324 325 324 323 321 322 323 327 326 326 322
314 320 322 319 317 319 318 314 298 306 303 303 309 323 329 310 301 301 299 298 299 301 324 322 319 317 317 318 322 323 324 320 324 324 323 322 320 319 320 320 321 323 320
317 320 319 318 321 322 323 320 316 308 296 295 297 302 305 304 298 297 296 296 297 302 325 321 319 318 317 323 322 323 323 324 326 325 322 321 319 318 317 321 323 324 324
316 308 321 323 324 325 324 324 325 325 321 316 299 305 296 295 295 294 295 302 316 317 324 320 318 319 320 324 323 325 325 324 324 322 322 321 320 318 319 319 322 320 318
319 322 323 325 326 324 330 329 329 328 325 317 311 302 296 293 294 295 298 324 321 322 322 320 319 320 322 322 325 326 325 324 322 321 322 322 322 319 318 319 320 303 309
321 311 316 328 329 329 328 326 325 324 323 324 321 311 310 312 316 317 321 321 322 321 320 321 321 322 326 326 325 324 324 320 322 322 322 322 321 320 320 319 320 318 319
324 325 311 327 328 327 326 325 326 326 325 324 321 317 303 324 322 320 320 322 322 320 320 321 323 326 327 325 324 322 323 324 324 323 323 323 322 319 320 321 319 320 320
326 327 328 327 327 326 327 328 327 325 325 321 316 316 292 323 323 323 321 321 322 324 324 323 324 326 327 327 325 325 324 324 323 323 322 322 322 322 322 321 321 321 321
328 326 327 327 329 315 325 327 325 325 323 318 317 314 322 322 322 317 314 316 314 313 313 316 318 320 327 329 328 327 324 324 324 324 323 322 322 324 324 320 320 319 320
330 329 328 327 327 325 323 322 322 314 321 317 317 319 318 318 308 304 306 305 306 304 304 302 304 307 309 320 322 320 322 323 326 325 325 324 323 318 322 320 319 319 318
331 329 328 325 322 321 319 320 318 318 317 316 313 311 310 308 302 298 299 299 302 298 299 299 300 302 304 308 313 310 294 290 318 305 324 314 311 310 310 309 306 306 307
330 328 322 322 321 320 318 317 315 313 310 308 309 308 305 301 299 296 294 297 299 297 295 295 296 297 299 296 293 288 288 289 300 293 309 308 305 302 301 300 300 300 299

GFSGL_sfc_thetae_075.txt.gz
Theta_e
321 324 324 326 328 331 335 338 342 347 347 345 345 352 355 360 363 361 358 352 350 354 355 355 353 357 346 345 342 341 334 334 330 337 337 341 339 337 337 338 338 339 337
318 319 322 325 325 330 331 334 339 342 345 346 345 344 350 353 358 355 353 348 351 352 353 350 351 347 351 353 344 348 338 348 334 339 337 335 334 338 337 336 334 335 339
315 316 319 325 325 329 332 333 334 339 343 343 343 344 348 351 354 355 352 350 354 353 351 351 350 349 350 349 345 341 337 338 336 332 335 339 334 338 334 335 335 335 336
313 312 315 321 324 326 329 331 334 335 342 341 344 343 347 351 352 352 351 353 355 353 354 351 347 348 347 346 345 343 342 339 337 338 336 334 332 336 333 330 326 333 331
312 311 313 319 320 323 327 330 332 335 344 340 341 345 348 350 348 351 353 354 355 353 353 348 350 344 333 339 339 343 342 336 334 335 333 334 330 329 329 331 327 329 329
311 310 312 314 316 321 326 330 330 333 344 341 341 343 347 347 322 323 343 354 354 351 349 347 346 333 329 323 320 318 330 340 336 337 334 330 333 332 336 331 327 323 322
311 310 312 313 313 318 323 326 329 334 343 343 345 347 350 353 312 314 321 355 352 350 347 347 342 339 333 338 317 315 316 316 320 338 335 334 327 334 333 331 332 325 329
310 310 310 309 312 317 321 325 331 334 341 343 347 352 353 350 310 312 318 354 351 348 348 346 344 341 337 336 335 333 334 335 333 333 337 337 338 338 334 335 335 332 331
308 308 307 307 308 316 321 326 330 336 340 344 348 350 350 341 307 311 328 349 346 345 344 343 342 339 316 311 336 334 333 330 311 307 307 307 307 308 319 331 330 327 323
308 308 307 309 312 317 321 323 329 334 340 346 348 349 337 342 304 310 329 343 342 340 342 337 310 329 304 307 336 334 329 331 330 329 328 319 315 314 311 332 328 326 324
307 308 309 311 314 320 322 320 328 331 341 344 345 347 349 339 326 310 307 342 338 336 334 335 334 303 301 301 306 335 329 329 321 328 327 326 328 326 326 329 330 326 320
310 312 313 316 318 321 319 318 321 330 336 342 342 341 343 340 317 303 304 314 321 335 331 333 322 299 298 300 310 301 303 315 325 323 322 323 322 325 326 330 330 328 328
312 313 313 315 315 315 316 316 321 332 332 334 335 332 331 335 328 302 304 304 308 334 334 311 300 297 298 304 299 299 304 326 323 322 320 319 320 323 325 327 330 328 327
311 313 312 311 313 319 316 320 330 331 330 332 331 328 329 331 329 332 326 324 312 320 311 321 314 312 310 315 314 312 326 326 322 324 323 324 323 322 322 326 325 326 324
311 312 312 314 313 314 318 328 332 333 332 336 337 334 332 329 331 323 326 332 333 323 324 325 323 323 322 322 323 324 325 325 325 325 325 322 321 320 322 326 325 327 323
312 314 315 320 320 321 318 311 298 301 302 305 313 326 331 313 303 301 298 300 303 305 325 325 321 321 322 321 322 326 326 321 324 325 324 322 322 320 324 325 325 324 322
317 314 316 319 321 322 321 318 314 307 300 298 302 305 308 306 297 296 297 298 299 305 326 323 320 320 322 324 325 326 323 326 326 324 323 323 323 322 320 321 321 322 324
316 306 315 323 323 323 324 326 327 325 322 319 299 303 297 297 296 295 297 305 319 317 326 323 322 321 323 323 325 326 324 325 325 325 324 324 322 320 319 320 323 322 323
317 318 323 325 326 324 328 329 328 327 323 315 311 302 297 294 294 296 301 326 323 324 325 323 323 323 323 325 327 325 325 324 323 324 323 322 322 320 320 321 321 304 309
319 308 313 327 328 330 326 329 328 325 324 323 317 310 307 310 314 318 323 324 324 325 325 323 322 322 322 327 326 327 326 324 324 323 323 323 324 322 320 320 321 320 321
321 321 306 328 329 328 328 328 327 327 325 322 318 314 301 322 320 322 324 322 325 324 325 325 323 325 326 328 327 324 326 324 324 324 324 324 323 321 321 323 320 321 321
323 324 327 328 329 329 330 329 328 326 324 322 323 318 294 324 322 322 322 326 327 325 325 326 327 327 328 328 326 325 324 324 325 324 324 324 323 321 321 321 320 319 319
326 326 327 329 329 316 327 329 327 323 323 322 322 322 324 325 322 319 317 319 319 317 317 322 322 327 330 330 330 327 325 325 325 326 324 323 323 324 324 324 321 320 320
328 328 328 329 329 328 328 325 323 314 323 324 324 322 318 318 315 312 311 308 307 304 305 307 309 311 326 327 328 327 321 326 328 327 327 325 324 321 324 323 320 316 318
327 328 326 327 326 325 325 323 323 322 321 319 319 316 313 307 304 304 305 303 302 301 300 301 305 306 309 319 319 317 294 291 315 306 322 319 315 316 311 307 306 306 307
331 328 327 325 323 322 321 321 318 317 314 313 313 313 307 299 298 298 300 299 297 296 295 296 298 298 297 299 295 289 288 291 304 294 310 308 305 303 302 301 300 299 300

GFSGL_sfc_thetae_078.txt.gz
Theta_e
326 327 327 327 330 331 332 332 334 337 337 340 339 339 336 341 353 352 351 351 350 351 349 347 346 349 348 345 343 342 337 335 328 330 335 338 335 333 334 333 333 333 331
322 322 325 327 326 328 329 330 332 332 334 336 338 340 339 336 345 351 351 352 350 349 347 346 347 350 348 345 342 339 336 337 331 327 332 332 332 333 333 331 331 333 333
316 316 318 323 325 323 326 328 330 330 330 333 335 338 339 340 337 347 352 354 349 348 346 347 348 348 346 343 343 340 337 336 336 331 330 332 331 332 331 331 331 330 333
315 315 318 319 319 320 322 324 325 326 329 331 332 335 338 339 341 343 349 352 348 347 349 349 348 347 345 344 341 338 336 334 333 330 330 330 328 331 330 326 323 328 328
315 314 316 317 316 316 316 319 321 323 326 329 331 332 339 337 341 342 347 349 347 347 350 350 348 343 336 340 341 338 336 334 331 330 327 327 326 326 325 327 324 325 327
316 314 315 315 313 313 314 316 318 319 323 327 329 331 336 337 323 320 339 348 347 347 348 348 346 332 329 322 319 322 332 335 331 329 328 325 325 326 328 326 325 321 319
316 315 314 314 312 312 314 314 314 316 322 325 327 331 336 336 317 311 320 348 348 348 348 345 342 340 330 327 317 319 316 319 323 332 328 327 326 329 327 325 325 321 320
314 314 313 312 311 311 312 311 311 315 320 323 326 330 336 337 316 306 315 347 347 346 347 345 342 338 336 335 332 331 330 328 327 330 332 331 331 332 329 329 327 325 325
311 312 312 312 310 310 310 308 309 311 318 322 326 330 335 338 308 306 321 345 343 345 346 345 342 338 315 314 333 330 330 324 309 308 307 306 307 305 315 327 324 322 320
310 311 311 311 310 309 309 309 310 315 318 323 326 331 330 338 303 306 330 344 342 342 343 340 318 334 305 308 334 332 328 327 325 324 323 316 316 314 310 326 325 322 319
311 310 309 310 310 309 308 308 309 314 318 321 324 330 335 337 319 306 317 344 342 340 338 334 328 305 304 303 314 333 328 329 321 326 326 325 326 324 325 327 327 325 321
309 308 309 309 309 310 309 310 313 317 318 319 321 327 335 336 317 306 309 324 325 337 335 334 316 300 299 301 314 300 304 317 327 325 323 323 323 323 324 326 325 326 326
307 306 308 309 310 312 312 313 314 317 317 317 319 327 332 334 319 308 304 309 314 333 333 314 298 297 298 302 299 300 305 325 323 320 318 320 320 321 323 324 326 326 325
306 306 307 308 310 313 314 315 315 315 316 316 319 328 331 327 323 322 318 315 307 310 307 312 311 310 310 309 311 311 326 325 322 321 320 321 322 320 319 322 321 323 322
305 306 307 309 310 311 313 314 316 318 315 321 327 330 329 328 328 320 323 329 329 319 318 321 322 322 320 321 322 323 325 324 322 323 322 320 320 320 319 321 321 322 320
306 307 308 309 311 312 313 315 298 303 305 305 310 325 330 314 305 304 303 303 304 307 323 322 320 320 320 321 321 321 323 320 324 323 323 321 320 319 318 320 322 321 320
307 307 309 310 315 315 313 313 309 303 299 298 303 305 306 301 298 299 301 302 302 309 325 321 319 319 320 320 322 323 323 323 324 323 322 321 321 319 315 321 322 321 320
311 305 315 319 319 317 316 322 325 324 318 313 300 304 297 296 297 299 299 306 318 318 325 321 319 319 322 323 325 325 324 325 324 322 322 321 322 320 319 319 320 319 319
315 316 317 322 324 322 325 324 324 320 313 308 307 301 296 295 296 298 303 324 322 324 323 322 321 322 324 324 326 324 324 324 323 323 322 321 321 319 318 318 318 300 309
316 306 308 324 324 326 325 323 321 320 319 318 315 310 311 315 320 322 326 324 324 324 322 322 321 323 325 326 326 322 321 321 321 321 322 321 321 320 319 318 320 319 319
319 322 303 327 325 326 326 324 324 323 319 316 314 315 301 322 322 323 324 323 324 324 323 321 322 323 326 327 326 325 323 323 323 322 322 322 322 319 320 320 318 318 319
318 322 325 326 326 325 326 326 324 322 319 317 317 309 295 324 323 321 321 322 324 325 326 325 325 325 325 327 326 325 323 322 323 322 321 321 321 321 320 320 319 319 318
318 325 323 323 324 313 324 326 322 323 322 321 321 320 321 321 318 316 315 315 315 316 322 323 326 327 328 325 326 326 325 323 324 325 323 321 321 320 321 320 319 319 317
318 325 323 324 326 326 326 324 322 313 322 322 321 320 318 314 310 308 307 305 305 305 308 310 308 313 321 321 320 319 318 322 326 326 325 323 322 319 318 314 312 311 313
327 325 327 326 326 325 322 321 322 322 320 318 316 314 311 307 304 302 301 300 299 299 300 302 302 303 303 305 307 309 294 294 311 302 315 311 310 308 306 305 304 304 305
327 328 327 326 325 324 322 320 319 318 315 312 309 306 304 302 301 298 297 296 294 293 295 295 295 296 296 295 294 289 290 292 299 295 307 305 303 301 301 299 299 299 299

GFSGL_sfc_thetae_081.txt.gz
Theta_e
315 314 313 313 316 320 320 322 325 326 330 331 332 333 333 332 331 337 344 343 342 342 343 344 345 347 343 340 339 336 331 328 323 327 329 329 328 327 328 329 330 328 327
314 312 312 315 315 314 315 319 322 322 326 328 329 330 331 332 333 329 334 346 345 343 344 344 345 346 344 341 339 334 330 328 325 323 325 326 326 327 327 325 327 330 328
310 309 306 308 310 309 312 315 318 321 321 322 325 326 327 330 333 335 331 339 345 346 346 345 345 342 341 343 336 332 330 331 327 324 323 325 324 326 324 325 325 325 330
309 307 306 306 307 308 310 310 311 314 316 318 320 323 327 328 328 333 336 332 341 347 347 345 342 343 342 342 336 332 330 328 327 324 323 322 322 324 324 321 319 322 321
308 307 307 309 310 309 309 309 311 312 312 316 317 318 321 325 328 329 333 335 335 341 344 345 344 343 336 337 337 331 328 325 324 321 321 320 320 321 321 320 318 319 320
308 307 308 309 309 308 308 309 309 310 311 313 314 314 317 323 316 313 319 332 337 342 342 342 345 332 330 324 324 327 329 326 323 322 319 318 318 320 321 320 318 317 318
310 311 311 310 310 309 309 308 308 308 308 308 311 313 315 320 311 310 313 325 335 341 343 342 342 343 329 330 318 316 319 319 324 325 321 320 320 322 322 319 319 317 317
309 310 311 310 309 308 307 306 305 305 304 306 307 310 312 319 310 308 310 324 330 341 341 341 338 329 328 326 327 327 324 324 323 328 325 324 324 325 324 323 321 319 321
308 308 309 310 307 306 304 303 303 303 303 305 306 307 309 316 309 307 311 326 329 336 340 340 336 332 312 315 327 325 321 318 308 306 308 307 305 306 315 322 319 319 318
306 307 309 309 307 304 304 303 303 303 305 306 307 311 312 317 312 307 311 326 329 335 337 334 318 329 307 309 328 325 320 317 317 316 315 312 311 311 308 322 321 320 317
306 306 308 306 305 305 305 305 304 305 305 305 306 310 316 318 321 308 308 322 332 334 335 332 329 307 305 305 316 326 322 320 315 319 318 318 317 317 320 322 322 322 320
305 305 305 304 305 306 304 306 306 306 306 306 307 309 315 318 313 312 305 303 321 335 332 330 319 305 303 302 313 302 304 314 321 318 317 315 316 316 320 322 321 324 324
303 302 303 304 305 306 305 305 306 307 307 308 310 312 314 317 320 309 302 302 309 333 332 315 301 300 299 303 299 302 307 320 318 316 317 317 316 318 319 322 324 323 322
301 303 304 304 304 306 307 308 308 308 308 309 310 311 312 315 321 317 314 313 309 312 307 307 308 308 308 306 308 311 320 318 316 315 315 318 319 316 316 320 320 320 319
302 303 304 305 305 305 306 307 309 310 309 309 311 312 312 315 322 317 319 324 321 315 315 318 318 316 316 317 315 316 318 318 317 316 315 315 315 317 316 319 320 320 318
301 302 304 305 305 306 306 307 300 298 297 298 300 309 318 311 304 303 306 303 303 305 320 319 317 316 316 317 316 315 321 316 316 318 318 315 317 317 314 317 319 318 315
302 303 304 304 306 306 306 305 304 302 297 298 296 299 297 305 301 303 302 301 301 310 319 318 318 317 318 319 318 315 316 317 319 320 319 318 318 318 313 318 318 316 315
303 301 304 306 310 309 307 308 309 309 308 306 297 303 298 301 302 301 300 306 317 317 318 316 316 317 318 318 318 318 317 318 317 317 319 319 319 317 313 315 316 315 316
304 308 313 317 311 311 312 311 312 314 313 305 307 302 298 297 299 300 303 321 319 317 316 316 317 320 320 320 320 319 319 319 317 316 316 316 318 317 315 316 314 299 306
308 303 306 318 319 319 318 317 315 313 315 317 315 310 310 313 319 320 320 321 319 318 317 317 319 320 319 320 319 318 317 317 318 319 319 318 318 318 316 316 317 315 315
305 311 302 323 322 320 320 318 319 317 316 316 316 314 301 321 320 319 321 320 319 318 318 318 321 322 319 320 319 318 319 317 316 318 318 319 319 317 318 317 317 317 316
303 312 322 324 323 322 320 318 317 317 317 316 316 308 297 320 319 320 321 322 321 319 321 321 321 321 320 323 322 321 318 317 317 317 319 319 319 318 317 317 317 316 315
304 312 323 322 321 311 317 318 318 318 318 318 319 319 317 316 315 315 314 314 315 314 315 317 320 320 323 322 323 322 321 319 318 319 319 319 318 318 318 317 317 316 314
305 320 322 323 321 319 318 317 317 311 318 317 315 313 311 309 307 306 306 307 307 306 305 307 309 316 316 316 315 315 321 323 322 319 319 320 319 312 314 311 311 310 307
310 322 322 322 320 319 318 319 318 316 313 311 308 306 304 303 301 300 300 300 301 300 300 301 302 304 307 309 309 306 295 293 308 301 312 311 308 306 305 304 304 304 305
323 323 321 319 319 318 316 313 311 308 305 304 303 302 300 298 297 296 296 295 294 294 295 295 296 297 297 297 296 291 291 292 297 294 306 304 302 301 300 299 298 297 296

GFSGL_sfc_thetae_084.txt.gz
Theta_e
311 311 314 315 316 317 317 317 319 321 324 326 327 327 329 331 332 330 333 338 338 339 339 338 337 338 339 342 341 338 332 327 327 324 327 326 325 326 328 328 329 327 326
313 312 311 310 310 311 312 314 315 316 319 322 326 325 327 326 327 329 330 332 335 338 339 338 339 342 341 342 340 337 336 331 325 323 325 325 323 323 324 325 327 329 327
312 312 310 310 309 311 309 309 312 312 313 315 317 319 321 324 325 326 328 331 332 333 342 340 341 342 341 344 342 338 333 331 325 323 322 323 322 323 322 322 323 323 326
311 308 307 305 307 305 306 308 307 308 308 309 310 314 316 317 319 322 324 324 327 332 334 342 344 343 343 343 341 338 331 329 325 322 320 321 320 322 322 320 319 320 320
309 307 306 305 305 305 306 306 306 307 308 309 309 311 313 314 315 314 318 321 323 327 331 335 342 342 335 337 342 336 329 326 322 320 319 318 318 319 320 319 318 317 318
306 305 306 307 306 306 306 306 306 307 307 307 308 310 311 313 306 307 312 318 322 323 325 331 339 332 330 322 322 322 329 327 323 320 318 317 317 318 318 318 316 314 313
306 308 308 307 307 307 308 307 306 305 305 305 307 308 308 309 304 303 306 314 318 321 324 328 334 343 331 339 318 317 318 315 321 323 320 319 318 320 319 317 316 315 314
306 307 308 309 308 308 307 306 306 305 305 305 306 306 306 307 302 301 303 310 317 322 324 326 331 338 335 335 328 329 327 326 323 326 325 324 322 322 323 322 320 316 316
305 306 308 309 308 308 307 307 306 303 302 303 304 305 304 305 301 300 302 310 316 318 323 327 332 338 318 308 331 326 322 318 308 307 311 308 306 307 315 320 317 315 314
303 305 306 306 307 307 307 306 305 304 304 305 304 303 304 304 301 300 302 312 315 320 325 329 316 328 306 307 329 325 321 318 318 317 315 310 310 309 307 321 319 315 313
302 304 304 305 304 304 305 304 302 302 303 302 303 304 304 305 305 301 301 312 317 321 323 327 330 307 306 304 311 325 320 319 316 317 315 316 315 316 317 318 319 319 315
301 301 302 303 304 305 303 302 302 302 301 302 301 302 304 305 303 303 301 301 310 319 321 327 326 306 305 302 311 305 304 311 319 316 314 315 313 313 316 318 319 322 324
300 301 301 302 303 303 302 302 302 303 303 302 302 302 304 308 309 304 301 300 300 309 320 321 309 303 301 305 304 300 306 321 317 317 317 316 314 316 319 322 322 321 321
300 301 301 301 301 302 302 302 302 302 302 302 303 303 306 310 312 314 315 316 303 306 309 311 309 309 309 309 308 314 322 320 318 319 318 314 319 319 318 319 318 319 318
299 299 300 301 301 302 304 304 304 305 304 304 306 307 308 308 311 308 310 318 319 313 312 314 318 320 318 319 319 318 317 317 314 313 313 317 317 316 317 319 317 318 317
299 299 300 301 302 303 303 304 299 299 299 297 299 305 310 304 301 297 298 302 300 300 319 320 320 320 319 319 318 317 316 313 314 315 313 313 313 314 315 317 316 317 316
299 299 300 300 301 302 302 303 303 301 297 296 296 297 298 304 295 296 297 296 299 304 321 320 318 319 319 319 317 319 318 315 316 316 315 314 313 313 311 316 317 316 314
300 298 300 301 302 302 303 302 302 304 304 304 297 297 296 295 294 296 295 302 314 317 321 319 317 318 318 316 316 315 315 316 317 316 315 318 316 316 312 314 316 316 313
300 302 304 305 306 306 306 304 303 303 304 306 307 296 296 293 294 297 298 321 320 319 319 318 317 317 317 317 317 316 317 317 315 316 316 317 318 316 313 312 313 300 305
303 298 298 305 312 308 307 304 303 304 306 308 309 305 301 301 303 309 319 321 319 317 316 316 317 317 317 318 318 318 315 314 315 315 316 314 317 317 313 314 316 313 314
297 299 296 314 316 313 308 307 307 308 310 312 309 308 302 317 320 320 319 318 317 316 316 317 319 320 321 320 318 318 317 316 316 319 316 317 317 316 316 316 316 317 316
296 299 307 319 317 317 315 316 314 315 314 314 313 304 299 321 320 319 318 317 317 318 318 320 321 321 321 319 319 318 317 315 314 314 316 318 318 317 317 316 315 315 314
298 304 317 317 317 308 317 317 316 317 317 317 318 318 319 319 318 318 318 316 315 315 319 321 321 319 322 322 322 321 318 316 316 317 316 318 318 317 316 316 315 314 312
301 309 319 318 318 318 318 317 315 307 315 314 313 312 312 312 310 309 309 309 309 308 311 315 317 317 316 315 316 317 317 317 317 317 317 318 315 311 313 312 310 308 306
309 321 319 319 318 317 316 314 313 312 311 310 308 306 305 305 303 303 303 303 303 302 302 305 308 310 311 312 311 307 293 293 308 301 312 311 307 306 306 306 305 304 304
321 319 319 317 315 313 311 309 307 307 305 303 302 301 300 299 298 297 298 298 297 298 298 298 299 301 300 299 297 291 291 292 298 295 307 306 303 301 300 298 296 295 294

GFSGL_sfc_thetae_087.txt.gz
Theta_e
310 312 313 313 314 315 314 316 320 319 321 322 321 322 324 326 327 328 327 328 333 333 335 335 335 337 335 334 335 335 334 333 329 333 327 328 327 327 329 328 330 328 326
310 310 312 313 313 313 314 314 316 317 317 317 319 319 320 322 323 324 325 327 328 329 332 335 335 337 335 336 336 337 337 336 332 329 326 325 324 323 325 324 326 329 326
309 308 308 310 309 309 310 312 312 311 312 313 313 313 314 317 318 320 323 325 327 327 329 331 334 337 335 337 337 337 337 336 332 327 325 323 323 322 321 321 322 322 325
309 308 308 308 309 310 311 310 310 310 307 307 308 310 313 314 314 315 316 315 319 322 326 328 331 333 337 339 337 338 337 333 330 326 322 321 321 320 321 319 319 319 320
306 308 308 309 309 310 307 308 308 306 307 306 307 308 309 311 313 311 311 310 311 316 321 324 325 326 325 327 339 340 340 333 328 324 320 318 318 320 321 319 319 317 317
304 304 306 305 304 304 305 306 306 306 305 306 306 307 307 311 307 305 308 307 309 312 314 318 322 322 323 318 318 322 335 334 326 324 321 318 317 319 319 319 316 314 313
305 306 306 305 305 306 305 304 304 304 304 304 305 305 306 306 303 302 304 306 308 308 311 315 319 325 322 329 325 315 316 315 321 327 323 319 317 320 320 316 315 314 314
305 305 306 307 306 305 305 305 304 303 302 304 304 305 305 306 302 300 301 304 305 307 310 314 319 320 321 322 331 333 331 328 323 326 327 323 326 325 325 322 320 315 314
303 304 305 305 305 305 305 305 305 305 304 304 304 305 304 304 301 299 300 303 304 306 311 315 318 319 313 306 324 332 330 324 310 308 310 310 307 305 314 320 315 314 313
301 303 304 304 304 304 304 304 305 305 305 305 305 305 305 304 299 298 299 304 304 307 309 314 310 314 308 305 320 332 326 322 318 318 317 310 310 310 306 320 317 313 312
301 301 301 301 302 302 302 303 303 302 304 304 304 305 303 302 301 298 298 304 305 306 309 313 318 305 303 302 303 329 324 321 316 320 318 317 316 315 317 320 318 317 314
300 300 300 300 301 302 300 301 302 303 302 301 300 299 300 301 300 298 298 298 302 307 309 315 316 303 302 299 304 307 304 312 320 317 316 315 312 313 316 317 317 318 319
299 299 299 300 300 301 300 300 300 301 302 301 301 301 301 302 303 299 298 297 297 302 309 309 303 300 299 301 301 305 304 320 318 317 316 316 312 313 315 317 317 318 319
297 298 299 299 299 300 301 301 301 301 301 301 302 301 301 301 302 305 305 305 300 303 305 308 308 306 304 312 305 306 322 320 319 319 318 316 316 317 318 320 316 315 316
298 298 299 299 299 300 301 301 301 302 302 301 302 302 301 301 303 303 306 312 314 313 311 312 311 312 315 315 316 320 320 318 317 316 317 317 317 317 317 318 316 318 317
297 298 299 299 300 300 300 300 298 297 297 295 296 300 304 300 299 298 298 298 296 295 310 312 313 316 318 319 319 318 319 313 314 314 315 315 316 316 316 317 318 317 316
297 297 299 298 299 299 300 300 299 300 296 295 295 295 297 301 295 296 296 293 293 294 311 316 319 320 320 321 321 319 317 315 314 314 313 312 313 315 313 316 317 316 315
298 297 298 299 299 300 300 300 301 300 300 300 295 296 295 295 294 294 293 295 307 300 315 320 320 321 321 320 320 319 317 315 315 313 313 313 313 312 313 314 314 315 313
297 297 299 299 300 300 301 301 302 301 301 304 302 295 295 293 293 292 292 307 309 314 320 319 320 321 320 319 318 317 317 315 314 314 314 315 315 315 313 314 311 299 304
299 296 295 297 297 298 303 303 302 301 300 302 303 304 301 297 300 302 303 307 316 320 319 318 319 319 318 317 317 317 315 314 315 315 313 317 317 315 312 310 310 308 310
293 294 292 296 306 305 304 303 302 302 302 302 303 305 294 304 303 307 309 315 319 319 318 318 318 318 317 317 317 316 316 315 315 315 314 312 312 312 312 314 316 315 315
293 294 297 310 311 306 304 304 303 304 305 306 308 300 291 307 309 312 318 317 318 319 319 319 318 318 318 318 317 317 316 315 314 316 315 315 315 315 316 315 315 314 314
293 296 312 314 314 305 309 308 307 309 311 311 308 305 308 317 318 317 316 317 317 317 318 319 318 318 317 318 319 319 317 316 314 315 318 318 317 316 316 315 314 313 312
296 308 317 315 315 316 315 314 312 306 316 315 315 314 314 314 313 312 312 313 314 315 316 316 317 317 317 318 319 319 317 315 316 315 318 317 313 311 313 311 309 307 306
314 319 318 316 314 313 313 311 310 309 309 309 308 308 308 308 307 306 306 307 307 307 307 309 311 312 313 315 314 310 295 293 309 303 314 312 310 308 307 306 304 303 303
316 315 313 312 311 309 308 306 305 305 304 303 304 303 302 301 301 301 301 301 301 300 300 301 302 304 304 304 301 292 291 292 298 296 309 307 304 303 301 298 296 297 295

GFSGL_sfc_thetae_090.txt.gz
Theta_e
311 312 312 313 316 318 318 319 319 321 324 325 325 325 327 327 328 329 329 329 330 332 334 335 335 335 335 336 337 336 333 332 327 334 335 332 330 332 335 336 334 336 333
310 311 313 314 315 315 316 316 318 320 322 323 323 322 322 323 324 324 325 326 327 328 330 331 331 335 337 335 336 333 334 334 332 328 331 332 329 330 331 330 331 334 334
311 310 310 312 313 313 315 316 317 318 319 318 318 317 317 318 319 321 322 323 325 324 325 326 328 331 332 335 335 333 333 333 332 329 330 331 329 327 327 328 329 331 332
309 309 310 310 312 313 314 314 315 316 315 314 314 313 313 315 317 317 318 318 317 319 322 324 326 328 329 331 333 335 333 332 331 330 331 331 327 328 327 326 325 327 329
306 309 309 311 312 312 312 313 314 314 313 312 310 311 313 314 312 315 317 315 315 314 316 319 321 322 321 321 326 326 331 331 332 331 329 327 324 324 325 326 327 326 327
306 305 308 310 310 310 311 311 312 312 312 309 308 309 310 311 305 306 311 313 313 313 313 315 318 317 319 315 314 313 319 330 334 333 329 325 327 327 326 327 325 323 324
308 307 308 307 307 307 308 307 307 307 308 306 308 309 309 310 302 302 305 311 312 311 312 312 312 314 317 324 319 314 314 311 314 334 332 328 329 328 327 324 324 324 326
306 308 308 308 307 308 307 306 307 307 305 306 306 307 308 309 301 300 302 311 310 310 311 311 311 313 316 320 322 323 326 331 328 326 335 334 330 330 329 331 329 327 323
302 305 306 306 306 306 306 306 306 305 305 306 307 307 307 308 300 299 301 308 308 308 309 311 313 314 308 302 316 319 323 326 312 309 310 311 307 307 318 327 324 324 321
301 302 304 305 305 305 305 306 306 306 306 306 307 307 305 307 299 299 301 307 306 306 310 312 305 309 303 299 312 319 320 324 322 317 316 310 311 310 309 332 327 324 321
301 301 302 303 303 303 303 304 305 305 306 306 306 307 307 306 307 297 297 307 306 307 308 309 312 302 299 298 298 314 317 321 317 322 322 319 321 321 323 327 328 328 324
299 300 301 302 301 302 301 302 303 303 303 303 304 304 306 307 301 297 296 298 302 307 307 308 311 299 298 297 300 302 299 304 323 322 319 320 320 322 323 323 325 327 328
298 298 299 300 300 301 300 300 300 301 301 301 301 301 303 304 305 298 296 295 297 303 307 305 300 297 296 300 301 298 297 322 321 320 319 320 321 323 323 324 325 327 327
296 296 297 297 298 299 300 300 300 299 299 300 300 300 302 304 304 305 303 302 298 302 302 304 303 302 301 304 307 305 316 323 320 320 320 319 319 321 322 323 321 322 321
296 296 296 297 298 299 300 300 300 301 301 301 302 303 302 302 303 302 304 306 308 306 306 310 312 311 310 311 313 313 321 321 320 319 320 319 319 320 321 322 323 321 319
295 296 297 298 299 299 299 299 297 297 296 295 295 300 304 299 296 296 297 297 296 298 308 313 312 311 310 311 315 318 320 316 319 320 320 318 317 319 319 321 321 320 320
295 296 297 297 298 298 299 299 298 299 295 294 294 294 294 298 294 295 295 293 293 295 308 311 312 313 313 317 319 320 318 319 319 318 318 320 320 320 318 318 318 320 318
296 295 296 297 297 298 298 298 298 298 298 299 295 295 293 294 295 293 293 293 300 297 309 310 309 315 317 320 321 320 318 317 319 319 319 319 318 317 316 316 317 319 318
295 295 296 297 298 298 299 299 300 299 299 300 302 294 295 292 293 291 291 305 308 310 310 310 311 316 321 323 322 321 319 318 318 318 318 318 318 317 315 318 318 302 308
294 293 294 296 297 297 298 299 299 299 299 300 301 301 300 296 299 299 300 303 305 308 310 311 317 322 323 323 321 319 316 316 318 319 319 319 319 318 319 319 319 317 318
293 293 291 293 294 294 297 296 300 299 300 301 302 303 295 301 302 303 304 304 306 308 310 318 322 321 321 320 320 319 319 318 320 320 320 320 319 318 319 320 319 317 316
292 292 294 296 305 303 302 302 302 301 301 301 304 297 290 304 304 304 305 308 311 313 320 321 320 320 321 321 320 319 319 319 320 321 320 320 319 319 320 319 318 316 316
292 293 299 310 306 299 303 304 303 303 303 304 305 303 301 306 306 308 310 316 319 319 321 321 320 320 322 322 323 322 321 321 322 322 321 320 320 320 319 316 315 315 314
296 302 314 313 313 309 305 305 306 301 306 308 308 305 305 309 311 315 317 318 319 319 320 320 320 321 322 322 323 323 322 322 323 324 323 322 320 314 316 313 311 309 306
313 315 314 311 310 310 310 310 309 310 312 311 311 310 311 310 309 311 312 312 313 314 315 319 321 321 322 322 321 317 298 295 318 306 319 317 313 311 309 307 306 304 303
311 310 309 308 307 306 306 305 305 304 304 304 305 305 305 304 304 304 305 307 305 304 306 309 312 314 314 314 309 294 292 293 302 297 313 310 309 305 304 302 301 297 293

GFSGL_sfc_thetae_093.txt.gz
Theta_e
323 325 325 325 326 327 327 330 331 333 333 334 335 336 337 338 339 340 341 340 339 340 341 340 339 340 337 339 343 343 338 336 331 334 340 345 340 341 345 345 341 343 342
319 318 320 318 322 326 327 329 331 330 332 333 334 333 331 332 335 333 331 331 332 332 333 335 333 333 335 339 337 338 339 338 335 328 331 337 335 337 336 340 341 340 342
314 316 319 318 320 321 326 327 328 329 331 332 331 330 328 327 327 327 325 325 325 326 326 324 324 327 330 332 334 335 339 340 338 329 325 331 332 334 335 336 336 338 340
315 315 317 319 318 320 323 324 324 327 328 329 329 328 326 323 321 320 321 321 322 319 320 319 319 320 322 326 329 331 332 333 337 336 331 327 330 337 335 333 333 336 337
310 313 315 319 319 319 321 323 325 325 327 327 327 326 324 320 317 320 320 320 320 320 320 318 320 318 317 317 318 322 326 326 330 334 332 325 326 331 328 335 333 337 337
308 310 314 315 315 318 319 321 323 324 325 325 324 323 322 317 307 307 317 320 320 319 319 318 319 317 315 311 312 313 319 327 327 332 334 326 326 328 331 331 332 332 331
307 308 311 314 314 315 317 317 319 323 325 324 323 321 321 321 302 303 307 321 320 320 320 319 317 314 315 317 313 312 312 309 313 326 329 331 334 336 335 331 333 335 333
305 306 308 311 312 316 316 315 317 319 320 321 321 321 320 319 302 300 302 320 321 320 320 319 319 318 318 317 318 319 321 322 327 329 327 331 337 344 341 338 338 336 336
303 305 306 308 310 313 314 316 317 316 316 317 318 319 319 319 301 300 304 317 318 319 319 319 318 318 308 302 316 317 319 321 320 310 308 309 306 307 324 333 331 330 330
302 304 306 307 308 309 312 314 317 316 316 315 315 316 313 317 303 298 303 314 316 316 318 318 305 310 302 299 314 316 316 319 326 326 326 318 309 317 307 335 334 330 332
300 301 302 306 307 309 310 313 313 312 312 313 313 316 317 315 315 298 297 314 314 315 314 314 316 301 299 297 297 313 315 319 318 322 323 326 325 326 326 330 337 338 333
300 300 302 304 305 306 307 309 310 310 309 310 311 311 312 315 305 299 296 298 307 315 314 315 316 301 297 296 299 300 298 301 313 317 322 323 324 324 326 331 336 338 339
299 300 301 301 303 304 305 306 306 308 307 307 307 307 308 310 312 299 296 295 297 311 315 310 302 297 294 298 297 296 296 315 317 321 321 323 326 329 330 331 332 333 335
297 298 299 299 299 301 303 304 304 304 305 305 306 306 307 308 310 311 310 306 298 303 307 311 307 303 299 304 306 312 317 318 320 322 322 325 326 324 326 326 326 327 327
296 296 297 298 298 298 299 301 303 306 305 305 306 306 306 306 307 305 306 310 311 308 309 313 313 313 314 316 317 315 318 318 322 322 321 321 323 324 323 326 324 327 326
294 295 296 297 298 298 298 299 297 297 296 295 295 300 306 300 296 297 297 296 297 297 308 311 311 313 314 314 317 316 317 317 322 322 322 321 320 322 324 326 328 327 324
294 295 297 296 298 298 299 300 299 300 295 294 293 294 294 298 294 295 296 294 294 296 309 310 311 313 314 315 317 317 318 321 322 321 321 323 323 324 321 325 325 326 325
295 294 295 295 296 297 298 299 299 299 299 300 295 296 293 293 293 293 294 294 303 297 308 308 310 314 315 316 319 317 320 322 321 321 322 323 324 323 322 320 322 324 322
293 294 295 295 296 296 296 296 297 298 298 299 301 295 294 292 292 292 291 305 304 307 306 309 310 314 315 318 321 321 321 322 321 321 322 325 324 322 320 320 318 304 311
292 291 292 293 294 295 295 296 296 298 298 299 299 301 301 296 298 299 299 303 307 309 309 309 312 314 317 318 321 321 321 320 321 322 325 325 324 323 320 320 323 320 323
292 293 291 293 294 294 294 296 297 298 298 299 300 301 295 301 302 301 302 305 308 308 309 312 314 316 318 320 322 320 322 321 323 327 326 325 325 324 324 325 324 325 324
291 291 292 293 295 297 299 295 295 299 299 300 301 300 290 302 305 306 307 308 309 310 312 314 316 317 321 322 321 323 323 323 327 327 325 325 324 325 325 325 324 322 321
291 292 294 298 305 298 300 299 300 301 301 302 303 300 300 303 307 307 308 310 311 313 315 316 315 321 323 324 328 328 327 327 328 326 325 324 324 324 325 325 324 322 321
296 300 307 305 307 307 305 304 303 299 303 304 305 305 305 306 308 309 309 312 313 315 316 321 322 322 325 328 329 328 330 329 328 328 327 325 324 319 326 324 321 317 308
312 311 310 310 310 308 310 307 306 307 307 307 309 307 310 311 310 312 311 315 318 319 320 321 323 325 327 326 328 329 307 294 324 312 328 327 326 325 320 315 311 307 304
307 305 304 304 304 305 306 306 306 307 308 310 311 310 308 307 307 309 311 311 312 316 318 321 324 324 326 329 326 300 292 294 309 300 321 321 319 317 315 309 303 299 297

GFSGL_sfc_thetae_096.txt.gz
Theta_e
322 328 330 330 331 332 332 332 332 334 332 331 331 331 332 334 337 340 342 342 342 344 344 342 341 344 344 340 338 338 338 337 327 335 337 344 346 344 342 347 346 344 342
320 321 323 327 329 329 330 332 333 332 332 331 331 331 331 332 335 336 335 335 337 337 339 340 339 340 340 343 344 340 339 340 336 334 336 337 338 343 341 338 343 341 342
318 320 319 322 325 328 330 332 332 332 331 329 329 329 329 329 330 332 332 332 334 334 335 336 335 336 336 335 336 337 337 339 340 337 332 335 335 337 334 336 336 340 341
314 315 315 318 321 324 326 328 328 326 325 329 330 327 326 326 326 327 326 326 327 327 329 327 326 326 327 329 330 331 331 331 333 333 333 333 336 338 335 330 330 339 338
312 312 313 316 318 321 321 319 322 320 322 320 327 329 326 324 323 324 322 322 324 322 323 321 323 320 315 317 317 321 324 323 322 321 324 329 332 333 330 330 330 334 339
309 310 311 313 314 320 321 323 323 323 324 323 327 328 327 322 307 309 319 323 323 322 323 322 322 317 317 311 311 311 316 321 322 322 321 325 336 337 332 332 331 329 329
308 309 310 312 312 316 320 321 323 326 328 327 328 329 327 328 302 304 308 325 324 324 325 324 322 318 315 319 313 310 310 309 311 323 324 325 328 337 335 337 335 332 329
306 307 308 310 311 314 318 321 322 324 327 329 329 330 330 328 302 301 305 324 325 326 326 326 325 323 322 320 319 319 320 322 324 325 327 328 331 336 340 341 342 338 335
305 305 306 308 310 312 315 318 323 322 324 325 326 329 330 330 302 300 306 321 321 324 324 325 325 324 311 303 319 318 319 320 316 310 310 308 304 304 312 332 331 330 329
304 305 306 308 310 311 313 317 320 322 321 321 323 326 321 328 302 299 306 317 318 319 324 325 307 316 304 300 318 318 316 318 320 324 327 319 312 325 306 322 333 329 334
303 302 302 305 307 309 312 315 317 319 320 320 320 322 323 323 322 299 298 318 317 317 318 319 321 302 300 298 298 318 316 315 314 320 321 320 327 332 331 324 336 338 337
301 301 301 302 304 306 309 312 314 316 317 316 317 318 320 322 308 299 297 299 310 319 318 319 321 299 298 298 301 302 297 300 315 316 317 319 326 327 326 329 338 338 343
300 299 300 300 301 303 305 309 309 313 313 313 313 313 315 317 319 300 296 296 298 314 319 314 303 298 296 298 295 295 295 314 316 317 319 323 326 327 329 333 336 338 338
297 297 298 299 299 302 302 303 305 307 310 311 311 312 313 314 315 317 314 310 299 306 308 315 311 306 303 305 307 309 316 318 318 321 321 325 327 328 328 330 329 333 331
297 297 297 298 299 299 301 302 302 305 307 310 311 312 312 312 314 309 311 316 316 310 310 314 314 314 314 315 316 316 318 320 320 323 322 322 323 325 326 330 330 329 329
294 295 296 297 298 300 300 301 297 297 297 294 295 300 312 303 298 296 297 297 296 296 310 312 312 313 313 314 315 315 318 316 323 324 321 321 322 324 323 327 329 330 327
294 295 295 295 297 297 298 298 297 298 295 295 293 294 294 297 294 295 294 294 294 295 309 310 311 312 313 314 315 316 316 320 324 324 321 321 322 322 320 325 328 328 328
295 293 294 295 296 297 298 298 299 298 298 299 295 296 294 293 293 293 294 293 306 302 309 310 311 313 314 314 315 317 318 322 324 323 321 322 323 322 323 327 327 326 326
292 292 293 293 294 294 295 296 297 299 299 300 302 296 296 292 292 293 293 307 307 307 308 310 313 314 314 315 316 318 320 322 321 320 321 323 322 324 325 324 325 308 314
292 291 291 292 293 293 294 295 295 295 296 299 300 302 304 297 298 300 302 305 306 308 308 310 311 313 314 315 317 319 323 319 321 322 322 323 324 325 322 323 325 324 325
292 293 290 292 292 292 292 293 295 295 295 297 298 300 294 300 302 304 305 305 307 308 310 311 311 313 314 315 318 319 324 321 324 324 324 324 327 325 325 326 324 325 327
291 291 292 293 293 293 293 294 295 296 297 298 300 300 290 303 303 304 304 307 308 310 311 312 314 315 313 316 318 321 322 322 325 326 323 328 326 325 325 325 325 326 326
293 293 295 296 299 295 298 295 295 297 299 300 301 301 300 302 304 305 307 308 310 310 310 314 311 313 319 322 326 324 322 326 326 326 327 325 326 325 326 325 325 324 324
297 297 303 307 305 302 298 297 297 296 300 301 303 302 302 304 305 306 308 309 310 311 312 313 316 318 321 323 324 325 330 330 328 329 328 327 324 319 326 326 324 318 313
307 308 311 313 307 305 304 303 303 303 303 304 305 306 306 306 308 309 311 312 313 313 315 318 321 318 319 324 326 330 309 297 324 313 328 328 326 326 325 321 316 309 304
303 303 304 304 304 307 308 308 307 306 306 309 310 308 308 308 311 313 314 316 317 317 316 317 323 323 325 329 328 303 295 293 313 300 328 328 324 322 320 314 308 305 303

GFSGL_sfc_thetae_099.txt.gz
Theta_e
323 324 325 328 332 333 335 338 343 346 348 339 342 345 346 347 349 349 348 344 344 346 347 344 344 347 343 339 340 339 336 334 330 331 333 337 340 341 342 344 345 345 342
319 322 324 325 327 325 327 334 337 335 335 333 335 335 335 335 341 339 336 335 336 338 339 341 340 343 343 345 345 342 342 342 338 332 334 335 338 342 346 345 345 343 342
318 318 321 323 324 324 323 322 329 332 330 328 328 328 328 329 332 334 333 332 332 335 334 335 337 339 340 339 341 340 341 342 340 336 332 336 336 340 339 341 342 340 339
314 315 317 319 322 322 318 318 320 327 330 329 328 327 327 328 329 330 329 330 332 331 334 335 334 335 335 337 336 336 336 333 332 330 330 330 333 337 339 336 334 337 336
311 312 313 317 319 321 315 314 315 319 320 321 324 326 327 326 324 327 327 328 328 328 329 328 328 324 315 317 323 328 329 324 322 320 322 324 327 330 331 336 333 333 336
310 310 311 313 315 318 318 315 314 318 321 320 321 321 325 322 310 310 323 328 327 326 325 323 324 318 315 311 311 311 315 320 320 317 317 320 327 331 336 337 334 329 322
310 310 310 311 311 314 317 317 314 316 320 320 318 323 324 327 303 305 308 327 328 327 328 327 322 319 319 321 311 310 310 308 311 324 321 323 325 331 334 334 335 334 325
308 308 309 309 309 311 314 318 319 319 317 320 320 322 325 320 312 304 306 330 329 329 329 329 329 324 324 322 321 320 320 322 323 320 325 329 332 334 334 334 334 335 334
306 306 307 309 308 309 311 316 320 324 323 324 325 326 327 327 307 304 309 326 328 329 326 328 327 326 312 306 321 319 319 322 316 308 306 306 304 303 308 324 327 327 327
304 306 306 307 307 308 312 316 319 322 322 325 326 329 324 328 304 302 307 319 324 322 328 330 309 320 304 302 322 320 317 319 320 321 322 321 314 321 307 323 329 325 325
306 305 306 305 306 308 309 310 316 317 320 324 324 327 330 328 324 300 301 320 319 319 318 321 323 304 302 298 302 322 319 316 316 317 317 319 322 325 325 332 333 330 328
305 303 304 304 303 303 307 307 310 311 313 321 323 324 324 330 313 301 298 303 314 322 321 321 322 302 301 300 302 304 299 300 315 314 315 317 319 321 326 334 334 334 339
304 302 301 303 304 304 304 304 302 306 307 314 318 319 320 322 324 303 297 298 301 314 323 315 300 298 300 301 297 297 293 315 314 314 316 318 322 327 329 328 330 331 338
299 299 299 300 301 303 303 302 302 303 306 310 313 314 317 320 320 320 314 308 300 308 310 317 312 309 307 308 310 307 316 316 316 317 318 321 327 325 325 327 331 335 330
297 299 299 299 299 300 301 301 301 306 306 308 314 315 313 313 316 314 314 317 317 311 313 319 318 317 317 316 317 317 317 318 319 320 320 323 323 324 325 332 332 329 325
295 296 296 296 297 297 298 299 297 296 295 295 293 298 305 296 296 298 297 299 300 299 311 314 314 314 314 314 317 317 319 316 319 320 323 325 321 322 325 329 328 325 323
294 296 296 295 296 296 296 297 297 299 295 294 294 292 294 294 295 296 294 294 294 298 313 313 313 315 315 315 316 315 315 317 322 319 324 324 321 321 320 325 326 324 326
296 294 295 295 296 297 297 297 298 298 298 300 297 295 293 293 294 295 294 292 306 303 312 312 312 312 313 314 315 316 317 319 319 321 325 322 322 321 322 322 324 325 327
292 292 294 293 293 293 295 297 298 298 298 299 301 299 295 292 292 293 293 306 309 309 310 310 310 311 313 314 316 316 317 317 319 323 324 322 322 323 322 321 323 309 315
292 291 291 292 292 292 292 293 294 296 298 299 300 301 304 300 301 302 305 306 308 309 310 310 310 311 314 314 315 316 316 318 321 324 322 322 322 324 323 323 327 325 327
291 291 290 291 291 291 290 292 293 294 295 297 299 301 294 302 303 304 306 306 307 309 310 311 312 312 313 314 315 315 316 319 325 323 322 322 322 325 325 326 326 326 324
293 293 292 292 293 292 290 292 293 294 295 296 299 299 289 303 303 304 305 307 308 309 310 312 312 312 314 314 315 315 319 322 325 323 322 324 325 324 327 327 327 328 325
297 297 297 296 296 292 293 293 293 295 296 297 298 299 300 303 303 304 305 308 309 311 313 314 313 312 315 317 318 316 318 323 325 325 326 325 326 325 325 327 324 323 324
302 302 305 305 301 298 296 295 295 294 297 298 301 301 300 302 303 305 305 309 309 311 312 312 313 312 315 317 320 324 325 327 327 327 328 328 326 317 325 323 322 324 321
304 305 309 308 305 301 299 298 298 298 300 300 301 302 303 304 304 306 309 310 310 310 310 312 313 314 316 317 321 323 313 296 319 311 330 326 324 325 323 323 320 317 314
298 299 300 303 305 308 305 304 303 304 304 304 304 304 306 307 306 307 308 309 311 311 312 313 315 316 319 320 319 308 295 294 309 294 321 325 324 321 320 318 314 310 307

GFSGL_sfc_thetae_105.txt.gz
Theta_e
312 312 313 312 313 317 321 321 320 318 318 318 317 316 315 317 322 317 317 319 322 332 330 326 325 325 324 327 333 331 327 324 320 321 324 325 328 329 331 332 334 334 334
311 312 312 312 314 315 315 317 319 318 317 316 316 315 316 316 316 317 323 323 328 324 322 319 323 327 323 320 323 330 328 325 322 318 319 323 325 327 328 329 332 337 336
309 307 306 308 309 310 313 316 317 318 316 315 315 313 314 316 316 315 316 318 320 321 321 321 323 321 325 328 328 328 327 327 324 320 318 319 323 324 323 328 328 329 332
308 307 306 307 307 307 307 308 311 315 316 314 313 314 317 317 318 317 315 313 316 324 324 324 325 323 328 329 331 328 326 323 321 319 315 314 317 319 321 323 322 324 326
308 306 305 307 307 306 306 306 308 311 315 315 314 312 314 316 319 313 314 313 312 322 320 321 322 321 327 328 331 326 321 318 316 314 312 312 314 314 317 318 317 320 322
307 307 307 307 307 306 305 306 306 306 311 312 312 312 313 317 311 308 312 314 320 322 322 326 329 324 321 317 315 313 314 310 307 305 304 303 305 309 311 312 314 314 314
306 307 308 307 306 305 306 305 304 304 305 309 310 311 312 315 308 307 308 313 316 320 317 315 317 317 312 308 307 308 307 308 309 308 306 308 309 312 313 311 311 313 315
304 305 306 306 305 305 303 302 301 302 303 305 308 312 312 315 307 306 305 310 316 321 317 315 313 309 309 307 306 307 308 308 307 309 309 310 312 314 315 316 314 314 315
303 303 305 306 305 304 303 303 303 302 301 304 307 309 311 313 304 302 304 312 313 316 317 316 316 312 305 306 309 308 309 311 312 307 305 304 305 302 302 304 304 305 307
300 302 303 303 302 303 303 303 303 303 302 305 305 305 308 313 304 300 303 312 309 312 316 316 311 313 303 304 312 310 308 309 312 312 311 308 306 308 305 306 307 307 309
298 298 299 300 301 302 302 302 303 302 302 301 303 303 307 312 314 302 302 310 309 309 314 316 315 304 300 300 306 311 309 311 310 310 308 307 307 308 309 311 310 312 311
295 295 296 297 299 300 301 303 304 302 298 298 298 299 304 311 307 305 300 299 306 309 312 316 315 300 299 299 305 305 302 306 309 306 305 305 305 306 308 312 318 318 320
292 292 293 295 297 299 300 301 302 301 296 296 297 296 298 306 313 303 301 298 300 309 311 311 307 299 298 300 300 300 300 308 306 304 304 305 305 308 312 316 317 319 321
291 291 292 292 294 296 299 301 301 301 297 298 297 295 297 302 305 304 309 304 302 306 305 309 308 304 303 305 301 301 306 307 306 305 306 308 307 309 311 315 315 321 323
290 291 291 293 293 295 297 299 299 300 298 298 297 297 298 302 299 297 298 310 307 307 307 311 308 307 307 307 307 304 305 308 307 307 307 307 307 309 313 314 316 323 321
289 290 290 292 293 295 296 296 295 296 295 293 293 295 300 297 294 294 294 294 297 301 306 307 308 308 308 309 309 308 307 307 308 308 308 309 309 312 313 314 317 321 319
289 290 291 291 292 293 294 295 295 294 294 293 293 292 294 296 293 294 295 294 295 297 308 308 310 310 310 310 310 309 308 309 310 309 308 309 313 314 313 313 317 319 318
289 290 291 290 290 292 294 295 295 295 294 294 293 293 292 293 293 294 294 297 303 299 310 310 309 309 309 309 308 308 308 308 307 307 307 313 314 313 312 314 317 318 317
288 289 290 291 291 291 293 295 295 295 295 295 297 294 292 292 292 292 294 298 300 304 306 305 306 306 307 308 308 307 307 306 307 308 311 315 315 314 313 316 318 302 307
290 290 289 290 291 291 291 293 293 293 295 296 296 297 293 291 293 295 295 298 300 302 304 309 309 306 306 305 305 304 304 305 305 306 313 315 315 316 315 316 318 317 315
292 293 289 290 290 290 291 291 292 292 293 295 297 297 291 294 295 296 298 299 300 302 305 306 308 305 304 304 303 303 304 305 306 310 315 316 316 316 317 318 318 318 318
295 295 294 292 291 291 290 291 291 292 292 294 296 294 287 295 298 298 298 300 302 305 306 308 307 305 304 304 304 304 305 305 311 315 316 316 316 317 318 318 318 318 317
300 300 300 299 295 290 290 291 291 291 293 294 295 297 297 299 297 299 302 302 305 305 306 307 306 304 305 306 310 310 309 307 314 317 317 316 317 319 320 318 319 318 317
297 298 301 296 295 293 291 291 292 290 293 295 296 295 297 299 300 299 299 303 304 304 304 303 303 304 304 306 309 309 310 312 315 319 319 319 319 315 318 319 318 316 311
292 294 295 297 295 294 293 293 293 293 294 295 296 297 297 298 301 302 302 300 300 302 302 303 303 303 305 306 307 309 303 296 306 303 319 321 320 317 316 319 316 311 308
288 289 290 291 292 295 297 296 295 296 296 297 297 298 299 298 300 301 302 301 301 301 302 303 304 305 306 306 307 302 295 291 300 292 312 319 318 316 317 316 313 310 306

GFSGL_sfc_thetae_108.txt.gz
Theta_e
309 309 309 311 311 311 314 317 316 316 316 316 315 314 314 313 315 317 317 318 318 320 322 325 327 325 324 323 325 324 325 324 320 325 321 324 323 323 327 330 331 331 331
310 309 309 310 310 310 313 313 314 315 315 315 315 314 314 314 313 312 314 318 318 317 319 322 325 324 319 318 320 321 320 322 322 321 320 321 322 324 325 325 328 332 332
308 308 308 308 307 309 309 310 311 312 311 313 315 314 313 313 314 313 314 314 314 316 323 324 323 323 320 320 318 319 320 321 323 323 321 319 320 319 317 319 323 326 328
306 305 304 304 305 307 306 307 308 309 309 311 313 314 314 314 315 316 316 313 313 313 315 319 321 322 322 321 320 319 319 320 325 322 318 314 313 314 314 315 319 320 323
305 304 304 304 304 304 305 305 306 306 307 310 312 312 312 312 314 313 312 311 310 311 313 314 314 322 321 320 321 321 322 323 323 320 315 314 313 313 314 314 313 314 316
304 304 305 305 306 305 305 305 304 304 304 306 308 310 310 313 309 307 310 312 313 313 314 314 317 320 319 316 318 318 325 322 315 312 309 308 306 307 309 309 310 309 308
303 305 306 305 306 305 306 305 303 303 302 303 305 307 308 309 306 304 307 311 313 314 314 312 315 321 318 321 313 313 313 311 314 309 304 304 305 308 309 307 308 308 309
301 302 303 304 304 304 303 302 301 300 300 300 301 304 306 308 305 303 304 310 312 313 314 314 318 320 321 321 316 312 310 310 308 309 307 309 310 311 312 311 311 308 308
298 298 300 301 301 301 302 303 303 301 300 299 302 302 304 306 303 302 303 310 313 313 316 318 316 315 303 303 310 308 307 307 306 305 305 303 303 303 308 304 302 301 301
296 297 298 297 297 297 298 299 301 302 302 304 303 304 304 303 302 301 303 311 312 312 314 316 308 310 300 301 309 308 307 308 311 307 305 303 303 305 301 305 304 303 303
296 295 295 295 295 296 296 297 298 299 301 302 302 301 302 303 305 301 299 308 312 311 311 314 311 300 298 299 303 310 308 308 307 308 307 306 305 305 306 306 307 307 305
293 294 293 293 294 295 294 296 297 298 299 301 299 297 300 302 302 302 299 298 306 310 310 316 312 298 298 299 305 301 299 306 308 306 304 303 303 303 305 306 310 311 313
291 291 292 293 293 293 294 294 295 299 300 300 299 298 296 299 302 303 302 299 297 306 312 311 303 298 297 298 301 299 300 308 306 304 303 302 303 305 306 310 313 315 316
290 290 290 291 292 292 293 294 295 296 298 299 297 295 295 297 301 305 308 308 300 303 303 305 305 303 301 302 302 302 309 308 306 305 304 303 305 305 306 309 311 313 315
289 290 290 291 291 291 292 294 295 299 300 300 299 298 294 295 297 297 300 307 308 305 304 306 306 306 304 305 305 304 305 306 306 305 304 304 304 305 306 310 312 313 316
288 289 290 290 291 291 292 293 295 294 296 294 294 298 299 296 293 293 293 294 295 297 307 305 305 306 306 305 305 304 304 305 306 306 304 304 305 305 307 310 312 313 317
288 288 289 290 291 291 291 292 292 296 293 293 291 292 294 294 293 294 293 294 294 296 306 305 306 306 306 307 306 306 305 306 307 306 305 305 306 307 309 310 311 314 318
287 288 288 288 289 291 291 290 294 293 294 294 292 293 291 293 293 294 293 296 301 299 306 306 307 308 308 308 307 307 306 307 306 306 306 306 308 310 309 309 311 313 315
287 288 289 290 290 291 291 291 293 294 295 295 296 293 291 292 292 292 292 297 299 300 306 308 308 308 308 309 308 307 307 305 304 304 305 308 310 310 309 309 310 300 305
289 289 290 290 290 290 290 290 292 294 294 295 295 296 293 290 291 294 294 297 298 298 303 305 305 305 307 306 304 303 302 302 302 303 303 307 311 312 310 310 312 315 314
290 292 290 293 291 290 290 290 292 292 293 294 296 296 289 294 292 294 295 296 296 298 301 303 305 304 303 303 302 302 302 302 302 303 305 308 311 311 312 314 315 317 317
292 298 298 297 293 291 290 291 292 292 292 293 294 295 286 297 294 293 295 297 298 300 303 303 303 303 303 303 302 302 301 301 303 307 310 311 312 314 315 314 316 315 316
294 297 297 295 294 290 290 291 291 291 292 293 295 297 296 298 298 295 296 300 301 302 303 304 302 302 302 303 304 304 305 306 307 310 311 312 314 315 317 316 316 316 317
292 293 295 296 294 292 291 291 291 289 292 294 294 296 297 299 299 298 297 298 300 301 301 302 304 302 305 306 307 307 308 310 311 313 315 316 316 312 316 317 317 314 310
289 289 290 291 293 294 293 293 292 292 293 295 295 296 296 298 298 297 297 300 301 300 303 302 302 303 304 304 305 306 300 295 306 298 316 316 317 317 316 317 312 308 306
286 287 287 288 288 290 292 295 295 295 294 296 297 296 297 297 298 298 298 298 298 298 300 300 302 303 303 302 303 298 293 292 299 291 310 314 315 316 316 315 310 308 304

GFSGL_sfc_thetae_111.txt.gz
Theta_e
308 308 308 309 312 312 310 310 314 314 315 314 314 313 312 312 311 310 311 313 314 315 316 319 320 322 320 321 325 324 326 325 320 320 323 325 325 325 325 327 327 326 327
307 307 307 307 309 308 308 310 313 313 314 315 314 313 313 313 311 310 311 313 312 313 315 316 317 323 323 325 323 321 320 322 321 318 319 321 321 322 322 323 325 330 329
305 306 306 306 306 306 308 309 310 311 312 312 312 313 313 313 311 311 312 312 312 312 313 316 319 321 322 318 319 319 319 320 319 318 318 322 323 320 321 317 320 320 325
304 303 303 303 303 303 305 306 307 310 310 308 309 311 313 313 313 313 313 312 312 313 313 313 314 317 319 319 318 318 318 317 318 317 318 319 318 319 315 313 314 317 319
303 302 302 303 303 303 303 304 305 306 307 308 308 309 310 311 312 311 312 312 311 310 311 312 313 314 316 318 320 320 319 317 317 316 316 318 313 314 313 315 314 311 313
302 302 303 303 304 303 304 304 304 305 305 305 305 308 309 311 307 306 309 309 310 311 310 311 312 314 314 312 312 316 318 316 317 317 317 317 316 313 312 310 309 307 305
300 301 302 302 302 302 303 303 302 302 302 302 302 304 306 306 303 303 305 307 309 310 311 312 313 315 314 314 312 311 314 312 315 321 318 313 310 310 310 308 307 306 306
297 298 299 299 299 299 300 300 301 302 301 302 303 303 303 306 302 301 302 304 306 309 311 312 313 314 315 314 314 315 317 320 319 320 320 313 311 311 311 309 308 306 304
295 295 296 297 297 297 296 296 297 298 300 302 303 303 303 304 300 300 301 304 306 308 311 314 314 314 310 304 315 315 317 315 311 308 308 304 302 303 308 307 302 301 299
294 295 296 296 295 295 295 295 297 298 298 300 301 302 303 302 300 298 300 303 305 309 313 314 308 307 302 303 314 313 309 309 310 306 306 303 303 303 303 306 303 301 300
294 294 294 294 294 295 294 295 295 296 297 298 298 299 303 303 303 298 298 301 307 310 311 312 314 301 300 301 305 311 309 309 306 308 306 306 306 306 304 303 304 304 302
293 292 292 293 293 294 293 293 294 294 295 294 294 296 302 302 300 299 297 296 304 308 308 312 313 298 299 299 304 298 300 305 309 306 305 303 302 302 303 304 305 306 308
291 291 291 292 292 292 292 292 292 293 293 294 297 298 300 301 302 298 296 294 297 305 306 308 302 295 297 298 297 297 302 309 306 304 303 302 302 303 304 305 310 312 312
289 289 290 290 290 291 292 292 292 292 293 294 296 299 299 299 297 298 303 301 300 304 304 305 304 299 299 301 301 303 308 308 307 305 304 302 303 303 304 305 306 309 309
288 288 289 290 290 291 291 292 292 294 295 295 298 299 297 295 296 296 297 307 308 305 304 305 304 304 304 304 304 306 307 306 306 304 304 302 302 303 303 305 308 309 314
287 287 288 289 290 290 291 291 292 292 293 293 293 295 300 296 294 293 294 294 296 295 303 304 302 306 306 306 304 303 304 304 305 305 304 303 303 302 303 306 309 310 316
286 286 287 288 288 289 290 290 289 293 294 293 292 293 294 294 292 292 293 295 293 293 305 304 304 306 305 307 306 304 303 305 305 305 304 303 304 304 304 307 308 311 316
286 287 286 287 288 288 289 290 291 289 292 294 292 293 291 292 291 291 293 297 301 301 308 305 305 306 306 306 307 305 305 305 304 304 304 305 304 305 307 307 308 310 311
286 287 288 289 290 290 290 290 291 291 292 295 296 291 292 291 291 291 291 300 299 300 306 307 306 307 308 307 307 306 306 305 304 304 304 304 305 306 307 307 307 300 302
287 289 290 290 291 291 290 290 290 290 293 293 295 294 293 291 290 292 294 298 299 299 302 306 307 308 308 308 308 306 305 303 302 302 301 303 306 308 308 307 308 311 312
288 290 290 296 294 291 290 290 291 291 293 293 295 295 289 293 291 291 293 296 298 299 300 304 305 306 307 306 304 302 301 301 301 302 304 304 307 307 309 309 310 310 314
290 294 296 294 293 292 291 291 291 292 293 292 294 294 286 294 292 292 293 296 299 300 302 302 304 305 304 304 302 301 300 300 302 304 306 308 309 310 310 310 310 311 314
291 292 294 295 293 290 291 292 292 291 292 292 294 296 295 296 294 292 294 295 297 299 301 303 303 302 301 302 303 302 302 302 303 306 309 309 310 310 311 311 312 314 314
288 290 291 292 294 292 292 291 291 290 292 292 294 296 296 298 298 294 295 296 297 300 303 303 301 302 302 303 305 306 308 308 309 312 312 311 311 308 313 315 315 315 315
286 287 287 288 289 290 294 293 292 292 293 293 295 295 296 296 297 297 296 298 298 300 302 300 301 304 304 304 305 306 298 289 305 298 312 312 312 313 313 314 310 306 304
283 284 285 285 286 287 288 290 293 294 293 293 296 296 296 296 297 297 296 299 300 298 298 301 302 302 302 303 303 295 291 288 296 290 306 310 312 312 314 311 308 305 303

GFSGL_sfc_thetae_114.txt.gz
Theta_e
308 309 310 310 311 313 313 314 315 318 319 319 318 317 315 315 315 314 314 315 315 316 318 319 320 322 322 323 325 325 324 324 319 323 329 331 330 328 332 333 332 333 333
307 308 308 308 309 310 311 312 312 313 317 318 318 317 315 315 315 313 313 315 315 314 315 316 317 321 322 325 324 323 324 327 324 320 326 326 326 326 328 330 331 333 333
306 305 306 306 307 307 308 310 311 312 314 315 316 316 315 315 315 314 313 314 314 314 315 315 316 319 319 322 323 322 324 325 325 323 323 326 327 328 326 329 326 328 331
304 304 304 304 304 304 305 306 307 309 310 312 313 315 315 315 314 314 313 313 314 314 315 315 315 315 316 318 321 322 322 320 320 321 319 321 324 326 326 325 320 325 326
303 303 303 304 304 305 305 305 306 307 308 309 309 310 311 312 313 313 314 314 313 313 315 315 316 316 315 315 317 320 320 319 319 318 316 317 319 319 320 322 322 322 322
300 300 302 302 303 303 304 304 304 305 305 306 307 307 308 309 306 306 311 312 313 313 312 313 314 314 314 311 312 314 318 319 315 315 316 315 317 321 318 318 319 315 314
298 299 300 300 300 300 301 301 301 301 303 303 304 305 305 307 303 303 305 311 311 312 311 311 311 313 313 315 311 309 310 309 312 318 315 317 319 321 319 317 316 316 316
296 297 298 298 297 298 298 298 299 300 300 301 302 303 304 305 302 300 302 309 309 309 309 310 311 312 314 313 314 314 315 315 315 314 318 320 322 319 320 320 317 315 314
295 295 296 296 296 296 296 296 296 296 296 297 298 299 302 305 300 299 300 305 305 306 308 309 311 312 308 303 311 312 313 315 312 308 309 308 305 305 310 313 310 309 307
293 294 295 295 295 295 295 295 295 295 295 297 297 298 299 302 300 298 300 303 303 303 305 308 305 309 304 301 306 309 309 312 314 314 315 306 306 306 305 317 311 308 309
293 293 294 295 294 294 294 294 294 293 295 295 295 296 299 300 301 298 297 302 303 304 306 308 312 303 299 298 298 314 313 315 310 313 311 312 310 311 311 312 313 313 312
292 292 292 292 293 293 293 293 293 293 293 293 293 295 296 298 298 298 297 297 301 304 306 310 309 301 299 299 302 299 300 308 312 310 310 309 309 309 311 311 312 312 315
291 290 290 291 292 292 291 291 291 292 292 292 292 293 295 301 303 298 296 296 295 298 307 305 298 297 297 302 297 299 301 311 310 309 310 309 309 310 311 312 313 313 314
288 288 289 289 290 291 291 292 291 291 291 291 292 293 296 299 302 302 301 302 298 300 304 306 304 301 297 302 302 304 312 312 311 311 309 308 308 309 312 314 315 316 317
287 287 288 288 289 290 291 291 292 293 293 292 293 295 295 297 300 297 298 303 306 304 305 307 306 304 303 306 307 311 311 312 311 309 308 308 308 311 311 312 314 317 317
286 287 287 288 288 289 289 290 292 292 292 291 291 292 295 295 293 290 294 294 293 295 304 304 305 305 305 307 309 309 311 309 311 311 310 309 309 310 311 313 315 317 317
285 285 286 287 287 287 288 288 288 292 292 292 291 291 291 293 292 293 293 295 292 295 304 304 306 308 308 310 310 310 310 312 312 312 311 311 311 311 309 312 315 317 319
285 287 286 287 288 288 288 289 289 289 290 291 294 292 291 292 291 291 292 297 301 300 304 305 307 309 310 310 310 310 310 310 311 310 311 312 312 312 312 314 316 317 318
286 287 288 289 290 290 290 290 289 291 290 291 296 292 293 290 290 290 291 300 299 299 301 305 309 309 311 312 312 312 311 310 310 311 311 312 312 313 314 316 315 299 305
287 288 289 291 293 293 291 289 289 290 290 292 294 295 295 294 295 295 296 298 299 299 300 303 310 311 311 312 311 311 310 310 311 311 311 312 313 315 315 316 316 315 314
287 289 289 295 293 292 291 290 290 291 291 294 295 295 289 296 295 295 296 297 298 299 300 302 310 311 312 312 311 311 311 310 309 309 310 311 312 314 316 317 317 317 317
288 290 293 295 293 291 291 291 291 292 293 293 294 295 286 295 295 294 296 298 299 300 301 302 305 311 312 311 310 309 307 307 309 312 314 316 317 318 318 318 318 318 317
287 289 290 292 293 290 292 292 292 292 292 293 294 295 295 296 298 295 296 298 299 300 302 304 306 307 309 310 310 309 307 307 310 313 317 318 318 319 319 319 319 318 317
286 287 288 288 289 291 293 292 292 290 292 294 294 295 296 299 300 298 297 298 299 302 304 306 306 306 307 307 308 310 312 313 316 319 320 319 319 313 317 315 315 316 316
284 284 285 286 287 287 289 293 293 293 294 294 296 296 296 297 299 300 300 300 300 301 304 305 306 307 308 309 311 313 297 291 313 302 320 320 319 319 319 318 317 310 307
282 282 283 283 284 285 286 287 289 291 294 296 296 297 297 298 299 301 301 302 302 302 302 305 306 308 309 309 309 294 289 288 300 289 313 317 317 317 317 316 307 306 305

GFSGL_sfc_thetae_117.txt.gz
Theta_e
318 319 320 321 322 323 324 325 327 328 330 330 330 329 327 326 326 325 324 322 321 322 324 324 324 327 322 323 325 326 326 328 320 325 330 335 336 336 338 340 340 342 340
315 316 317 318 319 320 321 322 324 324 325 324 325 326 326 325 325 324 321 318 319 318 320 322 322 321 325 325 323 325 325 326 326 322 328 330 334 337 337 338 336 336 340
313 313 315 315 316 316 316 317 318 318 319 320 321 321 322 323 324 324 322 319 319 320 321 320 320 321 322 320 322 320 320 324 328 323 322 329 331 334 335 337 335 335 339
311 311 312 313 313 313 314 314 315 315 315 316 317 317 318 320 321 322 322 321 321 320 322 322 319 318 319 320 319 319 320 319 321 320 320 325 330 333 330 329 328 331 330
309 308 309 310 310 310 310 311 311 311 311 312 312 312 314 316 315 319 320 321 322 321 322 320 321 320 316 317 315 317 319 316 316 317 318 320 323 323 323 326 325 328 329
307 306 307 307 307 308 308 308 308 308 309 309 309 309 311 311 306 306 312 319 320 320 319 320 320 317 316 312 312 312 314 315 317 315 316 315 318 323 324 323 325 323 322
305 305 305 305 304 304 305 305 305 306 307 307 307 308 308 310 303 302 304 311 315 318 319 319 318 316 315 316 311 309 309 308 310 319 319 319 319 322 323 321 326 326 326
303 303 303 302 302 302 303 303 304 305 305 304 305 305 306 307 301 300 301 308 310 314 316 316 317 316 314 314 314 314 315 317 318 317 319 322 323 325 325 324 322 324 320
301 300 300 301 301 301 301 301 302 302 302 302 302 301 300 303 299 298 301 307 308 310 313 314 312 312 306 301 312 312 314 315 314 308 309 307 305 304 315 317 314 313 313
299 299 300 299 299 299 300 300 300 298 297 298 297 298 299 300 299 297 299 305 306 307 308 309 304 306 301 299 310 312 311 313 312 314 314 310 309 315 307 319 317 313 314
298 298 298 298 298 297 297 296 296 296 295 294 295 297 298 299 301 297 296 303 302 303 304 305 308 301 298 297 297 311 310 311 309 315 315 316 319 319 313 317 317 314 315
296 296 296 296 294 293 292 292 293 293 292 293 293 295 296 299 298 297 295 295 299 302 303 306 309 301 297 296 297 299 297 300 308 311 312 314 315 314 319 315 317 321 324
292 291 291 291 290 291 291 291 291 292 292 291 292 294 295 299 300 298 296 295 296 302 305 305 300 297 297 300 299 296 297 312 311 312 312 313 315 318 315 318 319 321 321
288 287 288 288 290 291 291 291 291 291 291 291 292 292 294 296 299 301 305 306 299 301 302 305 305 301 297 299 303 309 313 314 314 316 317 316 316 316 316 318 317 319 320
287 287 288 288 289 289 290 291 291 293 293 292 293 294 294 293 295 295 294 299 306 306 306 311 310 307 306 309 312 314 314 314 313 313 312 313 314 316 315 318 320 321 320
286 286 287 288 288 288 289 289 291 291 292 291 291 292 295 293 292 292 293 292 292 293 305 307 304 307 309 312 312 314 314 312 315 316 316 315 315 315 316 318 321 322 321
284 285 286 287 287 287 288 288 287 291 292 292 291 291 291 292 292 292 292 292 292 295 305 306 306 307 310 312 314 312 312 317 319 317 316 316 317 317 316 319 321 322 322
285 286 287 287 288 289 290 290 289 289 289 292 292 292 291 291 291 291 291 294 302 302 307 305 307 309 313 314 314 316 317 317 318 319 319 319 319 318 318 320 321 321 322
286 286 287 289 290 291 293 293 291 290 291 292 293 295 292 290 291 291 291 304 301 301 302 303 305 312 314 315 318 318 319 319 319 320 320 320 320 319 320 322 321 303 310
286 287 288 290 293 294 293 291 291 291 292 292 294 296 296 294 297 300 303 302 300 300 302 303 304 314 316 315 317 317 317 318 320 320 320 319 320 320 319 321 322 320 321
286 288 288 293 295 293 292 291 291 292 292 294 295 296 288 301 302 302 301 301 300 301 303 302 304 316 316 317 318 318 319 319 319 319 318 318 319 319 321 321 323 323 324
287 288 291 292 294 293 293 293 293 294 295 294 295 296 287 301 302 302 302 301 301 302 302 303 306 316 318 318 319 319 319 318 317 318 320 321 323 323 323 323 323 324 324
287 287 288 290 291 291 293 294 293 293 293 294 294 296 296 298 303 303 303 301 301 302 304 306 311 316 319 320 321 320 318 316 318 322 322 321 321 321 322 322 321 322 323
285 286 286 287 288 290 293 294 296 292 294 295 295 297 301 303 304 301 299 299 300 305 308 311 313 316 318 319 319 317 317 318 321 322 320 317 317 315 320 322 323 320 319
284 284 284 284 285 286 288 290 293 295 296 297 297 299 300 303 304 303 300 301 301 306 310 313 313 315 317 316 316 317 300 291 316 304 319 319 315 315 317 318 320 319 319
282 282 283 283 283 284 284 285 287 289 290 293 297 299 301 304 305 303 302 303 305 309 310 313 314 315 316 318 318 296 287 289 305 292 318 320 317 316 317 317 318 317 312

GFSGL_sfc_thetae_120.txt.gz
Theta_e
326 327 328 327 327 329 329 330 332 334 334 333 333 333 333 333 333 333 332 328 326 330 330 327 327 331 323 322 322 321 320 320 315 319 325 332 340 338 339 341 340 342 340
321 322 323 323 324 326 327 328 329 329 330 330 329 329 330 330 332 331 329 327 325 326 326 326 325 322 331 330 323 329 324 327 320 323 324 323 331 338 337 339 338 340 339
318 318 320 321 321 322 322 323 323 323 324 324 325 325 326 326 327 328 328 327 327 329 329 328 328 328 328 323 326 322 320 322 319 317 319 322 324 329 333 336 338 341 339
316 316 317 318 318 318 319 320 320 320 320 320 321 321 321 322 323 324 324 326 329 328 330 329 327 327 327 328 326 327 324 321 319 316 316 318 321 326 329 329 330 337 336
314 314 315 316 316 316 316 316 316 317 316 316 316 316 317 317 316 320 320 321 325 326 328 326 327 325 320 322 322 324 325 319 314 313 313 315 317 320 322 328 329 329 333
312 312 313 313 313 313 313 313 313 313 313 313 313 313 313 313 306 304 309 316 319 319 322 323 326 321 318 313 312 312 317 321 318 312 312 312 317 321 322 322 325 322 322
311 310 310 310 310 310 310 310 310 311 312 312 312 313 313 314 304 302 304 312 313 316 316 317 318 317 318 321 314 310 311 308 309 316 313 315 316 319 324 324 323 324 323
308 308 308 308 307 307 308 308 309 310 311 310 311 312 312 312 302 299 300 309 310 312 315 315 316 318 318 316 318 317 318 319 317 317 319 319 319 321 323 324 325 326 327
306 306 306 306 305 306 306 307 308 308 307 307 307 307 307 307 300 298 299 303 304 305 310 313 314 315 310 303 313 313 316 317 312 306 305 304 303 304 309 321 319 321 317
304 304 305 305 305 305 305 304 304 303 302 302 301 302 302 302 298 296 298 301 303 306 310 311 305 308 302 299 310 312 309 311 313 316 318 313 307 314 306 321 320 318 313
304 304 304 305 303 302 301 300 298 296 294 294 294 295 296 297 298 296 296 299 301 303 304 305 307 300 298 298 298 307 306 310 311 313 313 319 319 319 319 321 323 322 314
303 302 301 299 296 294 293 292 291 292 292 293 294 294 296 297 297 297 295 295 299 302 302 304 306 299 297 296 298 300 298 301 312 312 312 313 314 317 319 323 324 321 318
296 294 292 291 290 291 290 290 291 291 291 291 293 293 294 297 301 298 296 295 296 299 305 304 298 296 296 299 297 297 297 307 308 307 306 308 314 320 323 320 318 318 320
289 288 288 289 290 291 292 292 291 291 292 292 292 293 294 297 299 301 301 299 298 303 304 306 305 302 298 301 303 305 307 308 305 304 307 310 315 316 316 317 312 316 317
288 289 288 289 289 290 291 291 291 293 293 292 292 293 293 294 296 296 293 295 296 299 298 309 310 310 310 307 311 310 312 311 314 311 309 312 314 314 313 315 316 318 317
287 287 286 288 288 289 289 289 292 291 291 291 290 291 293 292 292 292 292 291 291 292 304 307 307 309 306 310 310 311 313 310 312 313 314 315 313 314 315 317 318 318 318
284 285 286 287 288 288 290 290 290 292 292 291 290 290 290 291 291 291 291 291 290 292 305 305 306 307 307 312 311 312 314 313 315 314 314 316 317 317 316 317 318 319 319
286 287 287 287 288 290 291 292 293 292 290 292 293 292 292 290 290 290 290 291 300 302 306 305 309 309 312 313 315 315 318 320 318 318 318 319 319 318 318 319 320 320 321
286 286 287 288 289 291 294 294 293 292 292 293 294 295 294 291 290 290 290 300 303 303 304 307 309 312 313 315 317 318 320 321 320 320 320 320 319 318 318 318 319 302 311
286 287 287 289 291 295 294 293 292 293 293 293 295 297 298 296 299 301 301 305 306 302 306 308 310 313 316 315 316 320 319 320 322 320 320 320 320 320 319 320 320 318 320
287 288 287 292 294 295 294 294 294 294 294 295 296 296 287 299 301 301 303 307 303 302 308 310 310 316 318 320 319 319 319 321 321 321 321 321 321 319 320 321 320 321 320
288 288 290 292 294 295 294 295 297 297 295 294 296 300 289 303 304 305 306 303 303 304 309 311 312 318 321 317 320 321 319 320 321 321 320 320 321 320 320 320 321 322 320
287 287 288 291 293 292 295 297 297 296 295 295 296 296 301 304 305 307 306 304 303 306 309 311 315 321 323 325 323 320 319 320 322 323 322 322 321 322 322 321 320 320 319
286 285 285 287 289 290 291 294 295 293 296 298 300 302 303 304 304 303 301 301 302 307 311 315 317 321 322 322 323 324 322 323 324 324 323 321 318 314 320 320 322 319 321
284 284 284 284 285 285 287 289 290 291 292 296 300 302 304 304 302 302 302 302 302 306 314 316 319 320 322 321 320 321 301 291 316 303 320 319 318 316 317 318 319 319 318
284 283 283 283 283 283 283 284 286 287 289 291 294 297 298 299 302 302 302 306 310 315 318 319 320 322 321 320 319 295 288 291 307 293 318 321 318 317 317 317 316 318 317